[[{"header":{"parameterUnit":"m.s-1","parameterCategory":1,"la1":30.6,"la2":29.2853,"lo1":-89.7004,"lo2":-87.6739,"dy":0.0162,"dx":0.0183,"nx":112,"ny":82,"refTime":"2024-03-26T12:00:00:Z","depth":0,"parameterNumber":2,"parameterNumberName":"U-component_of_WINDS"},"data":[0.0,0.0,0.0,0.0,0.0,0.0,0.0,0.0,0.0,0.0,0.0,0.0,0.0,0.0,0.0,0.0,0.0,0.0,0.0,0.0,0.0,0.0,0.0,0.0,0.0,0.0,0.0,0.0,0.0,0.0,0.0,0.0,0.0,0.0,0.0,0.0,0.0,0.0,0.0,0.0,0.0,0.0,0.0,0.0,0.0,0.0,0.0,0.0,0.0,0.0,0.0,0.0,0.0,0.0,0.0,0.0,0.0,0.0,0.0,0.0,0.0,0.0,0.0,0.0,0.0,0.0,0.0,0.0,0.0,0.0,0.0,0.0,0.0,0.0,0.0,0.0,0.0,0.0,0.0,0.0,0.0,0.0,0.0,0.0,0.0,0.0,0.0,0.0,0.0,0.0,0.0,-4.247,-4.3094,-4.3515,-4.3515,-4.3515,-4.28,-4.1205,0.0,0.0,0.0,0.0,0.0,0.0,0.0,0.0,0.0,0.0,0.0,0.0,0.0,0.0,0.0,0.0,0.0,0.0,0.0,0.0,0.0,0.0,0.0,0.0,0.0,0.0,0.0,0.0,0.0,0.0,0.0,0.0,0.0,0.0,0.0,0.0,0.0,0.0,0.0,0.0,0.0,0.0,0.0,0.0,0.0,0.0,0.0,0.0,0.0,0.0,0.0,0.0,0.0,0.0,0.0,0.0,0.0,0.0,0.0,0.0,0.0,0.0,0.0,0.0,0.0,0.0,0.0,0.0,0.0,0.0,0.0,0.0,0.0,0.0,0.0,0.0,0.0,0.0,0.0,0.0,0.0,0.0,0.0,0.0,0.0,0.0,0.0,0.0,0.0,0.0,0.0,0.0,0.0,0.0,0.0,0.0,0.0,0.0,0.0,0.0,0.0,0.0,0.0,0.0,-4.1809,-4.3167,-4.3441,-4.3515,-4.3515,-4.3515,-4.28,-4.1205,0.0,0.0,0.0,0.0,0.0,0.0,0.0,0.0,0.0,0.0,0.0,0.0,0.0,0.0,0.0,0.0,0.0,0.0,0.0,0.0,0.0,0.0,0.0,0.0,0.0,0.0,0.0,0.0,0.0,0.0,0.0,0.0,0.0,0.0,0.0,0.0,0.0,0.0,0.0,0.0,0.0,0.0,0.0,0.0,0.0,0.0,0.0,0.0,0.0,0.0,0.0,0.0,0.0,0.0,0.0,0.0,0.0,0.0,0.0,0.0,0.0,0.0,0.0,0.0,0.0,0.0,0.0,0.0,0.0,0.0,0.0,0.0,0.0,0.0,0.0,0.0,0.0,0.0,0.0,0.0,0.0,0.0,0.0,0.0,0.0,0.0,0.0,0.0,0.0,0.0,0.0,0.0,0.0,0.0,0.0,0.0,0.0,0.0,0.0,0.0,0.0,0.0,0.0,-4.1258,-4.2213,-4.3351,-4.3515,-4.3515,-4.3515,-4.3515,-4.28,-4.1205,-4.1095,0.0,0.0,0.0,0.0,0.0,0.0,0.0,0.0,0.0,0.0,0.0,0.0,0.0,0.0,0.0,0.0,0.0,0.0,0.0,0.0,0.0,0.0,0.0,0.0,0.0,0.0,0.0,0.0,0.0,0.0,0.0,0.0,0.0,0.0,0.0,0.0,0.0,0.0,0.0,0.0,0.0,0.0,0.0,0.0,0.0,0.0,0.0,0.0,0.0,0.0,0.0,0.0,0.0,0.0,0.0,0.0,0.0,0.0,0.0,0.0,0.0,0.0,0.0,0.0,0.0,0.0,0.0,0.0,0.0,0.0,0.0,0.0,0.0,0.0,0.0,0.0,0.0,0.0,0.0,0.0,0.0,0.0,0.0,0.0,0.0,0.0,0.0,0.0,0.0,0.0,0.0,0.0,0.0,0.0,0.0,0.0,0.0,0.0,0.0,0.0,0.0,0.0,-4.1992,-4.28,-4.3441,-4.3515,-4.3515,-4.3515,-4.3331,-4.2616,-4.1168,-4.0912,0.0,0.0,0.0,0.0,0.0,0.0,0.0,0.0,0.0,0.0,0.0,0.0,0.0,0.0,0.0,0.0,0.0,0.0,0.0,0.0,0.0,0.0,0.0,0.0,0.0,0.0,0.0,0.0,0.0,0.0,0.0,0.0,0.0,0.0,0.0,0.0,0.0,0.0,0.0,0.0,0.0,0.0,0.0,0.0,0.0,0.0,0.0,0.0,0.0,0.0,0.0,0.0,0.0,0.0,0.0,0.0,0.0,0.0,0.0,0.0,0.0,0.0,0.0,0.0,0.0,0.0,0.0,0.0,0.0,0.0,0.0,0.0,0.0,0.0,0.0,0.0,0.0,0.0,0.0,0.0,0.0,0.0,0.0,0.0,0.0,0.0,0.0,0.0,0.0,0.0,0.0,0.0,0.0,0.0,0.0,0.0,0.0,0.0,0.0,0.0,0.0,0.0,-4.247,-4.3441,-4.3515,-4.3515,-4.3515,-4.3515,-4.28,-4.2029,-4.1132,-4.0414,0.0,0.0,0.0,0.0,0.0,0.0,0.0,0.0,0.0,0.0,0.0,0.0,0.0,0.0,0.0,0.0,0.0,0.0,0.0,0.0,0.0,0.0,0.0,0.0,0.0,0.0,0.0,0.0,0.0,0.0,0.0,0.0,0.0,0.0,0.0,0.0,0.0,0.0,0.0,0.0,0.0,0.0,0.0,0.0,0.0,0.0,0.0,0.0,0.0,0.0,0.0,0.0,0.0,0.0,0.0,0.0,0.0,0.0,0.0,0.0,0.0,0.0,0.0,0.0,0.0,0.0,0.0,0.0,0.0,0.0,0.0,0.0,0.0,0.0,0.0,0.0,0.0,0.0,0.0,0.0,0.0,0.0,0.0,0.0,0.0,0.0,0.0,0.0,0.0,0.0,0.0,0.0,0.0,0.0,0.0,0.0,0.0,0.0,0.0,0.0,0.0,0.0,-4.2066,-4.2947,0.0,-4.3515,-4.3515,-4.3515,-4.3204,-4.2506,-4.1168,0.0,0.0,0.0,0.0,0.0,0.0,0.0,0.0,0.0,0.0,0.0,0.0,0.0,0.0,0.0,0.0,0.0,0.0,0.0,0.0,0.0,0.0,0.0,0.0,0.0,0.0,0.0,0.0,0.0,0.0,0.0,0.0,0.0,0.0,0.0,0.0,0.0,0.0,0.0,0.0,0.0,0.0,0.0,0.0,0.0,0.0,0.0,0.0,0.0,0.0,0.0,0.0,0.0,0.0,0.0,0.0,0.0,0.0,0.0,0.0,0.0,0.0,0.0,0.0,0.0,0.0,0.0,0.0,0.0,0.0,0.0,0.0,0.0,0.0,0.0,0.0,0.0,0.0,0.0,0.0,0.0,0.0,0.0,0.0,0.0,0.0,0.0,0.0,0.0,0.0,0.0,0.0,0.0,0.0,0.0,0.0,0.0,0.0,0.0,0.0,0.0,0.0,-4.1022,-4.2029,-4.2873,0.0,-4.3515,-4.3515,-4.3515,-4.3294,-4.2543,-4.1168,0.0,0.0,0.0,0.0,0.0,0.0,0.0,0.0,0.0,0.0,0.0,0.0,0.0,0.0,0.0,0.0,0.0,0.0,0.0,0.0,0.0,0.0,0.0,0.0,0.0,0.0,0.0,0.0,0.0,0.0,0.0,0.0,0.0,0.0,0.0,0.0,0.0,0.0,0.0,0.0,0.0,0.0,0.0,0.0,0.0,0.0,0.0,0.0,0.0,0.0,0.0,0.0,0.0,0.0,0.0,0.0,0.0,0.0,0.0,0.0,0.0,0.0,0.0,0.0,0.0,0.0,0.0,0.0,0.0,0.0,0.0,0.0,0.0,0.0,0.0,0.0,0.0,0.0,0.0,0.0,0.0,0.0,0.0,0.0,0.0,0.0,0.0,0.0,0.0,0.0,0.0,0.0,0.0,0.0,0.0,0.0,0.0,0.0,0.0,0.0,0.0,0.0,-4.1095,-4.2506,-4.3515,-4.3515,-4.3515,-4.3515,-4.3515,-4.2763,-4.1992,0.0,0.0,0.0,0.0,0.0,0.0,0.0,0.0,0.0,0.0,0.0,0.0,0.0,0.0,0.0,0.0,0.0,0.0,0.0,0.0,0.0,0.0,0.0,0.0,0.0,0.0,0.0,0.0,0.0,0.0,0.0,0.0,0.0,0.0,0.0,0.0,0.0,0.0,0.0,0.0,0.0,0.0,0.0,0.0,0.0,0.0,0.0,0.0,0.0,0.0,0.0,0.0,0.0,0.0,0.0,0.0,0.0,0.0,0.0,0.0,0.0,0.0,0.0,0.0,0.0,0.0,0.0,0.0,0.0,0.0,0.0,0.0,0.0,0.0,0.0,0.0,0.0,0.0,0.0,0.0,0.0,0.0,0.0,0.0,0.0,0.0,0.0,0.0,0.0,0.0,0.0,0.0,0.0,0.0,0.0,0.0,0.0,0.0,0.0,0.0,0.0,0.0,0.0,-4.1095,-4.2506,-4.3515,-4.3515,-4.3515,-4.3515,-4.3515,-4.3277,-4.2543,-4.1168,0.0,0.0,0.0,0.0,0.0,0.0,0.0,0.0,0.0,0.0,0.0,0.0,0.0,0.0,0.0,0.0,0.0,0.0,0.0,0.0,0.0,0.0,0.0,0.0,0.0,0.0,0.0,0.0,0.0,0.0,0.0,0.0,0.0,0.0,0.0,0.0,0.0,0.0,0.0,0.0,0.0,0.0,0.0,0.0,0.0,0.0,0.0,0.0,0.0,0.0,0.0,0.0,0.0,0.0,0.0,0.0,0.0,0.0,0.0,0.0,0.0,0.0,0.0,0.0,0.0,0.0,0.0,0.0,0.0,0.0,0.0,0.0,0.0,0.0,0.0,0.0,0.0,0.0,0.0,0.0,0.0,0.0,0.0,0.0,0.0,0.0,0.0,0.0,0.0,0.0,0.0,0.0,0.0,0.0,0.0,0.0,0.0,0.0,0.0,0.0,0.0,0.0,-4.1095,-4.2506,-4.3515,-4.3515,-4.3515,-4.3515,-4.3515,-4.3515,-4.2947,-4.1645,0.0,0.0,0.0,0.0,0.0,0.0,0.0,0.0,0.0,0.0,0.0,0.0,0.0,0.0,0.0,0.0,0.0,0.0,0.0,0.0,0.0,0.0,0.0,0.0,0.0,0.0,0.0,0.0,0.0,0.0,0.0,0.0,0.0,0.0,0.0,0.0,0.0,0.0,0.0,0.0,0.0,0.0,0.0,0.0,0.0,0.0,0.0,0.0,0.0,0.0,0.0,0.0,0.0,0.0,0.0,0.0,0.0,0.0,0.0,0.0,0.0,0.0,0.0,0.0,0.0,0.0,0.0,0.0,0.0,0.0,0.0,0.0,0.0,0.0,0.0,0.0,0.0,0.0,0.0,0.0,0.0,0.0,0.0,0.0,0.0,0.0,0.0,0.0,0.0,0.0,0.0,0.0,0.0,0.0,0.0,0.0,0.0,0.0,0.0,0.0,0.0,0.0,-4.1095,-4.2506,-4.3515,-4.3515,-4.3515,-4.3515,-4.3515,-4.3515,-4.3167,-4.2359,0.0,0.0,0.0,0.0,0.0,0.0,0.0,0.0,0.0,0.0,0.0,0.0,0.0,0.0,0.0,0.0,0.0,0.0,0.0,0.0,0.0,0.0,0.0,0.0,0.0,0.0,0.0,0.0,0.0,0.0,0.0,0.0,0.0,0.0,0.0,0.0,0.0,0.0,0.0,0.0,0.0,0.0,0.0,0.0,0.0,0.0,0.0,0.0,0.0,0.0,0.0,0.0,0.0,0.0,0.0,0.0,0.0,0.0,0.0,0.0,-3.8961,0.0,0.0,0.0,0.0,0.0,0.0,0.0,0.0,0.0,0.0,0.0,0.0,0.0,0.0,0.0,0.0,0.0,0.0,0.0,0.0,0.0,0.0,0.0,0.0,0.0,0.0,0.0,0.0,0.0,0.0,0.0,0.0,0.0,0.0,0.0,0.0,0.0,0.0,0.0,0.0,0.0,-4.1095,-4.2506,-4.3515,-4.3515,-4.3515,-4.3515,-4.3515,-4.3515,-4.3167,-4.2359,0.0,0.0,0.0,0.0,0.0,0.0,0.0,0.0,0.0,0.0,0.0,0.0,0.0,0.0,0.0,0.0,0.0,0.0,0.0,0.0,0.0,0.0,0.0,0.0,0.0,0.0,0.0,0.0,0.0,0.0,0.0,0.0,0.0,0.0,0.0,0.0,0.0,0.0,0.0,0.0,0.0,0.0,0.0,0.0,0.0,0.0,0.0,0.0,0.0,0.0,0.0,0.0,0.0,0.0,0.0,0.0,0.0,0.0,0.0,0.0,0.0,-3.946,0.0,0.0,0.0,0.0,0.0,0.0,0.0,0.0,0.0,0.0,0.0,0.0,0.0,0.0,0.0,0.0,0.0,0.0,0.0,0.0,0.0,0.0,0.0,0.0,0.0,0.0,0.0,0.0,0.0,0.0,0.0,0.0,0.0,0.0,0.0,0.0,0.0,0.0,0.0,0.0,-4.1609,-4.2727,-4.3515,-4.3515,-4.3515,-4.3515,-4.3515,-4.3515,-4.3331,-4.291,-4.2506,0.0,0.0,0.0,0.0,0.0,0.0,0.0,0.0,0.0,0.0,0.0,0.0,0.0,0.0,0.0,0.0,0.0,0.0,0.0,0.0,0.0,0.0,0.0,0.0,0.0,0.0,0.0,0.0,0.0,0.0,0.0,0.0,0.0,0.0,0.0,0.0,0.0,0.0,0.0,0.0,0.0,0.0,0.0,0.0,0.0,0.0,0.0,0.0,0.0,0.0,0.0,0.0,0.0,-4.1222,-4.1499,-4.1499,-4.1499,-4.1499,-4.1499,-4.1352,-4.1682,-4.2213,0.0,0.0,0.0,0.0,0.0,0.0,0.0,0.0,0.0,0.0,0.0,0.0,0.0,0.0,0.0,0.0,0.0,0.0,0.0,0.0,0.0,0.0,0.0,0.0,0.0,-4.2506,-4.2323,0.0,0.0,0.0,0.0,0.0,0.0,0.0,0.0,0.0,0.0,0.0,0.0,-4.2213,-4.2983,-4.3515,-4.3515,-4.3515,-4.3515,-4.3515,-4.3515,-4.3515,-4.3515,-4.2873,-4.2506,0.0,0.0,0.0,0.0,0.0,0.0,0.0,0.0,0.0,0.0,0.0,0.0,0.0,0.0,0.0,0.0,0.0,0.0,0.0,0.0,0.0,0.0,0.0,0.0,0.0,0.0,0.0,0.0,0.0,0.0,0.0,0.0,-3.5096,-3.6009,0.0,0.0,0.0,0.0,0.0,0.0,0.0,0.0,0.0,0.0,0.0,0.0,0.0,0.0,-4.1809,-4.1919,-4.2323,-4.3037,-4.3147,-4.3167,-4.3167,-4.3167,-4.3167,-4.313,-4.2433,0.0,-4.2286,-4.2066,0.0,0.0,0.0,0.0,0.0,0.0,0.0,0.0,0.0,0.0,0.0,0.0,0.0,0.0,0.0,0.0,0.0,0.0,0.0,0.0,0.0,0.0,-4.3221,-4.3331,-4.3314,-4.3314,0.0,-4.2103,-4.1058,-4.0948,0.0,0.0,0.0,0.0,0.0,0.0,0.0,0.0,-4.2286,-4.2983,-4.3515,-4.3515,-4.3515,-4.3515,-4.3515,-4.3515,-4.3515,-4.3515,-4.3387,-4.3314,-4.3314,-4.2653,0.0,0.0,0.0,0.0,0.0,0.0,0.0,0.0,0.0,0.0,0.0,0.0,0.0,0.0,0.0,0.0,0.0,0.0,0.0,0.0,0.0,0.0,0.0,0.0,0.0,0.0,0.0,0.0,0.0,-3.5105,-3.6046,-3.6868,-3.6978,-3.6817,0.0,0.0,0.0,0.0,0.0,0.0,0.0,0.0,0.0,-4.1222,-4.1258,-4.1809,-4.2947,-4.2947,-4.313,-4.3515,-4.3515,-4.3515,-4.3515,-4.3515,-4.3515,-4.3478,-4.313,-4.2947,-4.2947,-4.2506,-4.2286,-4.2213,0.0,0.0,0.0,0.0,0.0,-4.0634,-4.0985,-4.1609,0.0,0.0,0.0,0.0,0.0,0.0,0.0,0.0,0.0,0.0,0.0,0.0,0.0,-4.3404,-4.3515,-4.3515,-4.3515,-4.2947,-4.2323,0.0,-4.1772,-4.1515,-4.0708,0.0,0.0,0.0,0.0,0.0,-4.291,-4.3277,-4.3515,-4.3515,-4.3515,-4.3515,-4.3515,-4.3515,-4.3515,-4.3515,-4.3515,-4.3515,-4.3515,-4.3167,-4.2763,0.0,0.0,0.0,0.0,0.0,0.0,0.0,0.0,0.0,0.0,0.0,0.0,0.0,0.0,0.0,0.0,0.0,0.0,0.0,0.0,0.0,0.0,0.0,0.0,0.0,0.0,0.0,0.0,-3.595,-3.667,-3.7713,-3.8006,-3.8117,0.0,0.0,0.0,0.0,0.0,0.0,-4.0487,-4.1075,-4.1772,-4.258,-4.28,-4.3204,-4.3791,-4.4011,-4.4085,-4.4085,-4.4085,-4.4085,-4.4085,-4.4085,-4.4085,-4.4085,-4.4085,-4.4085,-4.4065,-4.302,-4.2616,-4.258,-4.2396,-4.1919,-4.1389,-4.1389,-4.1389,-4.1425,-4.1662,-4.2103,-4.2616,-4.2616,0.0,-4.258,-4.2359,0.0,0.0,0.0,0.0,-4.1535,-4.2139,-4.2433,-4.2763,-4.3368,-4.3515,-4.3515,-4.3515,-4.3515,-4.3331,0.0,-4.2616,-4.2359,-4.1535,0.0,0.0,0.0,0.0,-4.28,-4.3441,-4.3515,-4.3515,-4.3515,-4.3515,-4.3515,-4.3515,-4.3515,-4.3515,-4.3515,-4.3515,-4.3515,-4.3515,-4.3515,-4.3204,-4.2616,0.0,0.0,0.0,0.0,0.0,0.0,0.0,0.0,0.0,0.0,0.0,0.0,0.0,0.0,0.0,0.0,0.0,0.0,0.0,0.0,0.0,0.0,0.0,0.0,0.0,0.0,0.0,0.0,0.0,-3.8469,-3.9313,0.0,0.0,0.0,0.0,-3.9827,-4.0561,-4.1352,-4.2139,-4.2213,-4.2616,-4.3404,-4.4195,-4.4599,-4.4635,-4.5406,-4.5773,-4.5773,-4.5773,-4.5773,-4.5773,-4.5773,-4.5773,-4.5773,-4.5773,-4.5773,-4.5663,-4.4102,-4.3441,-4.3368,-4.2616,-4.2286,-4.2249,-4.2249,-4.2249,-4.2359,-4.3094,-4.3404,-4.3441,-4.3441,-4.3441,-4.3294,-4.2543,-4.2286,0.0,0.0,-4.1662,-4.2249,-4.2286,-4.2873,-4.3441,-4.3515,-4.3515,-4.3515,-4.3515,-4.3515,-4.3515,0.0,-4.3441,-4.3167,-4.2396,0.0,-4.313,-4.2396,-4.2947,-4.3441,-4.3515,-4.3515,-4.3515,-4.3515,-4.3515,-4.3515,-4.3515,-4.3515,-4.3515,-4.3515,-4.3515,-4.3515,-4.3515,-4.3515,-4.3478,-4.3441,-4.269,0.0,0.0,0.0,0.0,0.0,0.0,0.0,0.0,0.0,0.0,0.0,0.0,0.0,0.0,0.0,0.0,0.0,0.0,0.0,0.0,0.0,0.0,0.0,0.0,0.0,0.0,0.0,0.0,-3.9276,-4.0194,0.0,0.0,-4.1405,-4.1772,-4.1479,-4.2176,-4.2983,-4.3791,-4.3864,-4.4195,-4.5002,-4.5333,-4.548,-4.548,-4.5773,-4.5883,-4.5883,-4.5883,-4.5883,-4.5883,-4.5883,-4.5883,-4.5883,-4.5883,-4.5883,-4.5847,-4.5259,-4.5039,-4.5002,-4.4709,-4.4635,-4.4562,-4.4048,-4.3864,-4.3828,-4.3571,-4.3515,-4.3515,-4.3515,-4.3515,-4.3441,-4.3167,-4.3057,-4.302,-4.2727,-4.2837,-4.3057,-4.3057,-4.3277,-4.3515,-4.3515,-4.3515,-4.3515,-4.3515,-4.3515,-4.3515,-4.3515,-4.3515,-4.3404,-4.313,-4.3314,-4.3387,-4.313,-4.3331,-4.3515,-4.3515,-4.3515,-4.3515,-4.3515,-4.3515,-4.3515,-4.3515,-4.3515,-4.3515,-4.3515,-4.3515,-4.3515,-4.3515,-4.3515,-4.3515,-4.3515,-4.3204,-4.2543,0.0,0.0,0.0,0.0,0.0,0.0,0.0,0.0,0.0,0.0,0.0,0.0,0.0,0.0,0.0,0.0,0.0,0.0,0.0,0.0,0.0,0.0,0.0,0.0,0.0,0.0,-3.8814,-4.0157,-4.1038,-4.1625,-4.1882,-4.2653,-4.313,-4.313,-4.3864,-4.4525,-4.5076,-4.5112,-4.5369,-4.5883,-4.6177,-4.6434,-4.6728,-4.6985,-4.7278,-4.7535,-4.7535,-4.7535,-4.7535,-4.7535,-4.7535,-4.7535,-4.7535,-4.7535,-4.7535,-4.7535,-4.7388,-4.7058,-4.6214,-4.5883,-4.5847,-4.5296,-4.5112,-4.5039,-4.4488,-4.4322,-4.4322,-4.4322,-4.4322,-4.4322,-4.4322,-4.4322,-4.4322,-4.4322,-4.4322,-4.4322,-4.4322,-4.4322,-4.4322,-4.4322,-4.4322,-4.4322,-4.4322,-4.4322,-4.4322,-4.4322,-4.3882,-4.3404,-4.313,-4.3094,-4.2983,-4.2727,-4.269,-4.269,-4.269,-4.291,-4.3094,-4.3094,-4.3314,-4.3515,-4.3515,-4.324,-4.3221,-4.3478,-4.324,-4.3204,-4.3515,-4.3258,-4.3094,-4.3094,-4.2837,-4.2286,-4.1515,0.0,0.0,0.0,0.0,0.0,0.0,0.0,0.0,0.0,0.0,0.0,0.0,0.0,0.0,0.0,0.0,0.0,0.0,0.0,0.0,0.0,0.0,0.0,-3.9059,-3.9601,-4.023,-4.1058,-4.1882,-4.269,-4.3478,-4.4268,-4.4745,-4.4745,-4.5443,-4.592,-4.5957,-4.5957,-4.5993,-4.5993,-4.6782,-4.759,-4.8379,-4.9224,-5.0031,-5.0802,-5.0802,-5.0802,-5.0802,-5.0802,-5.0802,-5.0802,-5.0802,-5.0802,-5.0802,-5.0802,-5.0325,-4.939,-4.6948,-4.5993,-4.5957,-4.5957,-4.592,-4.5883,-4.5883,-4.5883,-4.5883,-4.5883,-4.5883,-4.5883,-4.5883,-4.5883,-4.5883,-4.5883,-4.5883,-4.5883,-4.5883,-4.5883,-4.5883,-4.5883,-4.5883,-4.5883,-4.5883,-4.5883,-4.5883,-4.5883,-4.4635,-4.3314,-4.2543,-4.2396,-4.2139,-4.1352,-4.1242,0.0,-4.1205,-4.1882,-4.2359,-4.2323,-4.302,-4.3515,-4.3478,-4.2763,-4.2653,-4.3441,-4.2763,-4.269,-4.3478,-4.2763,-4.2323,-4.2323,-4.1535,-4.1499,-4.2286,0.0,0.0,0.0,0.0,0.0,0.0,0.0,0.0,0.0,0.0,0.0,0.0,0.0,0.0,0.0,0.0,0.0,0.0,0.0,0.0,0.0,0.0,-4.0962,-4.0593,-4.0682,-4.1295,-4.269,-4.3571,-4.4121,-4.4342,-4.5112,-4.5553,-4.5553,-4.5773,-4.614,-4.6746,-4.7315,-4.7939,-4.8582,-4.937,-4.9884,-5.0105,-5.0362,-5.0582,-5.0802,-5.0802,-5.0802,-5.0802,-5.0802,-5.0802,-5.0802,-5.0802,-5.0802,-5.0802,-5.0802,-5.0655,-5.0325,-4.9096,-4.8196,-4.7572,-4.6985,-4.6397,-4.5883,-4.5883,-4.5883,-4.5883,-4.5883,-4.5883,-4.5883,-4.5883,-4.5883,-4.5883,-4.5883,-4.5883,-4.5883,-4.5883,-4.5883,-4.5883,-4.5883,-4.5883,-4.5883,-4.5883,-4.5883,-4.5883,-4.5883,-4.5553,-4.5149,-4.4966,-4.4892,-4.4856,-4.4599,-4.4599,0.0,-4.3774,-4.3884,-4.3608,-4.2433,-4.302,-4.324,-4.269,-4.2947,-4.324,0.0,-4.3277,-4.3294,-4.3515,-4.3277,-4.3167,-4.3167,-4.2396,-4.2103,0.0,0.0,0.0,0.0,0.0,0.0,0.0,0.0,0.0,0.0,0.0,0.0,0.0,0.0,0.0,0.0,0.0,0.0,0.0,0.0,0.0,0.0,-4.1693,-4.2359,-4.2563,-4.2599,-4.2983,-4.3901,-4.4709,-4.5223,-4.5223,-4.592,-4.6544,-4.6874,-4.7241,-4.7792,-4.8617,-4.9114,-4.9591,-5.0088,-5.0545,-5.0949,-5.1316,-5.1316,-5.1463,-5.183,-5.183,-5.183,-5.183,-5.183,-5.183,0.0,-5.183,-5.183,-5.183,-5.183,-5.161,0.0,0.0,0.0,0.0,0.0,-4.8159,-4.7444,-4.7444,-4.7205,-4.6911,-4.6911,-4.6911,-4.6911,-4.6911,-4.6911,-4.6911,-4.6911,-4.6911,-4.6911,-4.6911,-4.6911,-4.6911,-4.6911,-4.6911,-4.6911,-4.6911,-4.6911,-4.6911,-4.6911,0.0,0.0,-4.6911,-4.6067,-4.5296,-4.4929,-4.4892,-4.4709,-4.4268,-4.4488,-4.4324,-4.3424,-4.3718,-4.3828,-4.3351,-4.313,0.0,0.0,0.0,-4.2983,-4.2983,-4.2983,0.0,0.0,0.0,-4.1956,-4.2286,0.0,0.0,0.0,-4.1609,-4.1279,0.0,0.0,0.0,0.0,0.0,0.0,0.0,0.0,0.0,0.0,0.0,0.0,0.0,0.0,0.0,0.0,-4.2009,-4.3057,-4.4525,-4.4838,-4.4948,-4.4856,-4.5553,-4.6067,-4.6177,-4.6911,-4.77,-4.8526,-4.9297,-5.0031,-5.0765,0.0,0.0,0.0,0.0,-5.1426,-5.2123,-5.2123,-5.2491,-5.3203,-5.3203,-5.3203,-5.3203,-5.3203,-5.3203,-5.3203,-5.3203,-5.3203,-5.3203,-5.3203,-5.2784,-5.205,-5.1169,-5.0802,-5.0802,-5.0802,-5.0362,0.0,0.0,0.0,0.0,-4.86,-4.86,-4.86,-4.86,-4.8526,-4.8453,-4.8453,-4.8379,-4.8306,-4.8306,-4.8306,-4.8306,-4.8306,-4.8306,-4.8306,-4.8306,-4.8306,-4.8306,-4.8306,-4.8306,-4.8306,-4.8306,-4.6544,-4.4856,-4.4158,-4.4065,-4.4029,-4.3901,-4.4525,-4.4911,-4.4728,0.0,0.0,-4.4709,-4.3387,-4.2873,-4.3571,-4.2873,-4.2433,-4.2433,-4.2433,-4.2103,-4.1389,-4.1352,-4.1735,-4.2433,-4.2433,-4.28,-4.3478,-4.2029,-4.1772,0.0,0.0,0.0,0.0,0.0,0.0,0.0,0.0,0.0,0.0,0.0,0.0,0.0,0.0,0.0,-4.2485,-4.3443,-4.4324,-4.4672,-4.5828,-4.6379,-4.5736,-4.6379,-4.7113,-4.7792,-4.86,-4.9444,-5.0251,-5.0472,-5.0655,-5.0802,-5.1426,0.0,-5.1756,-5.2417,-5.2821,-5.2968,-5.2968,-5.3078,-5.3203,0.0,0.0,-5.3203,-5.3203,-5.3203,-5.3203,-5.3203,-5.3203,-5.3203,-5.3203,-5.3115,-5.2821,-5.1389,-5.0802,-5.0802,-5.0802,-5.0692,-5.0582,-5.0582,-5.0472,-5.0325,-5.0325,-5.0325,-5.0325,-5.0325,-4.9848,0.0,-4.9353,-4.882,-4.8306,-4.8306,-4.8306,-4.8306,-4.8306,-4.8306,-4.8306,-4.8306,-4.8306,-4.8306,-4.8306,-4.8306,-4.8306,-4.8306,-4.7902,-4.7572,-4.7388,-4.7388,-4.7131,-4.6489,-4.6526,-4.6122,-4.4838,-4.5296,-4.5406,-4.4764,-4.4415,-4.4305,-4.4452,-4.3718,-4.3294,-4.3294,-4.3294,-4.3167,-4.302,-4.302,-4.3094,-4.3294,-4.3294,-4.3368,-4.3515,-4.3167,-4.313,0.0,0.0,0.0,0.0,0.0,0.0,0.0,0.0,0.0,0.0,0.0,-4.2417,-4.2095,0.0,-4.3379,-4.3409,-4.4469,-4.5443,-4.5828,-4.6929,-4.7406,-4.6599,-4.7609,-4.8526,-4.8893,-4.9701,-5.0508,-5.1353,-5.1389,-5.1573,-5.1977,-5.238,-5.2601,-5.2601,-5.3004,-5.3408,-5.3812,-5.3812,-5.3995,-5.4399,-5.4399,-5.4399,-5.4399,-5.4399,-5.4399,-5.4399,-5.4399,-5.4179,-5.3775,-5.335,-5.3203,-5.3093,-5.2307,-5.2013,-5.2013,-5.2013,-5.1756,-5.1389,-5.1389,-5.1132,-5.0802,-5.0802,-5.0802,-5.0802,-5.0802,-5.0508,-5.0178,-5.0178,-4.9884,-4.9554,-4.9554,-4.9554,-4.9554,-4.9554,-4.9554,-4.9444,-4.904,-4.893,-4.882,-4.8379,-4.8306,-4.8306,-4.8306,-4.8306,-4.8306,-4.8306,-4.8306,-4.8159,-4.7736,-4.77,-4.7369,-4.6581,-4.6507,-4.6342,-4.5938,-4.5535,-4.5149,-4.4728,-4.4305,-4.3901,-4.3515,-4.3515,-4.3515,-4.3515,-4.3515,-4.3515,-4.3515,-4.3515,-4.3515,-4.3515,-4.3515,-4.3515,0.0,0.0,0.0,0.0,0.0,0.0,0.0,0.0,-4.3286,-4.3059,-4.3008,-4.296,-4.2849,-4.3596,-4.4287,-4.4482,-4.5409,-4.6361,-4.7003,-4.792,-4.8306,-4.7663,-4.893,-4.9904,-5.0051,-5.0655,-5.1353,-5.216,-5.2234,-5.2527,-5.3167,-5.3203,-5.3298,-5.3424,-5.3424,-5.3812,-5.462,-5.462,-5.495,-5.5596,-5.5596,-5.5596,-5.5596,-5.5596,-5.5596,-5.5596,-5.5596,-5.5207,-5.4583,-5.3922,-5.3592,-5.3424,-5.3424,-5.3314,-5.3203,-5.3203,-5.2784,-5.2234,-5.2234,-5.1793,-5.1279,-5.1279,-5.1279,-5.1279,-5.1279,-5.1169,-5.1022,-5.1022,-5.0912,-5.0802,-5.0802,-5.0802,-5.0802,-5.0802,-5.0802,-5.0618,-4.9958,-4.9831,-4.9647,-4.893,-4.8673,-4.8563,-4.8563,-4.8416,-4.8306,-4.8306,-4.8306,-4.8306,-4.8306,-4.8306,-4.8306,-4.8306,-4.77,-4.7259,-4.7113,-4.6507,-4.581,-4.4984,-4.4929,-4.4635,-4.3975,-4.3992,-4.3864,-4.3718,-4.3718,-4.3644,-4.3515,-4.3644,-4.3718,-4.3718,-4.3864,-4.3808,-3.7892,-3.9084,-4.04,-4.0593,-4.1739,-4.3047,0.0,0.0,-4.4285,-4.4711,-4.481,-4.495,-4.5318,-4.5198,-4.5339,-4.6078,-4.6646,-4.7003,-4.7076,-4.8453,-4.9427,-4.9353,-5.0105,-5.0949,-5.1646,-5.1793,-5.2197,-5.3004,-5.3078,-5.3115,-5.3203,-5.3203,-5.3555,-5.4252,-5.4289,-5.4656,-5.5486,-5.5464,-5.55,-5.5596,-5.5596,-5.5596,-5.5596,-5.5596,-5.5596,-5.5596,-5.5596,-5.5559,-5.5486,-5.5354,-5.4913,-5.4289,-5.4289,-5.3849,-5.3203,-5.3203,-5.313,-5.3078,-5.3078,-5.3004,-5.291,-5.291,-5.291,-5.291,-5.291,-5.2417,-5.1867,-5.1867,-5.1353,-5.0802,-5.0802,-5.0802,-5.0802,-5.0802,-5.0802,-5.0765,-5.0692,-5.0655,-5.0655,-5.0545,-4.9921,-4.9463,-4.9463,-4.882,-4.8306,-4.8306,-4.8306,-4.8306,-4.8306,-4.8306,-4.8306,-4.8306,-4.8233,-4.7883,-4.7149,-4.7003,-4.6599,-4.581,-4.5773,-4.5736,-4.5626,-4.5626,-4.5296,-4.4599,-4.4562,-4.4195,-4.3515,-4.4232,-4.4562,-4.4599,-4.5296,-4.4856,-4.0585,-4.1123,-4.1623,0.0,-4.3624,-4.4008,-4.4855,-4.5056,-4.5062,-4.5104,-4.5115,-4.5311,-4.5984,-4.6172,-4.6596,0.0,-4.8012,-4.8324,-4.8788,-4.9898,-5.0731,-5.0973,-5.189,-5.2392,-5.2055,-5.2417,-5.2858,-5.3167,-5.3203,-5.3387,-5.3885,-5.3922,-5.4289,-5.506,-5.5097,-5.5464,-5.6308,-5.6308,-5.6528,-5.7005,-5.7005,-5.7005,-5.7005,-5.7005,-5.7005,-5.6969,-5.6492,-5.6308,-5.6271,-5.5794,-5.539,-5.5097,-5.5097,-5.462,-5.3849,-5.335,-5.3203,-5.3203,-5.3203,-5.3203,-5.3203,-5.3203,-5.3203,-5.3203,-5.3203,-5.2968,-5.2711,-5.2711,-5.2454,-5.2197,-5.2197,-5.2197,-5.2197,-5.2197,-5.2197,-5.2087,-5.161,-5.1499,-5.1353,-5.0875,-5.0545,-5.0288,-5.0288,-4.9591,-4.904,-4.904,-4.8636,-4.8306,-4.8306,-4.8306,-4.8306,-4.8306,-4.8306,-4.8159,-4.781,-4.7773,-4.7443,-4.6636,-4.6599,-4.6397,-4.592,-4.5883,-4.5736,-4.5406,-4.5406,-4.5223,-4.4892,-4.5223,-4.5406,-4.5406,-4.5736,-4.5553,-4.2162,-4.247,0.0,-4.4739,-4.494,-4.4816,-4.5479,-4.5594,-4.5541,-4.5273,-4.5423,-4.5844,-4.6658,-4.716,-4.7845,-4.8996,-4.9001,-4.9226,-5.0148,-5.0939,-5.1618,-5.2269,-5.3218,-5.346,-5.2572,-5.2904,-5.323,-5.3359,-5.3272,-5.3619,-5.4501,-5.4448,-5.4876,-5.5904,-5.5941,-5.6308,-5.7116,-5.7152,-5.7409,-5.7997,-5.7997,-5.7997,-5.7997,-5.7997,-5.7997,-5.796,-5.7373,-5.7152,-5.7079,-5.6492,-5.6124,-5.5941,-5.5941,-5.5427,-5.4656,-5.4069,-5.3592,-5.3203,-5.3203,-5.3203,-5.3203,-5.3203,-5.3203,-5.3203,-5.3203,-5.3203,-5.3203,-5.3203,-5.3203,-5.3203,-5.3203,-5.3203,-5.3203,-5.3203,-5.3203,-5.3041,-5.2454,-5.2344,-5.216,-5.1573,-5.1279,-5.1132,-5.1132,-5.0472,-4.9941,-4.9941,-4.9187,-4.8563,-4.8343,-4.8306,-4.8306,-4.8306,-4.8306,-4.8306,-4.8306,-4.8306,-4.803,-4.748,-4.7443,-4.7149,-4.6581,-4.6544,-4.6471,-4.625,-4.625,-4.6104,-4.5883,-4.6104,-4.625,-4.625,-4.6471,-4.6544,-4.1585,0.0,-4.3278,-4.4124,-4.4932,-4.5556,-4.5594,-4.5594,-4.5594,-4.5586,-4.6269,-4.7106,-4.7914,-4.8422,-4.902,-4.9921,-4.9393,-4.9342,-5.0591,-5.1157,-5.1826,-5.3004,-5.3559,-5.3777,0.0,-5.3424,-5.3359,-5.3758,-5.3404,-5.3711,-5.4931,-5.4621,-5.5133,-5.6712,-5.6748,-5.7152,-5.796,-5.796,-5.796,-5.7997,-5.7997,-5.7997,-5.7997,-5.7997,-5.7997,-5.7997,-5.796,-5.796,-5.796,-5.7923,-5.7483,-5.6748,-5.6748,-5.6271,-5.5537,-5.5559,-5.4546,-5.3203,-5.3203,-5.3203,-5.3203,-5.3203,-5.3203,-5.3203,-5.3203,-5.3203,-5.3203,-5.3203,-5.3203,-5.3203,-5.3203,-5.3203,-5.3203,-5.3203,-5.3203,-5.3167,-5.3167,-5.3188,-5.3188,-5.3151,-5.2491,-5.194,-5.194,-5.1279,-5.0765,-5.0765,-5.0068,-4.928,-4.8416,-4.8306,-4.8306,-4.8306,-4.8306,-4.8306,-4.8306,-4.8306,-4.8306,-4.8269,-4.8269,-4.8269,-4.8233,-4.8233,-4.7846,-4.7076,-4.7076,-4.6672,-4.5883,-4.6672,-4.7076,-4.7076,-4.7846,-4.8233,-4.3239,0.0,-4.4085,-4.494,-4.5364,-4.5594,-4.5594,-4.5594,-4.5748,-4.6355,-4.624,-4.6471,-4.7855,-4.778,-4.7989,-4.9409,-4.9186,-4.9562,-5.1709,-5.2096,-5.2664,-5.3912,-5.4166,0.0,0.0,0.0,0.0,-5.3777,-5.4445,-5.5136,-5.5751,-5.6226,-5.6832,-5.7556,-5.7593,-5.774,-5.7997,-5.7997,-5.7997,-5.7997,-5.7997,-5.7997,-5.7997,-5.7997,-5.7997,-5.7997,-5.7997,-5.7997,-5.7997,-5.7997,-5.785,-5.7593,-5.7593,-5.7116,-5.6418,-5.6418,-5.5721,-5.473,-5.4179,-5.3665,-5.3203,-5.3203,-5.3203,-5.3203,-5.3203,-5.3203,-5.3203,-5.3203,-5.3203,-5.3203,-5.3203,-5.3203,-5.3203,-5.3203,-5.3203,-5.3203,-5.3203,-5.3203,-5.3203,-5.3203,-5.3004,-5.2821,-5.2821,-5.2123,-5.1426,-5.0875,-5.0124,-4.928,-4.8416,-4.8306,-4.8306,-4.8306,-4.8306,-4.8306,-4.8306,-4.8306,-4.8306,-4.8306,-4.8306,-4.8306,-4.8306,-4.8306,-4.8196,-4.7883,-4.7883,-4.7755,-4.7498,-4.7755,-4.7883,-4.7883,-4.8196,-4.8306,-4.4008,-4.4316,-4.4509,-4.5364,-4.5594,-4.5594,-4.5594,-4.5594,-4.5748,-4.6317,-4.624,-4.6394,-4.7471,-4.7471,-4.7778,-4.9163,-4.9045,-4.9754,-5.242,-5.2678,-5.3187,-5.4742,-5.479,0.0,0.0,0.0,0.0,-5.4251,-5.5152,-5.5982,-5.6677,-5.7229,-5.7732,-5.8223,-5.8074,-5.7997,-5.7997,-5.7997,-5.7997,-5.7997,-5.7997,-5.7997,-5.7997,-5.7997,-5.7997,-5.7997,-5.7997,-5.7997,-5.7997,-5.7997,-5.7997,-5.7997,-5.7997,-5.7666,-5.7226,-5.7226,-5.6712,-5.5904,-5.5097,-5.4473,-5.3995,-5.3739,-5.3628,-5.3592,-5.3277,-5.3203,-5.3203,-5.3203,-5.3203,-5.3203,-5.3203,-5.3203,-5.3203,-5.3203,-5.3203,-5.3203,-5.3203,-5.3203,-5.3203,-5.3203,-5.3203,-5.3203,-5.3203,-5.2784,-5.216,-5.1353,-5.0765,-5.0051,-4.8893,-4.8746,-4.8636,-4.8343,-4.8306,-4.8306,-4.8306,-4.8306,-4.8306,-4.8306,-4.8306,-4.8306,-4.8306,-4.8306,-4.8306,-4.8306,-4.8306,-4.8306,-4.8306,-4.8306,-4.8306,-4.8306,-4.8306,-4.8306,-4.3932,-4.4355,-4.4586,-4.5402,-4.5594,-4.5594,-4.5594,-4.5556,-4.5556,-4.5671,-4.624,-4.6769,0.0,0.0,-4.8317,-4.9202,-4.9056,-4.9847,-5.2738,-5.2821,-5.3374,0.0,0.0,0.0,0.0,0.0,0.0,-5.5172,0.0,-5.636,-5.7544,-5.7612,-5.7973,-5.8716,-5.8304,-5.8088,-5.8042,-5.802,-5.802,-5.8042,-5.8042,-5.8065,-5.8051,-5.8065,-5.8042,-5.8042,-5.802,-5.7997,-5.7997,-5.7997,-5.7997,-5.7997,-5.7997,-5.7997,-5.7997,-5.7997,-5.7519,-5.6748,-5.5978,-5.5647,-5.5464,-5.4693,-5.4473,-5.4326,-5.3518,-5.324,-5.324,-5.3203,-5.3203,-5.3203,-5.3203,-5.3203,-5.3203,-5.3203,-5.3203,-5.3203,-5.3203,-5.3203,-5.3203,-5.3203,-5.3203,-5.3203,-5.3203,-5.3203,-5.2931,-5.216,-5.205,-5.1463,-4.9867,-4.9647,-4.9353,-4.8453,-4.8379,-4.8343,-4.8306,-4.8306,-4.8306,-4.8306,-4.8306,-4.8306,-4.8306,-4.8306,-4.8306,-4.8306,-4.8306,-4.8306,-4.8306,-4.8306,-4.8306,-4.8306,-4.8306,-4.8306,-4.4979,-4.5287,-4.5325,-4.5556,-4.5594,-4.5594,-4.5594,-4.5094,-4.5009,-4.6317,-4.5701,-4.5355,0.0,0.0,0.0,-4.8317,-4.8875,0.0,-5.1951,-5.2717,0.0,-5.4654,0.0,-5.5212,-5.5531,-5.5262,0.0,0.0,-5.721,-5.7621,-5.761,-5.8768,-5.9387,-5.923,-5.9084,-5.8874,-5.8508,-5.815,-5.8186,-5.8508,-5.8508,-5.8676,-5.9047,-5.8693,-5.8508,-5.8524,-5.8164,-5.7997,-5.7997,-5.7997,-5.7997,-5.7997,-5.7997,-5.7997,-5.7997,-5.7997,-5.7886,-5.7666,-5.7446,-5.6602,-5.5596,-5.5354,-5.528,-5.5133,-5.4326,-5.4106,-5.3959,-5.335,-5.3203,-5.3203,-5.3203,-5.3203,-5.3203,-5.3203,-5.3203,-5.3203,-5.3203,-5.3203,-5.3203,-5.3203,-5.3203,-5.3203,-5.3203,-5.3203,-5.3151,-5.2931,-5.2894,-5.2307,-5.0692,-5.0472,-5.0141,-4.9297,-4.9224,-4.9003,-4.8379,-4.8306,-4.8306,-4.8306,-4.8306,-4.8306,-4.8306,-4.8306,-4.8306,-4.8306,-4.8306,-4.8306,-4.8306,-4.8306,-4.8306,-4.8306,-4.8306,-4.8306,-4.5364,-4.5594,-4.5594,-4.5594,-4.5594,-4.5518,-4.5133,-4.4662,-4.447,-4.5086,-4.4432,0.0,-4.6009,0.0,0.0,0.0,0.0,0.0,-5.1654,-5.2654,-5.351,0.0,-5.5021,0.0,-5.5692,-5.552,-5.583,0.0,-5.7819,-5.8354,-5.8425,-5.9502,-5.9962,-5.9728,-5.9492,-5.9158,-5.8676,-5.8439,-5.8439,-5.8713,-5.8913,-5.9139,-5.9389,-5.9121,-5.9028,-5.899,0.0,-5.8326,-5.8304,-5.8074,-5.8119,-5.8304,-5.8074,-5.8119,-5.8282,-5.8051,-5.7997,-5.7997,-5.7997,-5.7409,-5.6602,-5.6235,-5.6124,-5.5978,-5.517,-5.4913,-5.484,-5.4363,-5.3995,-5.3739,-5.3739,-5.3482,-5.3203,-5.3203,-5.3203,-5.3203,-5.3203,-5.3203,-5.3203,-5.3203,-5.3203,-5.3203,-5.3203,-5.3203,-5.3203,-5.3203,-5.3203,-5.2873,-5.1977,-5.1536,-5.0986,-5.0141,-5.0105,-4.9774,-4.893,-4.8857,-4.871,-4.8343,-4.8306,-4.8306,-4.8306,-4.8306,-4.8306,-4.8306,-4.8306,-4.8306,-4.8306,-4.8306,-4.8306,-4.8306,-4.8306,-4.8306,-4.5402,-4.5594,-4.5594,-4.5594,-4.5594,-4.5364,-4.4509,-4.4201,-4.3932,-4.3239,0.0,-4.3431,-4.5133,-4.5441,-4.6249,-4.8817,0.0,-4.9817,-5.15,-5.2587,-5.3472,-5.4241,-5.5126,-5.5703,-5.5703,-5.5703,-5.6088,-5.7099,-5.7857,-5.8665,-5.9473,-5.9932,-6.0189,-6.0189,-5.976,-5.9284,-5.8894,-5.8815,-5.8815,-5.8894,-5.9284,-5.9526,-5.9576,-5.9509,-5.9492,-5.9458,0.0,0.0,-5.8756,-5.8332,-5.8418,-5.8773,-5.8282,-5.8332,-5.8652,-5.8186,-5.7997,-5.7997,-5.7997,-5.7997,-5.7886,-5.7189,-5.6969,-5.6822,-5.5978,-5.5757,-5.5721,-5.5633,-5.5097,-5.4546,-5.4546,-5.3959,-5.3371,-5.3371,-5.3277,-5.3203,-5.3203,-5.3203,-5.3203,-5.3203,-5.3203,-5.3203,-5.3203,-5.3203,-5.3203,-5.3203,-5.3203,-5.3203,-5.3203,-5.2601,-5.183,-5.1059,-5.0949,-5.0618,-4.9831,-4.9757,-4.9444,-4.8673,-4.8526,-4.8489,-4.8489,-4.8379,-4.8306,-4.8306,-4.8306,-4.8306,-4.8306,-4.8306,-4.8306,-4.8306,-4.8416,-4.8489,-4.5556,-4.5594,-4.5594,-4.5594,-4.5594,-4.5364,-4.4509,-4.3778,0.0,0.0,-4.2547,-4.2547,-4.4201,-4.4509,-4.5355,-4.7894,0.0,0.0,0.0,0.0,-5.328,0.0,0.0,0.0,0.0,0.0,0.0,0.0,0.0,0.0,-5.9473,-6.0234,-6.0659,-6.0659,-6.0203,-5.9931,-5.9855,-5.9458,-5.9458,-5.9855,-5.9931,-6.0175,-6.0533,-6.0161,-5.9962,-5.9946,0.0,0.0,-5.9266,-5.9176,-5.9194,-5.923,-5.8756,-5.8632,-5.8652,-5.8186,-5.7997,-5.7997,-5.7997,-5.7997,-5.796,-5.785,-5.7776,-5.7629,-5.6859,-5.6602,-5.6455,-5.5794,-5.55,-5.539,-5.539,-5.4803,-5.4179,-5.4179,-5.3702,-5.3203,-5.3203,-5.3203,-5.3203,-5.3203,-5.3203,-5.3203,-5.3203,-5.3203,-5.3203,-5.3203,-5.3203,-5.3203,-5.3203,-5.3078,-5.2674,-5.1867,-5.1793,-5.1463,-5.0655,-5.0582,-5.0545,-5.0398,-4.9738,-4.939,-4.939,-4.8673,-4.8306,-4.8306,-4.8306,-4.8306,-4.8306,-4.8306,-4.8306,-4.8343,-4.904,-4.939,-4.5056,-4.5248,-4.5594,-4.5594,-4.5594,-4.5248,-4.397,0.0,0.0,0.0,-4.1393,-4.1662,-4.3355,0.0,0.0,0.0,0.0,0.0,0.0,0.0,0.0,0.0,0.0,0.0,0.0,0.0,0.0,0.0,0.0,0.0,-6.0127,-6.055,-6.0781,-6.0781,-6.0338,-6.0103,-6.0103,-5.9885,-5.9885,-6.0103,-6.0351,-6.0597,-6.0781,-6.0585,-6.0469,-6.0456,-5.9962,0.0,-5.976,-5.9492,-5.9526,-5.9728,-5.923,-5.9212,-5.9337,-5.8632,-5.8354,-5.8348,-5.8074,-5.7997,-5.7997,-5.7997,-5.7997,-5.7923,-5.7556,-5.7409,-5.7336,-5.6969,-5.6528,-5.6235,-5.6235,-5.5611,-5.4913,-5.4509,-5.3812,-5.3203,-5.3203,-5.3203,-5.3203,-5.3203,-5.3203,-5.3203,-5.3203,-5.3203,-5.3203,-5.3203,-5.3203,-5.3203,-5.3203,-5.3203,-5.3078,-5.2674,-5.2637,-5.2307,-5.1499,-5.1426,-5.1242,-5.0839,-5.0435,-5.0215,-5.0215,-4.9811,-4.9591,-4.9591,-4.9591,-4.9591,-4.9591,-4.9591,-4.9591,-4.9627,-5.0031,-5.0215,-4.4701,-4.5094,-4.5594,-4.5594,-4.5594,-4.5171,-4.347,-4.3085,0.0,0.0,-4.0516,-4.0977,-4.2547,0.0,-4.3393,0.0,0.0,0.0,0.0,0.0,0.0,0.0,0.0,0.0,0.0,0.0,0.0,0.0,0.0,0.0,-6.0742,-6.0781,-6.0781,-6.0781,-6.0456,-6.0269,-6.0269,-6.0269,-6.0269,-6.0231,-6.0622,-6.0781,-6.0781,-6.0781,-6.0781,-6.0769,-6.0391,0.0,0.0,-5.9855,-5.9916,-6.0189,-5.9706,-5.9792,-5.9977,-5.9139,-5.8855,-5.8776,-5.8326,-5.8164,-5.8142,-5.8042,-5.7997,-5.7997,-5.7997,-5.7997,-5.7997,-5.7997,-5.7556,-5.7079,-5.7079,-5.6455,-5.5647,-5.484,-5.4032,-5.3482,-5.3482,-5.3314,-5.3203,-5.3203,-5.3203,-5.3203,-5.3203,-5.3203,-5.3203,-5.3203,-5.3203,-5.3203,-5.3203,-5.3203,-5.3203,-5.3203,-5.3203,-5.2931,-5.2307,-5.227,-5.1977,-5.1353,-5.1169,-5.1059,-5.1059,-5.0875,-5.0802,-5.0802,-5.0802,-5.0802,-5.0802,-5.0802,-5.0802,-5.0802,-5.0986,-5.1059,-4.5287,-4.5556,-4.5594,-4.5594,-4.5594,-4.5171,-4.347,0.0,0.0,-4.0862,-4.0516,-4.0785,-4.1739,-4.1277,-4.1554,-4.4124,0.0,-4.547,0.0,0.0,0.0,0.0,0.0,0.0,0.0,0.0,0.0,0.0,0.0,0.0,0.0,-6.0781,-6.0781,-6.0781,-6.0757,-6.0746,-6.0746,-6.0746,-6.0746,-6.0746,-6.0769,-6.0781,-6.0781,-6.0781,-6.0781,-6.0781,0.0,0.0,0.0,-6.0671,-6.071,-6.0671,-6.0203,-6.0074,-6.0059,-5.9509,-5.9337,-5.9266,-5.8796,-5.8632,-5.8549,-5.8142,-5.7997,-5.7997,-5.7997,-5.7997,-5.7997,-5.7997,-5.796,-5.7886,-5.7886,-5.7299,-5.6492,-5.5684,-5.4876,-5.4289,-5.4289,-5.3739,-5.3203,-5.3203,-5.3203,-5.3203,-5.3203,-5.3203,-5.3203,-5.3203,-5.3203,-5.3203,-5.3203,-5.3203,-5.3203,-5.3203,-5.3203,-5.3167,-5.3093,-5.3115,-5.3078,-5.2983,-5.2307,-5.1867,-5.1867,-5.1206,-5.0802,-5.0802,-5.0802,-5.0802,-5.0802,-5.0802,-5.0802,-5.0839,-5.1536,-5.1867,-4.4124,-4.4825,-4.5594,-4.5594,-4.5594,-4.5171,-4.347,0.0,-4.2624,-4.0862,-4.0516,-4.0593,-4.0931,-4.0746,-4.1016,-4.2547,-4.3624,0.0,0.0,0.0,0.0,0.0,0.0,0.0,0.0,0.0,0.0,0.0,0.0,0.0,0.0,-6.0781,-6.0781,-6.0781,-6.0781,-6.0781,-6.0781,-6.0781,-6.0781,-6.0781,-6.0781,-6.0781,-6.0781,-6.0781,-6.0781,-6.0781,0.0,0.0,0.0,-6.0781,-6.0781,-6.0769,-6.061,-6.0508,-6.0469,-5.9977,-5.9823,-5.969,-5.8971,-5.8713,-5.8632,-5.8164,-5.7997,-5.7997,-5.7997,-5.7997,-5.7997,-5.7997,-5.7997,-5.7997,-5.7997,-5.7409,-5.6712,-5.6418,-5.5721,-5.4987,-5.4509,-5.4142,-5.3775,-5.3277,-5.3203,-5.3203,-5.3203,-5.3203,-5.3203,-5.3203,-5.3203,-5.3203,-5.3203,-5.3203,-5.3203,-5.3203,-5.3203,-5.3203,-5.3203,-5.3203,-5.3203,-5.3203,-5.2894,-5.2711,-5.2711,-5.2417,-5.2234,-5.2234,-5.2234,-5.2234,-5.2234,-5.2234,-5.2234,-5.227,-5.2564,-5.2711,-4.347,-4.4316,-4.5287,-4.5556,-4.5402,-4.4825,0.0,0.0,-4.2277,-4.0823,-4.0516,-4.0516,-4.0516,-4.0516,-4.0708,-4.1316,0.0,-4.447,-4.5932,0.0,0.0,0.0,0.0,0.0,0.0,0.0,0.0,0.0,0.0,0.0,0.0,-6.0781,-6.0781,-6.0781,-6.0781,-6.0781,-6.0781,-6.0781,-6.0781,-6.0781,-6.0781,-6.0781,-6.0781,-6.0781,-6.0781,-6.0781,0.0,0.0,0.0,-6.0781,-6.0781,-6.0781,-6.0781,-6.0781,-6.0757,-6.0443,-6.0203,-5.9977,-5.9176,-5.8815,-5.8632,-5.8164,-5.7997,-5.7997,-5.7997,-5.7997,-5.7997,-5.7997,-5.7997,-5.7997,-5.7997,-5.7593,-5.7152,-5.7152,-5.6528,-5.5794,-5.5244,-5.473,-5.4216,-5.3665,-5.3371,-5.3203,-5.3203,-5.3203,-5.3203,-5.3203,-5.3203,-5.3203,-5.3203,-5.3203,-5.3203,-5.3203,-5.3203,-5.3203,-5.3203,-5.3203,-5.3203,-5.3203,-5.3203,-5.3203,-5.3203,-5.3203,-5.3203,-5.3203,-5.3203,-5.3203,-5.3203,-5.3203,-5.3203,-5.3203,-5.3203,-5.3203,-4.3855,-4.4316,-4.4509,-4.5364,-4.494,-4.4085,0.0,-4.2431,-4.1546,-4.0669,-4.0516,-4.0516,-4.0516,-4.0516,-4.0516,-4.0516,-4.197,0.0,0.0,0.0,0.0,0.0,0.0,0.0,0.0,0.0,0.0,0.0,0.0,0.0,0.0,-6.0781,-6.0781,-6.0781,-6.0781,-6.0781,-6.0781,-6.0781,-6.0781,-6.0781,-6.0781,-6.0781,-6.0781,-6.0781,-6.0781,0.0,0.0,0.0,0.0,-6.0781,-6.0781,-6.0781,-6.0781,-6.0781,-6.0781,-6.0781,-6.0495,-6.0006,-5.9543,-5.9065,-5.8632,-5.8164,-5.7997,-5.7997,-5.7997,-5.7997,-5.7997,-5.7997,-5.7997,-5.7997,-5.7997,-5.7997,-5.7997,-5.7997,-5.7373,-5.6785,-5.6785,-5.5537,-5.4399,-5.4399,-5.3739,-5.3203,-5.3203,-5.3203,-5.3203,-5.3203,-5.3203,-5.3203,-5.3203,-5.3203,-5.3203,-5.3203,-5.3203,-5.3203,-5.3203,-5.3203,-5.3203,-5.3203,-5.3203,-5.3203,-5.3203,-5.3203,-5.3203,-5.3203,-5.3203,-5.3203,-5.3203,-5.3203,-5.3203,-5.3203,-5.3203,-5.3203,-4.247,-4.3047,-4.3547,-4.3816,-4.3662,-4.3278,-4.2431,-4.2,-4.1546,-4.0669,-4.0516,-4.0516,-4.0516,-4.0516,-4.0516,-4.0516,-4.197,0.0,0.0,0.0,0.0,0.0,0.0,0.0,0.0,0.0,0.0,0.0,0.0,0.0,0.0,-6.0781,-6.0781,-6.0781,-6.0781,-6.0781,-6.0781,-6.0781,-6.0781,-6.0781,-6.0781,-6.0781,-6.0781,-6.0781,0.0,0.0,0.0,0.0,0.0,-6.0781,-6.0781,-6.0781,-6.0781,-6.0781,-6.0781,-6.0781,-6.0722,-6.0469,-5.9658,-5.9302,-5.9065,-5.826,-5.7997,-5.7997,-5.7997,-5.7997,-5.7997,-5.7997,-5.7997,-5.7997,-5.7997,-5.7997,-5.7997,-5.7997,-5.7813,-5.7483,-5.6932,-5.6418,-5.5721,-5.462,-5.4179,-5.3849,-5.3277,-5.3203,-5.3203,-5.3203,-5.3203,-5.3203,-5.3203,-5.3203,-5.3203,-5.3203,-5.3203,-5.3203,-5.3203,-5.3203,-5.3203,-5.3203,-5.3203,-5.3203,-5.3203,-5.3203,-5.3203,-5.3203,-5.3203,-5.3203,-5.3203,-5.3203,-5.3203,-5.3203,-5.3203,-5.3203,-4.1692,-4.22,-4.2701,-4.3008,-4.2854,-4.247,-4.1923,-4.1546,-4.1162,-4.0631,-4.0516,-4.0516,-4.0516,-4.0516,-4.0516,-4.0516,-4.197,0.0,0.0,0.0,0.0,0.0,0.0,0.0,0.0,0.0,0.0,0.0,0.0,0.0,0.0,0.0,-6.0781,-6.0781,-6.0781,-6.0781,-6.0781,-6.0781,-6.0781,-6.0781,-6.0781,-6.0781,-6.0781,-6.0781,0.0,0.0,0.0,0.0,0.0,-6.0781,-6.0781,-6.0781,-6.0781,-6.0781,-6.0781,-6.0781,-6.0597,-6.0175,-5.9592,-5.9158,-5.8756,-5.8172,-5.7997,-5.7997,-5.7997,-5.7997,-5.7997,-5.7997,-5.7997,-5.7997,-5.7997,-5.7997,-5.7997,-5.7997,-5.7997,-5.785,-5.7373,-5.7005,-5.6492,-5.55,-5.484,-5.4252,-5.3739,-5.3387,-5.3203,-5.3203,-5.3203,-5.3203,-5.3203,-5.3203,-5.3203,-5.3203,-5.3203,-5.3203,-5.3203,-5.3203,-5.3203,-5.3203,-5.3203,-5.3203,-5.3203,-5.3203,-5.3203,-5.3203,-5.3203,-5.3203,-5.3203,-5.3203,-5.3203,-5.3203,-5.3203,-5.3203,0.0,-4.1692,-4.1893,-4.2701,-4.2316,-4.1692,-4.1692,-4.1085,0.0,-4.0516,-4.0516,-4.0516,-4.0516,-4.0516,-4.0516,-4.0516,-4.197,0.0,0.0,0.0,0.0,0.0,0.0,0.0,0.0,0.0,0.0,0.0,0.0,0.0,0.0,0.0,-6.0781,-6.0781,-6.0781,-6.0781,-6.0781,-6.0781,-6.0781,-6.0781,-6.0781,-6.0781,-6.0781,-6.0781,0.0,0.0,0.0,0.0,0.0,-6.0781,-6.0781,-6.0781,-6.0781,-6.0781,-6.0781,-6.0781,-6.0217,-5.9441,-5.9407,-5.8796,-5.8065,-5.802,-5.7997,-5.7997,-5.7997,-5.7997,-5.7997,-5.7997,-5.7997,-5.7997,-5.7997,-5.7997,-5.7997,-5.7997,-5.7997,-5.7997,-5.7997,-5.7409,-5.6859,-5.6822,-5.5611,-5.4546,-5.4436,-5.3775,-5.3298,-5.3203,-5.3203,-5.3203,-5.3203,-5.3203,-5.3203,-5.3203,-5.3203,-5.3203,-5.3203,-5.3203,-5.3203,-5.3203,-5.3203,-5.3203,-5.3203,-5.3203,-5.3203,-5.3203,-5.3203,-5.3203,-5.3203,-5.3203,-5.3203,-5.3203,-5.3203,-5.3203,-4.0746,0.0,-4.0862,-4.1054,-4.0977,-4.0823,0.0,-4.0669,-4.0516,-4.0516,-4.0516,-4.0516,-4.0516,-4.0516,-4.0516,-4.0516,0.0,0.0,0.0,0.0,0.0,0.0,0.0,0.0,0.0,0.0,0.0,0.0,0.0,0.0,0.0,0.0,-6.0781,-6.0781,-6.0781,-6.0781,-6.0781,-6.0781,-6.0781,-6.0781,-6.0781,-6.0781,-6.0781,-6.0781,0.0,0.0,0.0,0.0,-6.0781,-6.0781,-6.0781,-6.0781,-6.0781,-6.0781,-6.0781,-6.0781,-6.0443,-5.9885,-5.9509,-5.9028,-5.8482,-5.8119,-5.7997,-5.7997,-5.7997,-5.7997,-5.7997,-5.7997,-5.7997,-5.7997,-5.7997,-5.7997,-5.7997,-5.7997,-5.7997,-5.7997,-5.7997,-5.785,-5.7556,-5.6932,-5.6492,-5.5868,-5.462,-5.4252,-5.3922,-5.3277,-5.3203,-5.3203,-5.3203,-5.3203,-5.3203,-5.3203,-5.3203,-5.3203,-5.3203,-5.3203,-5.3203,-5.3203,-5.3203,-5.3203,-5.3203,-5.3203,-5.3203,-5.3203,-5.3203,-5.3203,-5.3203,-5.3203,-5.3203,-5.3203,-5.3203,-5.3203,-4.0516,-4.0516,-4.0516,-4.0516,-4.0516,-4.0516,-4.0516,-4.0516,-4.0516,-4.0516,-4.0516,-4.0516,-4.0516,0.0,0.0,0.0,0.0,0.0,0.0,0.0,0.0,0.0,0.0,0.0,0.0,0.0,0.0,0.0,0.0,0.0,0.0,0.0,-6.0781,-6.0781,-6.0781,-6.0781,-6.0781,-6.0781,-6.0781,-6.0781,-6.0781,-6.0781,-6.0781,-6.0781,0.0,0.0,0.0,0.0,-6.0781,-6.0781,-6.0781,-6.0781,-6.0781,-6.0781,-6.0781,-6.0781,-6.0495,-6.0006,-5.9543,-5.8971,-5.8348,-5.8074,-5.7997,-5.7997,-5.7997,-5.7997,-5.7997,-5.7997,-5.7997,-5.7997,-5.7997,-5.7997,-5.7997,-5.7997,-5.7997,-5.7997,-5.7997,-5.7997,-5.7886,-5.7446,-5.7042,-5.6528,-5.5647,-5.4876,-5.4252,-5.3812,-5.3445,-5.3203,-5.3203,-5.3203,-5.3203,-5.3203,-5.3203,-5.3203,-5.3203,-5.3203,-5.3203,-5.3203,-5.3203,-5.3203,-5.3203,-5.3203,-5.3203,-5.3203,-5.3203,-5.3203,-5.3203,-5.3203,-5.3203,-5.3203,-5.3203,-5.3203,-4.0516,-4.0516,-4.0516,-4.0516,-4.0516,-4.0516,-4.0516,-4.0516,0.0,0.0,0.0,0.0,0.0,-4.0708,0.0,0.0,0.0,0.0,0.0,0.0,0.0,0.0,0.0,0.0,0.0,0.0,0.0,0.0,0.0,0.0,0.0,0.0,0.0,-6.0781,-6.0781,-6.0781,-6.0781,-6.0781,-6.0781,-6.0781,-6.0781,-6.0781,-6.0781,-6.0781,-6.0781,0.0,0.0,0.0,-6.0781,-6.0781,-6.0781,-6.0781,-6.0781,-6.0781,-6.0781,-6.0781,-6.0495,-6.0006,-5.9543,-5.8874,-5.8194,-5.8142,-5.8097,-5.8074,-5.802,-5.7997,-5.7997,-5.7997,-5.7997,-5.7997,-5.7997,-5.7997,-5.7997,-5.7997,-5.7997,-5.7997,-5.7997,-5.7997,-5.7997,-5.7997,-5.7446,-5.6932,-5.6822,-5.5684,-5.473,-5.4583,-5.3922,-5.3408,-5.3408,-5.3277,-5.3203,-5.3203,-5.3203,-5.3203,-5.3203,-5.3203,-5.3203,-5.3203,-5.3203,-5.3203,-5.3203,-5.3203,-5.3203,-5.3203,-5.3203,-5.3203,-5.3203,-5.3203,-5.3203,-5.3203,-5.3203,-5.3298,-4.0516,-4.0516,-4.0516,-4.0516,-4.0516,-4.0516,-4.0516,-4.0516,-4.0516,0.0,0.0,0.0,0.0,-4.1585,0.0,0.0,0.0,0.0,0.0,0.0,0.0,0.0,0.0,0.0,0.0,0.0,0.0,0.0,0.0,0.0,0.0,0.0,0.0,-6.0781,-6.0781,-6.0781,-6.0781,-6.0781,-6.0781,-6.0781,-6.0781,-6.0781,-6.0781,-6.0781,-6.0781,0.0,0.0,-6.0781,-6.0781,-6.0781,-6.0781,-6.0781,-6.0781,-6.0781,-6.0781,-6.0781,-6.0495,-6.0006,-5.9543,-5.9302,-5.9102,-5.8696,-5.8591,-5.8508,-5.8119,-5.7997,-5.7997,-5.7997,-5.7997,-5.7997,-5.7997,-5.7997,-5.7997,-5.7997,-5.7997,-5.7997,-5.7997,-5.7997,-5.7997,-5.7997,-5.7886,-5.7593,-5.6932,-5.6602,-5.6198,-5.55,-5.473,-5.4216,-5.4216,-5.3628,-5.3203,-5.3203,-5.3203,-5.3203,-5.3203,-5.3203,-5.3203,-5.3203,-5.3203,-5.3203,-5.3203,-5.3203,-5.3203,-5.3203,-5.3203,-5.3203,-5.3203,-5.3203,-5.3203,-5.3203,-5.3203,-5.3555,-4.0516,-4.0516,-4.0631,-4.1085,-4.0854,-4.0516,-4.0516,-4.0516,-4.0516,0.0,0.0,0.0,0.0,0.0,0.0,0.0,0.0,0.0,0.0,0.0,0.0,0.0,0.0,0.0,0.0,0.0,0.0,0.0,0.0,0.0,0.0,0.0,0.0,0.0,-6.0781,-6.0781,-6.0781,-6.0781,-6.0781,-6.0781,-6.0781,-6.0781,-6.0781,-6.0781,-6.0781,-6.0781,0.0,-6.0781,-6.0781,-6.0781,-6.0781,-6.0781,-6.0781,-6.0781,-6.0781,-6.0781,-6.0495,-6.0089,-5.9855,-5.9592,-5.9354,-5.9139,-5.9103,-5.9065,-5.8815,-5.857,-5.8375,-5.8375,-5.8209,-5.7997,-5.7997,-5.7997,-5.7997,-5.7997,-5.7997,-5.7997,-5.7997,-5.7997,-5.7997,-5.7997,-5.7997,-5.7886,-5.7519,-5.7079,-5.6675,-5.6308,-5.5574,-5.506,-5.506,-5.4363,-5.3849,-5.3849,-5.3482,-5.3293,-5.3524,-5.3318,-5.3203,-5.3203,-5.3203,-5.3203,-5.3203,-5.3203,-5.3203,-5.3203,-5.3203,-5.3203,-5.3203,-5.3665,-5.3849,-5.3849,-5.4289,-5.4693,-4.0516,-4.0516,-4.0669,-4.1316,-4.1162,-4.0862,-4.1054,-4.1131,-4.1131,0.0,0.0,0.0,0.0,0.0,0.0,0.0,0.0,0.0,0.0,0.0,0.0,0.0,0.0,0.0,0.0,0.0,0.0,0.0,0.0,0.0,0.0,0.0,0.0,0.0,-6.0781,-6.0781,-6.0781,-6.0781,-6.0781,-6.0781,-6.0781,-6.0781,-6.0781,-6.0781,-6.0781,-6.0781,-6.0781,-6.0781,-6.0781,-6.0781,-6.0781,-6.0781,-6.0781,-6.0781,-6.0781,-6.0781,-6.0546,-6.0245,-6.0245,-6.0044,-5.9728,-5.9592,-5.9559,-5.9526,-5.9424,-5.9139,-5.8874,-5.8874,-5.8611,-5.8282,-5.8065,-5.8074,-5.8142,-5.8042,-5.7997,-5.8042,-5.8142,-5.8074,-5.8042,-5.8142,-5.8051,-5.7997,-5.7997,-5.7483,-5.7079,-5.7079,-5.6381,-5.5868,-5.5868,-5.517,-5.4693,-5.4693,-5.4233,-5.4098,-5.4502,-5.4178,-5.3949,-5.3949,-5.3472,-5.3203,-5.3203,-5.3203,-5.3203,-5.3203,-5.3408,-5.3482,-5.3482,-5.4289,-5.4693,-5.4693,-5.5317,-5.5684,-4.0516,-4.0516,-4.0516,-4.0593,-4.1162,-4.1931,-4.2739,-4.2893,-4.2893,-4.2893,0.0,0.0,0.0,0.0,0.0,0.0,0.0,0.0,0.0,0.0,0.0,0.0,0.0,0.0,0.0,0.0,0.0,0.0,0.0,0.0,0.0,0.0,0.0,0.0,0.0,-6.0781,-6.0781,-6.0781,-6.0781,-6.0781,-6.0781,-6.0781,-6.0781,-6.0781,-6.0781,-6.0781,-6.0781,-6.0781,-6.0781,-6.0781,-6.0781,-6.0781,-6.0781,-6.0781,-6.0781,-6.0781,-6.0769,-6.0746,-6.0746,-6.0734,-6.0622,-6.0189,-6.0059,-5.9962,-5.9526,-5.9372,-5.9337,-5.9337,-5.9319,-5.9084,-5.8216,-5.8348,-5.8528,-5.8097,-5.7997,-5.8119,-5.8549,-5.8326,-5.8142,-5.8549,-5.8304,-5.7997,-5.7997,-5.796,-5.7923,-5.7923,-5.7226,-5.6712,-5.6712,-5.6014,-5.55,-5.55,-5.5862,-5.6276,-5.6731,-5.635,-5.6086,-5.6086,-5.4273,-5.3203,-5.3203,-5.3203,-5.3203,-5.3203,-5.3922,-5.4326,-5.4326,-5.5097,-5.55,-5.5522,-5.5596,-5.5978,-4.0516,-4.0893,-4.1431,-4.197,-4.2354,-4.2547,-4.2354,-4.2701,-4.3085,-4.3085,-4.3508,0.0,0.0,0.0,0.0,0.0,0.0,0.0,0.0,0.0,0.0,0.0,0.0,0.0,0.0,0.0,0.0,0.0,0.0,0.0,0.0,0.0,0.0,0.0,0.0,-6.0781,-6.0781,-6.0781,-6.0781,-6.0781,-6.0781,-6.0781,-6.0781,-6.0781,-6.0781,-6.0781,-6.0781,-6.0781,-6.0781,-6.0781,-6.0781,-6.0781,-6.0781,-6.0781,-6.0781,-6.0781,-6.0781,-6.0781,-6.0781,-6.0781,-6.0769,-6.0597,-6.0521,-6.0495,-6.0324,-6.0089,-5.9839,-5.9839,-5.9839,-5.9609,-5.8693,-5.857,-5.8673,-5.8482,-5.8439,-5.8549,-5.9009,-5.9009,-5.8835,-5.8696,-5.8549,-5.8332,-5.8065,-5.7997,-5.7997,-5.7997,-5.774,-5.7556,-5.7556,-5.6859,-5.6441,-5.6751,-5.698,-5.7084,-5.7019,-5.7068,-5.7019,-5.675,-5.5458,-5.4693,-5.4693,-5.4693,-5.4693,-5.4693,-5.4987,-5.5133,-5.5133,-5.5941,-5.6345,-5.6345,-5.6859,-5.7262,-4.0516,-4.1123,-4.1923,-4.2547,-4.3085,-4.3316,-4.2739,-4.2854,-4.3162,-4.3431,-4.4547,-4.6047,0.0,0.0,0.0,0.0,0.0,0.0,0.0,0.0,0.0,0.0,0.0,0.0,0.0,0.0,0.0,0.0,0.0,0.0,0.0,0.0,0.0,0.0,0.0,-6.0781,-6.0781,-6.0781,-6.0781,-6.0781,-6.0781,-6.0781,-6.0781,-6.0781,-6.0781,-6.0781,-6.0781,-6.0781,-6.0781,-6.0781,-6.0781,-6.0781,-6.0781,-6.0781,-6.0781,-6.0781,-6.0781,-6.0781,-6.0781,-6.0781,-6.0781,-6.0781,-6.0781,-6.0781,-6.0781,-6.0597,-6.0324,-6.0324,-6.0324,-6.0146,-5.9337,-5.9121,-5.9084,-5.8971,-5.8932,-5.9065,-5.9509,-5.9492,-5.9337,-5.9158,-5.8913,-5.8591,-5.8282,-5.8097,-5.8065,-5.8172,-5.8216,-5.8282,-5.8418,-5.7958,-5.7813,-5.8258,-5.8379,-5.8359,-5.8204,-5.833,-5.8263,-5.8006,-5.723,-5.657,-5.6071,-5.6034,-5.599,-5.5839,-5.6076,-5.6138,-5.5978,-5.6785,-5.7189,-5.7189,-5.774,-5.7997,-4.0516,-4.1162,-4.1808,-4.1808,0.0,0.0,-4.4316,-4.3662,-4.3355,-4.4162,-4.6355,-4.8125,-4.8125,0.0,0.0,0.0,0.0,0.0,0.0,0.0,0.0,0.0,0.0,0.0,0.0,0.0,0.0,0.0,0.0,0.0,0.0,0.0,0.0,0.0,0.0,0.0,-6.0781,-6.0781,-6.0781,-6.0781,-6.0781,-6.0781,-6.0781,-6.0781,-6.0781,-6.0781,-6.0781,-6.0781,-6.0781,-6.0781,-6.0781,-6.0781,-6.0781,-6.0781,-6.0781,-6.0781,-6.0781,-6.0781,-6.0781,-6.0781,-6.0781,-6.0781,-6.0781,-6.0781,-6.0781,-6.0781,-6.0781,-6.0781,-6.0781,-6.0671,-6.0217,-6.0118,-5.9977,-5.9509,-5.9407,-5.9526,-5.9991,-5.976,-5.9543,-5.9991,-5.9337,-5.8733,-5.8733,-5.8326,-5.8186,-5.8652,-5.8713,-5.8874,-5.9337,-5.9389,-5.9576,-6.0074,-6.0103,-6.0297,-6.0757,-6.0365,-6.0118,-6.0118,-5.9658,-5.8706,-5.7078,-5.7003,-5.6784,-5.6349,-5.7093,-5.7295,-5.6822,-5.7593,-5.7997,-5.7997,-5.7997,-5.7997,-4.1393,-4.247,0.0,-4.3547,0.0,0.0,0.0,-4.4124,0.0,0.0,-4.724,-4.9009,0.0,0.0,0.0,0.0,0.0,0.0,0.0,0.0,0.0,0.0,0.0,0.0,0.0,0.0,0.0,0.0,0.0,0.0,0.0,0.0,0.0,0.0,0.0,0.0,-6.0781,-6.0781,-6.0781,-6.0781,-6.0781,-6.0781,-6.0781,-6.0781,-6.0781,-6.0781,-6.0781,-6.0781,-6.0781,-6.0781,-6.0781,-6.0781,-6.0781,-6.0781,-6.0781,-6.0781,-6.0781,-6.0781,-6.0781,-6.0781,-6.0781,-6.0781,-6.0781,-6.0781,-6.0781,-6.0781,-6.0781,-6.0781,-6.0781,-6.0757,-6.0622,-6.0597,-6.0482,-5.9991,-5.9885,-6.0006,-6.0495,-6.0482,-6.0324,-6.0146,-5.9885,-5.9576,-5.9248,-5.9103,-5.9047,-5.9158,-5.9176,-5.923,-5.9372,-5.9712,-5.9946,-6.0089,-6.0378,-6.0647,-6.0781,-6.0659,-6.0597,-6.0597,-6.0469,-5.9874,-5.8723,-5.8689,-5.8621,-5.8479,-5.8388,-5.826,-5.8132,-5.8017,-5.7997,-5.7997,-5.7997,-5.7997,-4.1808,-4.3008,0.0,-4.4316,-4.4547,-4.4816,-4.4816,0.0,0.0,0.0,0.0,0.0,0.0,0.0,0.0,0.0,0.0,0.0,0.0,0.0,0.0,0.0,0.0,0.0,0.0,0.0,0.0,0.0,0.0,0.0,0.0,0.0,0.0,0.0,0.0,0.0,-6.0281,-6.0281,-6.0473,-6.0781,-6.0781,-6.0781,-6.0781,-6.0781,-6.0781,-6.0781,-6.0781,-6.0781,-6.0781,-6.0781,-6.0781,-6.0781,-6.0781,-6.0781,-6.0781,-6.0781,-6.0781,-6.0781,-6.0781,-6.0781,-6.0781,-6.0781,-6.0781,-6.0781,-6.0781,-6.0781,-6.0781,-6.0781,-6.0781,-6.0781,-6.0781,-6.0781,-6.0734,-6.0456,-6.0365,-6.0469,-6.0746,-6.0781,-6.0734,-6.0443,-6.0217,-5.9991,-5.9744,-5.9509,-5.9458,-5.9642,-5.9839,-5.9946,-5.9946,-6.0189,-6.0365,-6.0365,-6.0634,-6.0781,-6.0781,-6.0781,-6.0781,-6.0781,-6.0781,-6.0533,-5.9962,-5.9946,-5.987,-5.9658,-5.9389,-5.9158,-5.899,-5.8676,-5.8549,-5.8549,-5.8549,-5.8549,-4.1885,-4.3085,0.0,-4.4393,-4.5017,0.0,-4.571,-4.5787,0.0,0.0,0.0,0.0,0.0,0.0,0.0,0.0,0.0,0.0,0.0,0.0,0.0,0.0,0.0,0.0,0.0,0.0,0.0,0.0,0.0,0.0,0.0,0.0,0.0,0.0,0.0,0.0,-5.9396,-5.9396,-5.9819,0.0,-6.0666,-6.0704,-6.0781,-6.0781,-6.0781,-6.0781,-6.0781,-6.0781,-6.0781,-6.0781,-6.0781,-6.0781,-6.0781,-6.0781,-6.0781,-6.0781,-6.0781,-6.0781,-6.0781,-6.0781,-6.0781,-6.0781,-6.0781,-6.0781,-6.0781,-6.0781,-6.0781,-6.0781,-6.0781,-6.0781,-6.0781,-6.0781,-6.0781,-6.0781,-6.0781,-6.0781,-6.0781,-6.0781,-6.0781,-6.0781,-6.0469,-6.0161,-6.0161,-5.9823,-5.9658,-6.0103,-6.0521,-6.0781,-6.0781,-6.0781,-6.0781,-6.0781,-6.0781,-6.0781,-6.0781,-6.0781,-6.0781,-6.0781,-6.0781,-6.0781,-6.0781,-6.0781,-6.061,-6.0161,-6.0132,-5.9885,-5.9458,-5.9407,-5.9389,-5.9389,-5.9389,-5.9389,-4.2624,-4.3547,0.0,0.0,-4.5479,-4.5787,-4.6471,-4.7124,0.0,0.0,0.0,0.0,0.0,0.0,0.0,0.0,0.0,0.0,0.0,0.0,0.0,0.0,0.0,0.0,0.0,0.0,0.0,0.0,0.0,0.0,0.0,0.0,0.0,0.0,0.0,-5.7703,-5.855,-5.855,-5.8973,0.0,-5.9781,-6.0127,-6.0781,-6.0781,-6.0781,-6.0781,-6.0781,-6.0781,-6.0781,-6.0781,-6.0781,-6.0781,-6.0781,-6.0781,-6.0781,-6.0781,-6.0781,-6.0781,-6.0781,-6.0781,-6.0781,-6.0781,-6.0781,-6.0781,-6.0781,-6.0781,-6.0781,-6.0781,-6.0781,-6.0781,-6.0781,-6.0781,-6.0781,-6.0781,-6.0781,-6.0781,-6.0781,-6.0781,-6.0781,-6.0781,-6.0734,-6.0647,-6.0647,-6.0585,-6.0521,-6.0634,-6.0746,-6.0781,-6.0781,-6.0781,-6.0781,-6.0781,-6.0781,-6.0781,-6.0781,-6.0781,-6.0781,-6.0781,-6.0781,-6.0781,-6.0781,-6.0781,-6.0757,-6.0647,-6.0297,-6.0074,-5.9946,-5.9576,-5.9389,-5.9389,-5.9389,-5.9389,-4.2854,0.0,0.0,-4.5364,0.0,-4.5941,-4.7201,0.0,0.0,0.0,0.0,0.0,0.0,0.0,0.0,0.0,0.0,0.0,0.0,0.0,0.0,0.0,0.0,0.0,0.0,0.0,0.0,0.0,0.0,0.0,0.0,0.0,0.0,0.0,-5.6368,-5.678,-5.7665,-5.7665,-5.8088,-5.8934,-5.8934,-5.9358,-6.0204,-6.0589,-6.0781,-6.0781,-6.0781,-6.0781,-6.0781,-6.0781,-6.0781,-6.0781,-6.0781,-6.0781,-6.0781,-6.0781,-6.0781,-6.0781,-6.0781,-6.0781,-6.0781,-6.0781,-6.0781,-6.0781,-6.0781,-6.0781,-6.0781,-6.0781,-6.0781,-6.0781,-6.0781,-6.0781,-6.0781,-6.0781,-6.0781,-6.0781,-6.0781,-6.0781,-6.0781,-6.0781,-6.0781,-6.0781,-6.0781,-6.0781,-6.0781,-6.0781,-6.0781,-6.0781,-6.0781,-6.0781,-6.0781,-6.0781,-6.0781,-6.0781,-6.0781,-6.0781,-6.0781,-6.0781,-6.0781,-6.0781,-6.0781,-6.0781,-6.0781,-6.0781,-6.0546,-6.0443,-6.0443,-6.0175,-6.0089,-6.0089,-6.0089,-6.0089,-4.2624,0.0,-4.4509,-4.5364,-4.5594,0.0,-4.774,0.0,0.0,0.0,0.0,0.0,0.0,0.0,0.0,0.0,0.0,0.0,0.0,0.0,0.0,0.0,0.0,0.0,0.0,0.0,0.0,0.0,0.0,0.0,0.0,0.0,-5.5703,-5.5703,-5.5703,-5.6049,-5.6791,-5.6791,-5.7203,-5.8088,-5.8242,-5.8665,-5.9319,-6.005,-6.0512,-6.0781,-6.0781,-6.0781,-6.0781,-6.0781,-6.0781,-6.0781,-6.0781,-6.0781,-6.0781,-6.0781,-6.0781,-6.0781,-6.0781,-6.0781,-6.0781,-6.0781,-6.0781,-6.0781,-6.0781,-6.0781,-6.0781,-6.0781,-6.0781,-6.0781,-6.0781,-6.0781,-6.0781,-6.0781,-6.0781,-6.0781,-6.0781,-6.0781,-6.0781,-6.0781,-6.0781,-6.0781,-6.0781,-6.0781,-6.0781,-6.0781,-6.0781,-6.0781,-6.0781,-6.0781,-6.0781,-6.0781,-6.0781,-6.0781,-6.0781,-6.0781,-6.0781,-6.0781,-6.0781,-6.0781,-6.0781,-6.0781,-6.0781,-6.0781,-6.0781,-6.0781,-6.0781,-6.0781,-6.0781,-6.0781,-6.0781,-6.0781,0.0,0.0,-4.4509,0.0,-4.5594,-4.6056,0.0,0.0,0.0,0.0,0.0,0.0,0.0,0.0,0.0,0.0,0.0,0.0,0.0,0.0,0.0,0.0,0.0,0.0,0.0,0.0,0.0,0.0,0.0,0.0,0.0,-5.5703,-5.5703,-5.5703,-5.5703,-5.5742,-5.5857,-5.5857,-5.6319,-5.7176,-5.7934,-5.8357,-5.8473,-5.8588,-5.9435,-6.0781,-6.0781,-6.0781,-6.0781,-6.0781,-6.0781,-6.0781,-6.0781,-6.0781,-6.0781,-6.0781,-6.0781,-6.0781,-6.0781,-6.0781,-6.0781,-6.0781,-6.0781,-6.0781,-6.0781,-6.0781,-6.0781,-6.0781,-6.0781,-6.0781,-6.0781,-6.0781,-6.0781,-6.0781,-6.0781,-6.0781,-6.0781,-6.0781,-6.0781,-6.0781,-6.0781,-6.0781,-6.0781,-6.0781,-6.0781,-6.0781,-6.0781,-6.0781,-6.0781,-6.0781,-6.0781,-6.0781,-6.0781,-6.0781,-6.0781,-6.0781,-6.0781,-6.0781,-6.0781,-6.0781,-6.0781,-6.0781,-6.0781,-6.0781,-6.0781,-6.0781,-6.0781,-6.0781,-6.0781,-6.0781,-6.0781,-6.0781,-4.1546,-4.3008,-4.4393,0.0,-4.5248,-4.6056,0.0,0.0,0.0,0.0,0.0,0.0,0.0,0.0,0.0,0.0,0.0,0.0,0.0,0.0,0.0,0.0,0.0,0.0,0.0,0.0,0.0,0.0,0.0,0.0,-5.5703,-5.5703,-5.5703,-5.5703,-5.5703,-5.5703,-5.5703,-5.5703,-5.5895,-5.6291,-5.6665,-5.7088,-5.755,-5.755,-5.8242,-5.9435,-5.9896,-6.0089,-6.0127,-6.0589,-6.0781,-6.0781,-6.0781,-6.0781,-6.0781,-6.0781,-6.0781,-6.0781,-6.0781,-6.0781,-6.0781,-6.0781,-6.0781,-6.0781,-6.0781,-6.0781,-6.0781,-6.0781,-6.0781,-6.0781,-6.0781,-6.0781,-6.0781,-6.0781,-6.0781,-6.0781,-6.0781,-6.0781,-6.0781,-6.0781,-6.0781,-6.0781,-6.0781,-6.0781,-6.0781,-6.0781,-6.0781,-6.0781,-6.0781,-6.0781,-6.0781,-6.0781,-6.0781,-6.0781,-6.0781,-6.0781,-6.0781,-6.0781,-6.0781,-6.0781,-6.0781,-6.0781,-6.0781,-6.0781,-6.0781,-6.0781,-6.0781,-6.0781,-6.0781,-6.0781,-6.0781,-6.0781,0.0,0.0,-4.3778,-4.4201,-4.4778,-4.5778,0.0,0.0,0.0,0.0,0.0,0.0,0.0,0.0,0.0,0.0,0.0,0.0,0.0,0.0,0.0,0.0,0.0,0.0,0.0,0.0,0.0,0.0,0.0,0.0,-5.5703,-5.5703,-5.5703,-5.5703,-5.5703,-5.5703,-5.5703,-5.5703,-5.5703,-5.5703,-5.5703,-5.6049,-5.6676,-5.6676,-5.7011,-5.7703,-5.8742,-5.9204,-5.9242,-5.9896,-6.0281,-6.0473,-6.0473,-6.0589,-6.0781,-6.0781,-6.0781,-6.0781,-6.0781,-6.0781,-6.0781,-6.0781,-6.0781,-6.0781,-6.0781,-6.0781,-6.0781,-6.0781,-6.0781,-6.0781,-6.0781,-6.0781,-6.0781,-6.0781,-6.0781,-6.0781,-6.0781,-6.0781,-6.0781,-6.0781,-6.0781,-6.0781,-6.0781,-6.0781,-6.0781,-6.0781,-6.0781,-6.0781,-6.0781,-6.0781,-6.0781,-6.0781,-6.0781,-6.0781,-6.0781,-6.0781,-6.0781,-6.0781,-6.0781,-6.0781,-6.0781,-6.0781,-6.0781,-6.0781,-6.0781,-6.0781,-6.0781,-6.0781,-6.0781,-6.0781,-6.0781,-6.0781,0.0,-4.1846,0.0,-4.3893,0.0,0.0,0.0,0.0,0.0,0.0,0.0,0.0,0.0,0.0,0.0,0.0,0.0,0.0,0.0,0.0,0.0,0.0,0.0,0.0,0.0,0.0,0.0,0.0,0.0,0.0,-5.5703,-5.5703,-5.5703,-5.5703,-5.5703,-5.5703,-5.5703,-5.5703,-5.5703,-5.5703,-5.5703,-5.5703,-5.578,-5.578,-5.578,-5.5934,-5.7627,-5.8357,-5.8357,-5.8396,-5.8896,-5.9588,-5.9588,-6.0089,-6.0781,-6.0781,-6.0781,-6.0781,-6.0781,-6.0781,-6.0781,-6.0781,-6.0781,-6.0781,-6.0781,-6.0781,-6.0781,-6.0781,-6.0781,-6.0781,-6.0781,-6.0781,-6.0781,-6.0781,-6.0781,-6.0781,-6.0781,-6.0781,-6.0781,-6.0781,-6.0781,-6.0781,-6.0781,-6.0781,-6.0781,-6.0781,-6.0781,-6.0781,-6.0781,-6.0781,-6.0781,-6.0781,-6.0781,-6.0781,-6.0781,-6.0781,-6.0781,-6.0781,-6.0781,-6.0781,-6.0781,-6.0781,-6.0781,-6.0781,-6.0781,-6.0781,-6.0781,-6.0781,-6.0781,-6.0781,-6.0781,-6.0781,0.0,0.0,0.0,-4.2547,-4.3124,0.0,0.0,0.0,0.0,0.0,0.0,0.0,0.0,0.0,0.0,0.0,0.0,0.0,0.0,0.0,0.0,0.0,0.0,0.0,0.0,0.0,0.0,0.0,0.0,0.0,-5.5703,-5.5703,-5.5703,-5.5703,-5.5703,-5.5703,-5.5703,-5.5703,-5.5703,-5.5703,-5.5703,-5.5703,-5.5703,-5.5703,-5.5703,-5.5742,-5.6357,-5.6934,-5.7511,-5.8088,-5.8473,-5.8742,-5.8742,-5.9242,-5.9973,-5.9973,-6.0319,-6.0781,-6.0781,-6.0781,-6.0781,-6.0781,-6.0781,-6.0781,-6.0781,-6.0781,-6.0781,-6.0781,-6.0781,-6.0781,-6.0781,-6.0781,-6.0781,-6.0781,-6.0781,-6.0781,-6.0781,-6.0781,-6.0781,-6.0781,-6.0781,-6.0781,-6.0781,-6.0781,-6.0781,-6.0781,-6.0781,-6.0781,-6.0781,-6.0781,-6.0781,-6.0781,-6.0781,-6.0781,-6.0781,-6.0781,-6.0781,-6.0781,-6.0781,-6.0781,-6.0781,-6.0781,-6.0781,-6.0781,-6.0781,-6.0781,-6.0781,-6.0781,-6.0781,-6.0781,-6.0781,-6.1089,-4.0516,0.0,0.0,0.0,0.0,0.0,0.0,0.0,0.0,0.0,0.0,0.0,0.0,0.0,0.0,0.0,0.0,0.0,0.0,0.0,0.0,0.0,0.0,0.0,0.0,0.0,0.0,0.0,0.0,0.0,-5.5703,-5.5703,-5.5703,-5.5703,-5.5703,-5.5703,-5.5703,-5.5703,-5.5703,-5.5703,-5.5703,-5.5703,-5.5703,-5.5703,-5.5703,-5.5703,-5.5703,-5.6011,-5.6599,-5.7203,-5.7588,-5.7857,-5.7857,-5.8357,-5.9088,-5.9088,-5.9627,-6.0358,-6.0358,-6.055,-6.0781,-6.0781,-6.0781,-6.0781,-6.0781,-6.0781,-6.0781,-6.0781,-6.0781,-6.0781,-6.0781,-6.0781,-6.0781,-6.0781,-6.0781,-6.0781,-6.0781,-6.0781,-6.0781,-6.0781,-6.0781,-6.0781,-6.0781,-6.0781,-6.0781,-6.0781,-6.0781,-6.0781,-6.0781,-6.0781,-6.0781,-6.0781,-6.0781,-6.0781,-6.0781,-6.0781,-6.0781,-6.0781,-6.0781,-6.0781,-6.0781,-6.0781,-6.0781,-6.0781,-6.0781,-6.0781,-6.0781,-6.0781,-6.0781,-6.0819,-6.1089,-6.1858,0.0,0.0,0.0,0.0,0.0,0.0,0.0,0.0,0.0,0.0,0.0,0.0,0.0,0.0,0.0,0.0,0.0,0.0,0.0,0.0,0.0,0.0,0.0,0.0,0.0,0.0,0.0,0.0,0.0,-5.5665,-5.5703,-5.5703,-5.5703,-5.5703,-5.5703,-5.5703,-5.5703,-5.5703,-5.5703,-5.5703,-5.5703,-5.5703,-5.5703,-5.5703,-5.5703,-5.5703,-5.5703,-5.5703,-5.5703,-5.5703,-5.6214,-5.6945,-5.6945,-5.7473,-5.828,-5.828,-5.8781,-5.9473,-5.9473,-6.0012,-6.0742,-6.0742,-6.0781,-6.0781,-6.0781,-6.0781,-6.0781,-6.0781,-6.0781,-6.0781,-6.0781,-6.0781,-6.0781,-6.0781,-6.0781,-6.0781,-6.0781,-6.0781,-6.0781,-6.0781,-6.0781,-6.0781,-6.0781,-6.0781,-6.0781,-6.0781,-6.0781,-6.0781,-6.0781,-6.0781,-6.0781,-6.0781,-6.0781,-6.0781,-6.0781,-6.0781,-6.0781,-6.0781,-6.0781,-6.0781,-6.0781,-6.0781,-6.0781,-6.0781,-6.0781,-6.0819,-6.0819,-6.0819,-6.0819,-6.0858,-6.1755,-6.3051,-4.0516,0.0,0.0,0.0,0.0,0.0,0.0,0.0,0.0,0.0,0.0,0.0,0.0,0.0,0.0,0.0,0.0,0.0,0.0,0.0,0.0,0.0,0.0,0.0,0.0,0.0,0.0,0.0,-5.4818,-5.5088,-5.5665,-5.5703,-5.5703,-5.5703,-5.5703,-5.5703,-5.5703,-5.5703,-5.5703,-5.5703,-5.5703,-5.5703,-5.5703,-5.5703,-5.5703,-5.5703,-5.5703,-5.5703,-5.5703,-5.5703,-5.5818,-5.6049,-5.6049,-5.6588,-5.7368,-5.7368,-5.7896,-5.8627,-5.8627,-5.9165,-5.9858,-5.9858,-6.0281,-6.0781,-6.0781,-6.0781,-6.0781,-6.0781,-6.0781,-6.0781,-6.0781,-6.0781,-6.0781,-6.0781,-6.0781,-6.0781,-6.0781,-6.0781,-6.0781,-6.0781,-6.0781,-6.0781,-6.0781,-6.0781,-6.0781,-6.0781,-6.0781,-6.0781,-6.0781,-6.0781,-6.0781,-6.0781,-6.0781,-6.0781,-6.0781,-6.0781,-6.0781,-6.0781,-6.0781,-6.0781,-6.0781,-6.0781,-6.0781,-6.0781,-6.0781,-6.1089,-6.1755,-6.1755,-6.1755,-6.1793,-6.3243,-6.4166,0.0,0.0,0.0,0.0,0.0,0.0,-4.2701,-4.3701,0.0,0.0,0.0,0.0,0.0,0.0,0.0,0.0,0.0,0.0,0.0,0.0,0.0,0.0,0.0,0.0,0.0,0.0,0.0,0.0,-5.3972,-5.4318,-5.5164,-5.5511,-5.5703,-5.5703,-5.5703,-5.5703,-5.5703,-5.5703,-5.5703,-5.5703,-5.5703,-5.5703,-5.5703,-5.5703,-5.5703,-5.5703,-5.5703,-5.5703,-5.5703,-5.5703,-5.5703,-5.5703,-5.5703,-5.6011,-5.6483,-5.6483,-5.7011,-5.7742,-5.7742,-5.8319,-5.905,-5.9396,-5.9858,-6.0319,-6.0704,-6.0781,-6.0781,-6.0781,-6.0781,-6.0781,-6.0781,-6.0781,-6.0781,-6.0781,-6.0781,-6.0781,-6.0781,-6.0781,-6.0781,-6.0781,-6.0781,-6.0781,-6.0781,-6.0781,-6.0781,-6.0781,-6.0781,-6.0781,-6.0781,-6.0781,-6.0781,-6.0781,-6.0781,-6.0781,-6.0781,-6.0781,-6.0781,-6.0781,-6.0781,-6.0781,-6.0781,-6.0781,-6.0781,-6.0781,-6.1166,-6.1935,-6.3128,-6.2447,-6.2447,-6.3166,-6.4128,-6.4782,0.0,0.0,0.0,0.0,0.0,0.0,-4.2585,-4.3508,-4.4739,0.0,0.0,0.0,0.0,0.0,0.0,0.0,0.0,0.0,0.0,0.0,0.0,0.0,0.0,0.0,0.0,0.0,-5.2115,-5.301,-5.3164,-5.3549,-5.4318,-5.5126,-5.5549,-5.5549,-5.5665,-5.5703,-5.5703,-5.5703,-5.5703,-5.5703,-5.5703,-5.5703,-5.5703,-5.5703,-5.5703,-5.5703,-5.5703,-5.5703,-5.5703,-5.5703,-5.5703,-5.5703,-5.5703,-5.5703,-5.5703,-5.5703,-5.6214,-5.6868,-5.6868,-5.7434,-5.828,-5.8973,-5.9358,-5.9627,-6.0435,-6.0704,-6.0781,-6.0781,-6.0781,-6.0781,-6.0781,-6.0781,-6.0781,-6.0781,-6.0781,-6.0781,-6.0781,-6.0781,-6.0781,-6.0781,-6.0781,-6.0781,-6.0781,-6.0781,-6.0781,-6.0781,-6.0781,-6.0781,-6.0781,-6.0781,-6.0781,-6.0781,-6.0781,-6.0781,-6.0781,-6.0781,-6.0781,-6.0781,-6.0781,-6.0781,-6.0781,-6.0781,-6.0858,-6.0935,-6.1897,-6.3089,-6.4589,-6.3089,-6.3205,-6.4743,-6.4743,-6.5166,0.0,0.0,0.0,0.0,0.0,0.0,-4.1816,-4.22,-4.3008,0.0,0.0,0.0,0.0,0.0,0.0,0.0,0.0,0.0,0.0,0.0,0.0,0.0,0.0,0.0,0.0,0.0,-5.1279,-5.2077,-5.2818,-5.328,-5.3433,-5.428,-5.4741,-5.4741,-5.5357,-5.5703,-5.5703,-5.5703,-5.5703,-5.5703,-5.5703,-5.5703,-5.5703,-5.5703,-5.5703,-5.5703,-5.5703,-5.5703,-5.5703,-5.5703,-5.5703,-5.5703,-5.5703,-5.5703,-5.5703,-5.5703,-5.5818,-5.5934,-5.5934,-5.6511,-5.7291,-5.7445,-5.8396,-5.9511,-5.9704,-6.0242,-6.0781,-6.0781,-6.0781,-6.0781,-6.0781,-6.0781,-6.0781,-6.0781,-6.0781,-6.0781,-6.0781,-6.0781,-6.0781,-6.0781,-6.0781,-6.0781,-6.0781,-6.0781,-6.0781,-6.0781,-6.0781,-6.0781,-6.0781,-6.0781,-6.0781,-6.0781,-6.0781,-6.0781,-6.0781,-6.0781,-6.0781,-6.0781,-6.0781,-6.0781,-6.0781,-6.0781,-6.1127,-6.1831,-6.332,-6.4282,-6.4589,-6.4282,-6.4628,-6.5628,-6.5628,-6.5743,0.0,0.0,0.0,-4.1777,0.0,0.0,0.0,-4.3047,-4.3662,0.0,0.0,0.0,0.0,0.0,0.0,0.0,0.0,0.0,0.0,0.0,0.0,0.0,0.0,0.0,0.0,0.0,-5.0856,-5.1279,-5.2087,-5.2538,-5.2538,-5.3395,-5.4049,-5.4472,-5.4895,-5.528,-5.5703,-5.5703,-5.5703,-5.5703,-5.5703,-5.5703,-5.5703,-5.5703,-5.5703,-5.5703,-5.5703,-5.5703,-5.5703,-5.5703,-5.5703,-5.5703,-5.5703,-5.5703,-5.5703,-5.5703,-5.5703,-5.5703,-5.5703,-5.5972,-5.6406,-5.6868,-5.7561,-5.8396,-5.9242,-6.0127,-6.0781,-6.0781,-6.0781,-6.0781,-6.0781,-6.0781,-6.0781,-6.0781,-6.0781,-6.0781,-6.0781,-6.0781,-6.0781,-6.0781,-6.0781,-6.0781,-6.0781,-6.0781,-6.0781,-6.0781,-6.0781,-6.0781,-6.0781,-6.0781,-6.0781,-6.0781,-6.0781,-6.0781,-6.0781,-6.0781,-6.0781,-6.0781,-6.0781,-6.0781,-6.0781,-6.1216,-6.205,-6.332,-6.4166,-6.482,-6.5243,-6.5243,-6.5474,-6.5897,-6.5897,-6.5897,0.0,0.0,0.0,0.0,0.0,-4.3278,0.0,0.0,0.0,0.0,0.0,0.0,0.0,0.0,0.0,0.0,0.0,0.0,0.0,0.0,0.0,0.0,0.0,0.0,0.0,0.0,-5.0712,-5.0712,-5.1318,-5.1654,-5.1654,-5.2472,-5.3356,-5.4203,-5.4395,-5.4895,-5.5703,-5.5703,-5.5703,-5.5703,-5.5703,-5.5703,-5.5703,-5.5703,-5.5703,-5.5703,-5.5703,-5.5703,-5.5703,-5.5703,-5.5703,-5.5703,-5.5703,-5.5703,-5.5703,-5.5703,-5.5703,-5.5703,-5.5703,-5.5703,-5.5818,-5.6522,-5.6868,-5.733,-5.8973,-5.9973,-6.0589,-6.0742,-6.0781,-6.0781,-6.0781,-6.0781,-6.0781,-6.0781,-6.0781,-6.0781,-6.0781,-6.0781,-6.0781,-6.0781,-6.0781,-6.0781,-6.0781,-6.0781,-6.0781,-6.0781,-6.0781,-6.0781,-6.0781,-6.0781,-6.0781,-6.0781,-6.0781,-6.0781,-6.0781,-6.0781,-6.0781,-6.0781,-6.0781,-6.0858,-6.105,-6.2062,-6.3205,-6.4589,-6.4743,-6.5205,-6.5897,-6.5897,-6.5897,-6.5897,-6.5897,-6.5897,0.0,0.0,0.0,0.0,-4.3085,0.0,0.0,0.0,0.0,0.0,0.0,0.0,0.0,0.0,0.0,0.0,0.0,0.0,0.0,0.0,0.0,0.0,0.0,0.0,0.0,0.0,0.0,-5.0712,-5.0789,-5.0827,-5.0827,-5.1625,-5.2462,-5.3318,-5.4087,-5.4895,-5.5703,-5.5703,-5.5703,-5.5703,-5.5703,-5.5703,-5.5703,-5.5703,-5.5703,-5.5703,-5.5703,-5.5703,-5.5703,-5.5703,-5.5703,-5.5703,-5.5703,-5.5703,-5.5703,-5.5703,-5.5703,-5.5703,-5.5703,-5.5703,-5.5703,-5.5818,-5.6368,-5.733,-5.8973,-5.9588,-5.9819,-6.0589,-6.0781,-6.0781,-6.0781,-6.0781,-6.0781,-6.0781,-6.0781,-6.0781,-6.0781,-6.0781,-6.0781,-6.0781,-6.0781,-6.0781,-6.0781,-6.0781,-6.0781,-6.0781,-6.0781,-6.0781,-6.0781,-6.0781,-6.0781,-6.0781,-6.0781,-6.0781,-6.0781,-6.0781,-6.0781,-6.0781,-6.0781,-6.1127,-6.1908,-6.3474,-6.4397,-6.4589,-6.5359,-6.5782,-6.5897,-6.5897,-6.5897,-6.5897,-6.5897,-6.5897,0.0,0.0,0.0,0.0,0.0,0.0,0.0,0.0,-4.4662,0.0,0.0,0.0,0.0,0.0,0.0,0.0,0.0,0.0,0.0,0.0,0.0,0.0,0.0,0.0,0.0,0.0,0.0,0.0,0.0,-4.9933,-4.9933,-5.0741,-5.1587,-5.2423,-5.328,-5.4164,-5.5011,-5.5472,-5.5703,-5.5703,-5.5703,-5.5703,-5.5703,-5.5703,-5.5703,-5.5703,-5.5703,-5.5703,-5.5703,-5.5703,-5.5703,-5.5703,-5.5703,-5.5703,-5.5703,-5.5703,-5.5703,-5.5703,-5.5703,-5.5703,-5.5703,-5.5703,-5.6291,-5.7137,-5.7819,-5.8742,-5.9588,-5.9935,-6.0396,-6.0781,-6.0781,-6.0781,-6.0781,-6.0781,-6.0781,-6.0781,-6.0781,-6.0781,-6.0781,-6.0781,-6.0781,-6.0781,-6.0781,-6.0781,-6.0781,-6.0781,-6.0781,-6.0781,-6.0781,-6.0781,-6.0781,-6.0781,-6.0781,-6.0781,-6.0781,-6.0781,-6.0781,-6.0781,-6.1281,-6.1935,-6.2743,-6.3974,-6.4859,-6.532,-6.5705,-6.5897,-6.5897,-6.5897,-6.5897,-6.5897,-6.5897,-6.5897,-4.7048,0.0,0.0,0.0,0.0,0.0,0.0,0.0,0.0,0.0,0.0,0.0,0.0,0.0,0.0,0.0,0.0,0.0,0.0,0.0,0.0,0.0,0.0,0.0,0.0,0.0,0.0,0.0,0.0,0.0,-4.9394,-5.001,-5.0818,-5.1885,-5.2741,-5.3626,-5.4472,-5.528,-5.5703,-5.5703,-5.5703,-5.5703,-5.5703,-5.5703,-5.5703,-5.5703,-5.5703,-5.5703,-5.5703,-5.5703,-5.5703,-5.5703,-5.5703,-5.5703,-5.5703,-5.5703,-5.5703,-5.5703,-5.5703,-5.5703,-5.5703,-5.5703,-5.6126,-5.6676,-5.6945,-5.7857,-5.8896,-5.9358,-5.9973,-6.0512,-6.0742,-6.0781,-6.0781,-6.0781,-6.0781,-6.0781,-6.0781,-6.0781,-6.0781,-6.0781,-6.0781,-6.0781,-6.0781,-6.0781,-6.0781,-6.0781,-6.0781,-6.0781,-6.0781,-6.0781,-6.0781,-6.0781,-6.0781,-6.0781,-6.0781,-6.0781,-6.0896,-6.1127,-6.1973,-6.2781,-6.3628,-6.4474,-6.5243,-6.5897,-6.5897,-6.5897,-6.5897,-6.5897,-6.5897,-6.5897,-6.5897,-6.5897,0.0,0.0,0.0,-4.7855,0.0,0.0,0.0,0.0,-4.577,0.0,0.0,0.0,0.0,0.0,0.0,0.0,0.0,0.0,0.0,0.0,0.0,0.0,0.0,0.0,0.0,0.0,0.0,0.0,0.0,0.0,-4.9356,-4.9433,-5.0202,-5.1846,-5.2741,-5.3626,-5.4472,-5.528,-5.5703,-5.5703,-5.5703,-5.5703,-5.5703,-5.5703,-5.5703,-5.5703,-5.5703,-5.5703,-5.5703,-5.5703,-5.5703,-5.5703,-5.5703,-5.5703,-5.5703,-5.5703,-5.5703,-5.5703,-5.5703,-5.5703,-5.5703,-5.5703,-5.5703,-5.5895,-5.6753,-5.706,-5.7407,-5.905,-5.9511,-5.9742,-6.0589,-6.0781,-6.0781,-6.0781,-6.0781,-6.0781,-6.0781,-6.0781,-6.0781,-6.0781,-6.0781,-6.0781,-6.0781,-6.0781,-6.0781,-6.0781,-6.0781,-6.0781,-6.0781,-6.0781,-6.0781,-6.0781,-6.0781,-6.0781,-6.0781,-6.0781,-6.1166,-6.2024,-6.282,-6.3666,-6.4512,-6.5397,-6.5859,-6.5897,-6.5897,-6.5897,-6.5897,-6.5897,-6.5897,-6.5897,-6.5897,-6.5897,0.0,0.0,-4.8625,-4.8894,0.0,0.0,0.0,0.0,0.0,0.0,0.0,0.0,0.0,0.0,0.0,0.0,0.0,0.0,0.0,0.0,0.0,0.0,0.0,0.0,0.0,0.0,0.0,0.0,0.0,0.0,0.0,-4.9086,-4.9933,-5.1087,-5.1895,-5.2779,-5.3626,-5.4472,-5.5164,-5.5703,-5.5703,-5.5703,-5.5703,-5.5703,-5.5703,-5.5703,-5.5703,-5.5703,-5.5703,-5.5703,-5.5703,-5.5703,-5.5703,-5.5703,-5.5703,-5.5703,-5.5703,-5.5703,-5.5703,-5.5703,-5.5703,-5.5703,-5.5703,-5.5742,-5.6049,-5.656,-5.7253,-5.8396,-5.9088,-5.9704,-6.055,-6.0781,-6.0781,-6.0781,-6.0781,-6.0781,-6.0781,-6.0781,-6.0781,-6.0781,-6.0781,-6.0781,-6.0781,-6.0781,-6.0781,-6.0781,-6.0781,-6.0781,-6.0781,-6.0781,-6.0781,-6.0781,-6.0781,-6.0781,-6.0781,-6.0781,-6.1166,-6.2062,-6.2858,-6.3705,-6.4551,-6.5436,-6.5897,-6.5897,-6.5897,-6.5897,-6.5897,-6.5897,-6.5897,-6.5897,-6.5897,-6.5897,-4.9702,-4.9625,0.0,-4.9779,-4.9062,0.0,-4.805,0.0,0.0,0.0,0.0,0.0,0.0,0.0,0.0,0.0,0.0,0.0,0.0,-4.6069,0.0,0.0,0.0,0.0,0.0,0.0,0.0,0.0,0.0,0.0,0.0,0.0,-4.9471,-5.0673,-5.1471,-5.2308,-5.3203,-5.4049,-5.4895,-5.5703,-5.5703,-5.5703,-5.5703,-5.5703,-5.5703,-5.5703,-5.5703,-5.5703,-5.5703,-5.5703,-5.5703,-5.5703,-5.5703,-5.5703,-5.5703,-5.5703,-5.5703,-5.5703,-5.5703,-5.5703,-5.5703,-5.5703,-5.5703,-5.5703,-5.5703,-5.6088,-5.6637,-5.7203,-5.8204,-5.9204,-5.9781,-6.0358,-6.0781,-6.0781,-6.0781,-6.0781,-6.0781,-6.0781,-6.0781,-6.0781,-6.0781,-6.0781,-6.0781,-6.0781,-6.0781,-6.0781,-6.0781,-6.0781,-6.0781,-6.0781,-6.0781,-6.0781,-6.0781,-6.0781,-6.0781,-6.1089,-6.1627,-6.2474,-6.332,-6.4166,-6.5013,-6.559,-6.5897,-6.5897,-6.5897,-6.5897,-6.5897,-6.5897,-6.5897,-6.5897,-6.5897,-6.5897]},{"header":{"parameterUnit":"m.s-1","parameterCategory":1,"la1":30.6,"la2":29.2853,"lo1":-89.7004,"lo2":-87.6739,"dy":0.0162,"dx":0.0183,"nx":112,"ny":82,"refTime":"2024-03-26T12:00:00:Z","depth":0,"parameterNumber":3,"parameterNumberName":"V-component_of_WINDS"},"data":[0.0,0.0,0.0,0.0,0.0,0.0,0.0,0.0,0.0,0.0,0.0,0.0,0.0,0.0,0.0,0.0,0.0,0.0,0.0,0.0,0.0,0.0,0.0,0.0,0.0,0.0,0.0,0.0,0.0,0.0,0.0,0.0,0.0,0.0,0.0,0.0,0.0,0.0,0.0,0.0,0.0,0.0,0.0,0.0,0.0,0.0,0.0,0.0,0.0,0.0,0.0,0.0,0.0,0.0,0.0,0.0,0.0,0.0,0.0,0.0,0.0,0.0,0.0,0.0,0.0,0.0,0.0,0.0,0.0,0.0,0.0,0.0,0.0,0.0,0.0,0.0,0.0,0.0,0.0,0.0,0.0,0.0,0.0,0.0,0.0,0.0,0.0,0.0,0.0,0.0,0.0,-1.5458,-1.5685,-1.5784,-1.5784,-1.5784,-1.5578,-1.5048,0.0,0.0,0.0,0.0,0.0,0.0,0.0,0.0,0.0,0.0,0.0,0.0,0.0,0.0,0.0,0.0,0.0,0.0,0.0,0.0,0.0,0.0,0.0,0.0,0.0,0.0,0.0,0.0,0.0,0.0,0.0,0.0,0.0,0.0,0.0,0.0,0.0,0.0,0.0,0.0,0.0,0.0,0.0,0.0,0.0,0.0,0.0,0.0,0.0,0.0,0.0,0.0,0.0,0.0,0.0,0.0,0.0,0.0,0.0,0.0,0.0,0.0,0.0,0.0,0.0,0.0,0.0,0.0,0.0,0.0,0.0,0.0,0.0,0.0,0.0,0.0,0.0,0.0,0.0,0.0,0.0,0.0,0.0,0.0,0.0,0.0,0.0,0.0,0.0,0.0,0.0,0.0,0.0,0.0,0.0,0.0,0.0,0.0,0.0,0.0,0.0,0.0,0.0,0.0,-1.5217,-1.5712,-1.5758,-1.5784,-1.5784,-1.5784,-1.5578,-1.5048,0.0,0.0,0.0,0.0,0.0,0.0,0.0,0.0,0.0,0.0,0.0,0.0,0.0,0.0,0.0,0.0,0.0,0.0,0.0,0.0,0.0,0.0,0.0,0.0,0.0,0.0,0.0,0.0,0.0,0.0,0.0,0.0,0.0,0.0,0.0,0.0,0.0,0.0,0.0,0.0,0.0,0.0,0.0,0.0,0.0,0.0,0.0,0.0,0.0,0.0,0.0,0.0,0.0,0.0,0.0,0.0,0.0,0.0,0.0,0.0,0.0,0.0,0.0,0.0,0.0,0.0,0.0,0.0,0.0,0.0,0.0,0.0,0.0,0.0,0.0,0.0,0.0,0.0,0.0,0.0,0.0,0.0,0.0,0.0,0.0,0.0,0.0,0.0,0.0,0.0,0.0,0.0,0.0,0.0,0.0,0.0,0.0,0.0,0.0,0.0,0.0,0.0,0.0,-1.5017,-1.5364,-1.5778,-1.5784,-1.5784,-1.5784,-1.5784,-1.5578,-1.5048,-1.5008,0.0,0.0,0.0,0.0,0.0,0.0,0.0,0.0,0.0,0.0,0.0,0.0,0.0,0.0,0.0,0.0,0.0,0.0,0.0,0.0,0.0,0.0,0.0,0.0,0.0,0.0,0.0,0.0,0.0,0.0,0.0,0.0,0.0,0.0,0.0,0.0,0.0,0.0,0.0,0.0,0.0,0.0,0.0,0.0,0.0,0.0,0.0,0.0,0.0,0.0,0.0,0.0,0.0,0.0,0.0,0.0,0.0,0.0,0.0,0.0,0.0,0.0,0.0,0.0,0.0,0.0,0.0,0.0,0.0,0.0,0.0,0.0,0.0,0.0,0.0,0.0,0.0,0.0,0.0,0.0,0.0,0.0,0.0,0.0,0.0,0.0,0.0,0.0,0.0,0.0,0.0,0.0,0.0,0.0,0.0,0.0,0.0,0.0,0.0,0.0,0.0,0.0,-1.5284,-1.5578,-1.5758,-1.5784,-1.5784,-1.5784,-1.5718,-1.5511,-1.5035,-1.4941,0.0,0.0,0.0,0.0,0.0,0.0,0.0,0.0,0.0,0.0,0.0,0.0,0.0,0.0,0.0,0.0,0.0,0.0,0.0,0.0,0.0,0.0,0.0,0.0,0.0,0.0,0.0,0.0,0.0,0.0,0.0,0.0,0.0,0.0,0.0,0.0,0.0,0.0,0.0,0.0,0.0,0.0,0.0,0.0,0.0,0.0,0.0,0.0,0.0,0.0,0.0,0.0,0.0,0.0,0.0,0.0,0.0,0.0,0.0,0.0,0.0,0.0,0.0,0.0,0.0,0.0,0.0,0.0,0.0,0.0,0.0,0.0,0.0,0.0,0.0,0.0,0.0,0.0,0.0,0.0,0.0,0.0,0.0,0.0,0.0,0.0,0.0,0.0,0.0,0.0,0.0,0.0,0.0,0.0,0.0,0.0,0.0,0.0,0.0,0.0,0.0,0.0,-1.5458,-1.5758,-1.5784,-1.5784,-1.5784,-1.5784,-1.5578,-1.5297,-1.5022,-1.471,0.0,0.0,0.0,0.0,0.0,0.0,0.0,0.0,0.0,0.0,0.0,0.0,0.0,0.0,0.0,0.0,0.0,0.0,0.0,0.0,0.0,0.0,0.0,0.0,0.0,0.0,0.0,0.0,0.0,0.0,0.0,0.0,0.0,0.0,0.0,0.0,0.0,0.0,0.0,0.0,0.0,0.0,0.0,0.0,0.0,0.0,0.0,0.0,0.0,0.0,0.0,0.0,0.0,0.0,0.0,0.0,0.0,0.0,0.0,0.0,0.0,0.0,0.0,0.0,0.0,0.0,0.0,0.0,0.0,0.0,0.0,0.0,0.0,0.0,0.0,0.0,0.0,0.0,0.0,0.0,0.0,0.0,0.0,0.0,0.0,0.0,0.0,0.0,0.0,0.0,0.0,0.0,0.0,0.0,0.0,0.0,0.0,0.0,0.0,0.0,0.0,0.0,-1.5311,-1.5631,0.0,-1.5784,-1.5784,-1.5784,-1.5725,-1.5471,-1.5035,0.0,0.0,0.0,0.0,0.0,0.0,0.0,0.0,0.0,0.0,0.0,0.0,0.0,0.0,0.0,0.0,0.0,0.0,0.0,0.0,0.0,0.0,0.0,0.0,0.0,0.0,0.0,0.0,0.0,0.0,0.0,0.0,0.0,0.0,0.0,0.0,0.0,0.0,0.0,0.0,0.0,0.0,0.0,0.0,0.0,0.0,0.0,0.0,0.0,0.0,0.0,0.0,0.0,0.0,0.0,0.0,0.0,0.0,0.0,0.0,0.0,0.0,0.0,0.0,0.0,0.0,0.0,0.0,0.0,0.0,0.0,0.0,0.0,0.0,0.0,0.0,0.0,0.0,0.0,0.0,0.0,0.0,0.0,0.0,0.0,0.0,0.0,0.0,0.0,0.0,0.0,0.0,0.0,0.0,0.0,0.0,0.0,0.0,0.0,0.0,0.0,0.0,-1.4981,-1.5297,-1.5605,0.0,-1.5784,-1.5784,-1.5784,-1.5704,-1.5484,-1.5035,0.0,0.0,0.0,0.0,0.0,0.0,0.0,0.0,0.0,0.0,0.0,0.0,0.0,0.0,0.0,0.0,0.0,0.0,0.0,0.0,0.0,0.0,0.0,0.0,0.0,0.0,0.0,0.0,0.0,0.0,0.0,0.0,0.0,0.0,0.0,0.0,0.0,0.0,0.0,0.0,0.0,0.0,0.0,0.0,0.0,0.0,0.0,0.0,0.0,0.0,0.0,0.0,0.0,0.0,0.0,0.0,0.0,0.0,0.0,0.0,0.0,0.0,0.0,0.0,0.0,0.0,0.0,0.0,0.0,0.0,0.0,0.0,0.0,0.0,0.0,0.0,0.0,0.0,0.0,0.0,0.0,0.0,0.0,0.0,0.0,0.0,0.0,0.0,0.0,0.0,0.0,0.0,0.0,0.0,0.0,0.0,0.0,0.0,0.0,0.0,0.0,0.0,-1.5008,-1.5471,-1.5784,-1.5784,-1.5784,-1.5784,-1.5784,-1.5565,-1.5284,0.0,0.0,0.0,0.0,0.0,0.0,0.0,0.0,0.0,0.0,0.0,0.0,0.0,0.0,0.0,0.0,0.0,0.0,0.0,0.0,0.0,0.0,0.0,0.0,0.0,0.0,0.0,0.0,0.0,0.0,0.0,0.0,0.0,0.0,0.0,0.0,0.0,0.0,0.0,0.0,0.0,0.0,0.0,0.0,0.0,0.0,0.0,0.0,0.0,0.0,0.0,0.0,0.0,0.0,0.0,0.0,0.0,0.0,0.0,0.0,0.0,0.0,0.0,0.0,0.0,0.0,0.0,0.0,0.0,0.0,0.0,0.0,0.0,0.0,0.0,0.0,0.0,0.0,0.0,0.0,0.0,0.0,0.0,0.0,0.0,0.0,0.0,0.0,0.0,0.0,0.0,0.0,0.0,0.0,0.0,0.0,0.0,0.0,0.0,0.0,0.0,0.0,0.0,-1.5008,-1.5471,-1.5784,-1.5784,-1.5784,-1.5784,-1.5784,-1.5752,-1.5484,-1.5035,0.0,0.0,0.0,0.0,0.0,0.0,0.0,0.0,0.0,0.0,0.0,0.0,0.0,0.0,0.0,0.0,0.0,0.0,0.0,0.0,0.0,0.0,0.0,0.0,0.0,0.0,0.0,0.0,0.0,0.0,0.0,0.0,0.0,0.0,0.0,0.0,0.0,0.0,0.0,0.0,0.0,0.0,0.0,0.0,0.0,0.0,0.0,0.0,0.0,0.0,0.0,0.0,0.0,0.0,0.0,0.0,0.0,0.0,0.0,0.0,0.0,0.0,0.0,0.0,0.0,0.0,0.0,0.0,0.0,0.0,0.0,0.0,0.0,0.0,0.0,0.0,0.0,0.0,0.0,0.0,0.0,0.0,0.0,0.0,0.0,0.0,0.0,0.0,0.0,0.0,0.0,0.0,0.0,0.0,0.0,0.0,0.0,0.0,0.0,0.0,0.0,0.0,-1.5008,-1.5471,-1.5784,-1.5784,-1.5784,-1.5784,-1.5784,-1.5784,-1.5631,-1.5209,0.0,0.0,0.0,0.0,0.0,0.0,0.0,0.0,0.0,0.0,0.0,0.0,0.0,0.0,0.0,0.0,0.0,0.0,0.0,0.0,0.0,0.0,0.0,0.0,0.0,0.0,0.0,0.0,0.0,0.0,0.0,0.0,0.0,0.0,0.0,0.0,0.0,0.0,0.0,0.0,0.0,0.0,0.0,0.0,0.0,0.0,0.0,0.0,0.0,0.0,0.0,0.0,0.0,0.0,0.0,0.0,0.0,0.0,0.0,0.0,0.0,0.0,0.0,0.0,0.0,0.0,0.0,0.0,0.0,0.0,0.0,0.0,0.0,0.0,0.0,0.0,0.0,0.0,0.0,0.0,0.0,0.0,0.0,0.0,0.0,0.0,0.0,0.0,0.0,0.0,0.0,0.0,0.0,0.0,0.0,0.0,0.0,0.0,0.0,0.0,0.0,0.0,-1.5008,-1.5471,-1.5784,-1.5784,-1.5784,-1.5784,-1.5784,-1.5784,-1.5712,-1.5418,0.0,0.0,0.0,0.0,0.0,0.0,0.0,0.0,0.0,0.0,0.0,0.0,0.0,0.0,0.0,0.0,0.0,0.0,0.0,0.0,0.0,0.0,0.0,0.0,0.0,0.0,0.0,0.0,0.0,0.0,0.0,0.0,0.0,0.0,0.0,0.0,0.0,0.0,0.0,0.0,0.0,0.0,0.0,0.0,0.0,0.0,0.0,0.0,0.0,0.0,0.0,0.0,0.0,0.0,0.0,0.0,0.0,0.0,0.0,0.0,-1.4133,0.0,0.0,0.0,0.0,0.0,0.0,0.0,0.0,0.0,0.0,0.0,0.0,0.0,0.0,0.0,0.0,0.0,0.0,0.0,0.0,0.0,0.0,0.0,0.0,0.0,0.0,0.0,0.0,0.0,0.0,0.0,0.0,0.0,0.0,0.0,0.0,0.0,0.0,0.0,0.0,0.0,-1.5008,-1.5471,-1.5784,-1.5784,-1.5784,-1.5784,-1.5784,-1.5784,-1.5712,-1.5418,0.0,0.0,0.0,0.0,0.0,0.0,0.0,0.0,0.0,0.0,0.0,0.0,0.0,0.0,0.0,0.0,0.0,0.0,0.0,0.0,0.0,0.0,0.0,0.0,0.0,0.0,0.0,0.0,0.0,0.0,0.0,0.0,0.0,0.0,0.0,0.0,0.0,0.0,0.0,0.0,0.0,0.0,0.0,0.0,0.0,0.0,0.0,0.0,0.0,0.0,0.0,0.0,0.0,0.0,0.0,0.0,0.0,0.0,0.0,0.0,0.0,-1.4362,0.0,0.0,0.0,0.0,0.0,0.0,0.0,0.0,0.0,0.0,0.0,0.0,0.0,0.0,0.0,0.0,0.0,0.0,0.0,0.0,0.0,0.0,0.0,0.0,0.0,0.0,0.0,0.0,0.0,0.0,0.0,0.0,0.0,0.0,0.0,0.0,0.0,0.0,0.0,0.0,-1.5196,-1.5551,-1.5784,-1.5784,-1.5784,-1.5784,-1.5784,-1.5784,-1.5718,-1.5618,-1.5471,0.0,0.0,0.0,0.0,0.0,0.0,0.0,0.0,0.0,0.0,0.0,0.0,0.0,0.0,0.0,0.0,0.0,0.0,0.0,0.0,0.0,0.0,0.0,0.0,0.0,0.0,0.0,0.0,0.0,0.0,0.0,0.0,0.0,0.0,0.0,0.0,0.0,0.0,0.0,0.0,0.0,0.0,0.0,0.0,0.0,0.0,0.0,0.0,0.0,0.0,0.0,0.0,0.0,-1.5003,-1.5156,-1.5156,-1.5156,-1.5156,-1.5156,-1.5102,-1.5223,-1.5364,0.0,0.0,0.0,0.0,0.0,0.0,0.0,0.0,0.0,0.0,0.0,0.0,0.0,0.0,0.0,0.0,0.0,0.0,0.0,0.0,0.0,0.0,0.0,0.0,0.0,-1.5471,-1.5404,0.0,0.0,0.0,0.0,0.0,0.0,0.0,0.0,0.0,0.0,0.0,0.0,-1.5364,-1.5645,-1.5784,-1.5784,-1.5784,-1.5784,-1.5784,-1.5784,-1.5784,-1.5784,-1.5605,-1.5471,0.0,0.0,0.0,0.0,0.0,0.0,0.0,0.0,0.0,0.0,0.0,0.0,0.0,0.0,0.0,0.0,0.0,0.0,0.0,0.0,0.0,0.0,0.0,0.0,0.0,0.0,0.0,0.0,0.0,0.0,0.0,0.0,-1.2644,-1.3106,0.0,0.0,0.0,0.0,0.0,0.0,0.0,0.0,0.0,0.0,0.0,0.0,0.0,0.0,-1.5217,-1.5257,-1.5404,-1.5611,-1.5651,-1.5712,-1.5712,-1.5712,-1.5712,-1.5698,-1.5444,0.0,-1.5391,-1.5311,0.0,0.0,0.0,0.0,0.0,0.0,0.0,0.0,0.0,0.0,0.0,0.0,0.0,0.0,0.0,0.0,0.0,0.0,0.0,0.0,0.0,0.0,-1.5678,-1.5718,-1.5765,-1.5765,0.0,-1.5324,-1.4995,-1.4955,0.0,0.0,0.0,0.0,0.0,0.0,0.0,0.0,-1.5391,-1.5645,-1.5784,-1.5784,-1.5784,-1.5784,-1.5784,-1.5784,-1.5784,-1.5784,-1.5792,-1.5765,-1.5765,-1.5524,0.0,0.0,0.0,0.0,0.0,0.0,0.0,0.0,0.0,0.0,0.0,0.0,0.0,0.0,0.0,0.0,0.0,0.0,0.0,0.0,0.0,0.0,0.0,0.0,0.0,0.0,0.0,0.0,0.0,-1.2388,-1.312,-1.3373,-1.3413,-1.34,0.0,0.0,0.0,0.0,0.0,0.0,0.0,0.0,0.0,-1.5003,-1.5017,-1.5217,-1.5631,-1.5631,-1.5698,-1.5784,-1.5784,-1.5784,-1.5784,-1.5784,-1.5784,-1.5771,-1.5698,-1.5631,-1.5631,-1.5471,-1.5391,-1.5364,0.0,0.0,0.0,0.0,0.0,-1.479,-1.4968,-1.5196,0.0,0.0,0.0,0.0,0.0,0.0,0.0,0.0,0.0,0.0,0.0,0.0,0.0,-1.5744,-1.5784,-1.5784,-1.5784,-1.5631,-1.5404,0.0,-1.5204,-1.511,-1.4816,0.0,0.0,0.0,0.0,0.0,-1.5618,-1.5752,-1.5784,-1.5784,-1.5784,-1.5784,-1.5784,-1.5784,-1.5784,-1.5784,-1.5784,-1.5784,-1.5784,-1.5712,-1.5565,0.0,0.0,0.0,0.0,0.0,0.0,0.0,0.0,0.0,0.0,0.0,0.0,0.0,0.0,0.0,0.0,0.0,0.0,0.0,0.0,0.0,0.0,0.0,0.0,0.0,0.0,0.0,0.0,-1.2335,-1.3347,-1.368,-1.3786,-1.3826,0.0,0.0,0.0,0.0,0.0,0.0,-1.4736,-1.495,-1.5204,-1.5498,-1.5578,-1.5725,-1.5939,-1.6019,-1.6046,-1.6046,-1.6046,-1.6046,-1.6046,-1.6046,-1.6046,-1.6046,-1.6046,-1.6046,-1.5984,-1.5658,-1.5511,-1.5498,-1.5431,-1.5257,-1.5115,-1.5115,-1.5115,-1.5129,-1.5164,-1.5324,-1.5511,-1.5511,0.0,-1.5498,-1.5418,0.0,0.0,0.0,0.0,-1.5169,-1.5337,-1.5444,-1.5565,-1.5731,-1.5784,-1.5784,-1.5784,-1.5784,-1.5718,0.0,-1.5511,-1.5418,-1.5169,0.0,0.0,0.0,0.0,-1.5578,-1.5758,-1.5784,-1.5784,-1.5784,-1.5784,-1.5784,-1.5784,-1.5784,-1.5784,-1.5784,-1.5784,-1.5784,-1.5784,-1.5784,-1.5725,-1.5511,0.0,0.0,0.0,0.0,0.0,0.0,0.0,0.0,0.0,0.0,0.0,0.0,0.0,0.0,0.0,0.0,0.0,0.0,0.0,0.0,0.0,0.0,0.0,0.0,0.0,0.0,0.0,0.0,0.0,-1.4001,-1.4309,0.0,0.0,0.0,0.0,-1.4496,-1.4763,-1.5102,-1.5337,-1.5364,-1.5511,-1.5744,-1.6086,-1.6233,-1.6246,-1.6526,-1.666,-1.666,-1.666,-1.666,-1.666,-1.666,-1.666,-1.666,-1.666,-1.666,-1.662,-1.5997,-1.5758,-1.5731,-1.5511,-1.5391,-1.5378,-1.5378,-1.5378,-1.5418,-1.5685,-1.5744,-1.5758,-1.5758,-1.5758,-1.5704,-1.5484,-1.5391,0.0,0.0,-1.5164,-1.5378,-1.5391,-1.5605,-1.5758,-1.5784,-1.5784,-1.5784,-1.5784,-1.5784,-1.5784,0.0,-1.5758,-1.5712,-1.5431,0.0,-1.5698,-1.5431,-1.5631,-1.5758,-1.5784,-1.5784,-1.5784,-1.5784,-1.5784,-1.5784,-1.5784,-1.5784,-1.5784,-1.5784,-1.5784,-1.5784,-1.5784,-1.5784,-1.5771,-1.5758,-1.5538,0.0,0.0,0.0,0.0,0.0,0.0,0.0,0.0,0.0,0.0,0.0,0.0,0.0,0.0,0.0,0.0,0.0,0.0,0.0,0.0,0.0,0.0,0.0,0.0,0.0,0.0,0.0,0.0,-1.4295,-1.4629,0.0,0.0,-1.507,-1.5204,-1.5097,-1.5351,-1.5645,-1.5939,-1.5965,-1.6086,-1.638,-1.65,-1.6553,-1.6553,-1.666,-1.67,-1.67,-1.67,-1.67,-1.67,-1.67,-1.67,-1.67,-1.67,-1.67,-1.6687,-1.6473,-1.6393,-1.638,-1.6273,-1.6246,-1.6219,-1.6032,-1.5965,-1.5952,-1.5858,-1.5784,-1.5784,-1.5784,-1.5784,-1.5758,-1.5712,-1.5671,-1.5658,-1.5551,-1.5591,-1.5671,-1.5671,-1.5752,-1.5784,-1.5784,-1.5784,-1.5784,-1.5784,-1.5784,-1.5784,-1.5784,-1.5784,-1.5744,-1.5698,-1.5765,-1.5792,-1.5698,-1.5718,-1.5784,-1.5784,-1.5784,-1.5784,-1.5784,-1.5784,-1.5784,-1.5784,-1.5784,-1.5784,-1.5784,-1.5784,-1.5784,-1.5784,-1.5784,-1.5784,-1.5784,-1.5725,-1.5484,0.0,0.0,0.0,0.0,0.0,0.0,0.0,0.0,0.0,0.0,0.0,0.0,0.0,0.0,0.0,0.0,0.0,0.0,0.0,0.0,0.0,0.0,0.0,0.0,0.0,0.0,-1.4079,-1.4616,-1.4937,-1.515,-1.5244,-1.5524,-1.5698,-1.5698,-1.5965,-1.6206,-1.6406,-1.642,-1.6513,-1.67,-1.6807,-1.6901,-1.7007,-1.7101,-1.7208,-1.7301,-1.7301,-1.7301,-1.7301,-1.7301,-1.7301,-1.7301,-1.7301,-1.7301,-1.7301,-1.7301,-1.7248,-1.7128,-1.682,-1.67,-1.6687,-1.6486,-1.642,-1.6393,-1.6192,-1.6077,-1.6077,-1.6077,-1.6077,-1.6077,-1.6077,-1.6077,-1.6077,-1.6077,-1.6077,-1.6077,-1.6077,-1.6077,-1.6077,-1.6077,-1.6077,-1.6077,-1.6077,-1.6077,-1.6077,-1.6077,-1.5917,-1.5744,-1.5698,-1.5685,-1.5645,-1.5551,-1.5538,-1.5538,-1.5538,-1.5618,-1.5685,-1.5685,-1.5765,-1.5784,-1.5784,-1.5738,-1.5678,-1.5771,-1.5738,-1.5725,-1.5784,-1.5691,-1.5685,-1.5685,-1.5591,-1.5391,-1.511,0.0,0.0,0.0,0.0,0.0,0.0,0.0,0.0,0.0,0.0,0.0,0.0,0.0,0.0,0.0,0.0,0.0,0.0,0.0,0.0,0.0,0.0,0.0,-1.2644,-1.3732,-1.4643,-1.4995,-1.5244,-1.5538,-1.5771,-1.6112,-1.6286,-1.6286,-1.654,-1.6714,-1.6727,-1.6727,-1.674,-1.674,-1.7085,-1.738,-1.7609,-1.7916,-1.821,-1.849,-1.849,-1.849,-1.849,-1.849,-1.849,-1.849,-1.849,-1.849,-1.849,-1.849,-1.8317,-1.7916,-1.7088,-1.674,-1.6727,-1.6727,-1.6714,-1.67,-1.67,-1.67,-1.67,-1.67,-1.67,-1.67,-1.67,-1.67,-1.67,-1.67,-1.67,-1.67,-1.67,-1.67,-1.67,-1.67,-1.67,-1.67,-1.67,-1.67,-1.67,-1.67,-1.6246,-1.5765,-1.5484,-1.5431,-1.5337,-1.5102,-1.5062,0.0,-1.5048,-1.5244,-1.5418,-1.5404,-1.5658,-1.5784,-1.5771,-1.5565,-1.5524,-1.5758,-1.5565,-1.5538,-1.5771,-1.5565,-1.5404,-1.5404,-1.5169,-1.5156,-1.5391,0.0,0.0,0.0,0.0,0.0,0.0,0.0,0.0,0.0,0.0,0.0,0.0,0.0,0.0,0.0,0.0,0.0,0.0,0.0,0.0,0.0,0.0,-1.4455,-1.4325,-1.4657,-1.503,-1.5538,-1.5858,-1.6059,-1.6139,-1.642,-1.658,-1.658,-1.666,-1.6794,-1.7072,-1.7221,-1.7448,-1.7622,-1.7969,-1.8156,-1.8237,-1.833,-1.841,-1.849,-1.849,-1.849,-1.849,-1.849,-1.849,-1.849,-1.849,-1.849,-1.849,-1.849,-1.8437,-1.8317,-1.7809,-1.7542,-1.7315,-1.7101,-1.6887,-1.67,-1.67,-1.67,-1.67,-1.67,-1.67,-1.67,-1.67,-1.67,-1.67,-1.67,-1.67,-1.67,-1.67,-1.67,-1.67,-1.67,-1.67,-1.67,-1.67,-1.67,-1.67,-1.67,-1.658,-1.6433,-1.6366,-1.6339,-1.6326,-1.6233,-1.6233,0.0,-1.5986,-1.6027,-1.5872,-1.5444,-1.5658,-1.5738,-1.5538,-1.5631,-1.5738,0.0,-1.5752,-1.5704,-1.5784,-1.5752,-1.5712,-1.5712,-1.5431,-1.5324,0.0,0.0,0.0,0.0,0.0,0.0,0.0,0.0,0.0,0.0,0.0,0.0,0.0,0.0,0.0,0.0,0.0,0.0,0.0,0.0,0.0,0.0,-1.4254,-1.5418,-1.5544,-1.5558,-1.5645,-1.5979,-1.6273,-1.646,-1.646,-1.6714,-1.6941,-1.7061,-1.7194,-1.7395,-1.7755,-1.7876,-1.805,-1.8169,-1.8397,-1.8544,-1.8677,-1.8677,-1.8731,-1.8865,-1.8865,-1.8865,-1.8865,-1.8865,-1.8865,0.0,-1.8865,-1.8865,-1.8865,-1.8865,-1.8784,0.0,0.0,0.0,0.0,0.0,-1.7528,-1.721,-1.721,-1.7181,-1.7074,-1.7074,-1.7074,-1.7074,-1.7074,-1.7074,-1.7074,-1.7074,-1.7074,-1.7074,-1.7074,-1.7074,-1.7074,-1.7074,-1.7074,-1.7074,-1.7074,-1.7074,-1.7074,-1.7074,0.0,0.0,-1.7074,-1.6767,-1.6486,-1.6353,-1.6339,-1.6273,-1.6112,-1.6192,-1.6187,-1.5805,-1.5912,-1.5952,-1.5778,-1.5698,0.0,0.0,0.0,-1.5645,-1.5645,-1.5645,0.0,0.0,0.0,-1.5271,-1.5391,0.0,0.0,0.0,-1.5196,-1.5075,0.0,0.0,0.0,0.0,0.0,0.0,0.0,0.0,0.0,0.0,0.0,0.0,0.0,0.0,0.0,0.0,-1.5238,-1.5671,-1.6206,-1.6375,-1.6415,-1.6326,-1.658,-1.6767,-1.6807,-1.7074,-1.742,-1.7662,-1.7943,-1.821,-1.8477,0.0,0.0,0.0,0.0,-1.8718,-1.8971,-1.8971,-1.9105,-1.943,-1.943,-1.943,-1.943,-1.943,-1.943,-1.943,-1.943,-1.943,-1.943,-1.943,-1.9212,-1.8945,-1.8624,-1.849,-1.849,-1.849,-1.833,0.0,0.0,0.0,0.0,-1.7689,-1.7689,-1.7689,-1.7689,-1.7662,-1.7635,-1.7635,-1.7609,-1.7582,-1.7582,-1.7582,-1.7582,-1.7582,-1.7582,-1.7582,-1.7582,-1.7582,-1.7582,-1.7582,-1.7582,-1.7582,-1.7582,-1.6941,-1.6326,-1.6072,-1.5984,-1.5971,-1.5979,-1.6206,-1.6402,-1.6335,0.0,0.0,-1.6273,-1.5792,-1.5605,-1.5858,-1.5605,-1.5444,-1.5444,-1.5444,-1.5324,-1.5115,-1.5102,-1.519,-1.5444,-1.5444,-1.5578,-1.5771,-1.5297,-1.5204,0.0,0.0,0.0,0.0,0.0,0.0,0.0,0.0,0.0,0.0,0.0,0.0,0.0,0.0,0.0,-1.3856,-1.5171,-1.6187,-1.6259,-1.6737,-1.6938,-1.6647,-1.6938,-1.7206,-1.7395,-1.7689,-1.7996,-1.829,-1.837,-1.8437,-1.849,-1.8718,0.0,-1.8838,-1.9078,-1.9225,-1.9279,-1.9279,-1.9319,-1.943,0.0,0.0,-1.943,-1.943,-1.943,-1.943,-1.943,-1.943,-1.943,-1.943,-1.9332,-1.9225,-1.8704,-1.849,-1.849,-1.849,-1.845,-1.841,-1.841,-1.837,-1.8317,-1.8317,-1.8317,-1.8317,-1.8317,-1.8143,0.0,-1.7902,-1.7769,-1.7582,-1.7582,-1.7582,-1.7582,-1.7582,-1.7582,-1.7582,-1.7582,-1.7582,-1.7582,-1.7582,-1.7582,-1.7582,-1.7582,-1.7435,-1.7315,-1.7248,-1.7248,-1.7154,-1.6978,-1.6991,-1.6844,-1.6375,-1.6486,-1.6526,-1.6348,-1.6166,-1.6126,-1.6179,-1.5912,-1.5704,-1.5704,-1.5704,-1.5712,-1.5658,-1.5658,-1.5685,-1.5704,-1.5704,-1.5731,-1.5784,-1.5712,-1.5698,0.0,0.0,0.0,0.0,0.0,0.0,0.0,0.0,0.0,0.0,0.0,-0.989,-1.1181,0.0,-1.3886,-1.3791,-1.5312,-1.654,-1.6737,-1.7139,-1.7313,-1.7018,-1.7328,-1.7662,-1.7796,-1.809,-1.8384,-1.8691,-1.8704,-1.8771,-1.8918,-1.9065,-1.9145,-1.9145,-1.9292,-1.9439,-1.9586,-1.9586,-1.9653,-1.98,-1.98,-1.98,-1.98,-1.98,-1.98,-1.98,-1.98,-1.972,-1.9573,-1.9484,-1.943,-1.939,-1.9038,-1.8931,-1.8931,-1.8931,-1.8838,-1.8704,-1.8704,-1.8611,-1.849,-1.849,-1.849,-1.849,-1.849,-1.8384,-1.8263,-1.8263,-1.8156,-1.8036,-1.8036,-1.8036,-1.8036,-1.8036,-1.8036,-1.7996,-1.7849,-1.7809,-1.7769,-1.7609,-1.7582,-1.7582,-1.7582,-1.7582,-1.7582,-1.7582,-1.7582,-1.7528,-1.7434,-1.742,-1.73,-1.6954,-1.6927,-1.6924,-1.6777,-1.663,-1.6433,-1.6335,-1.6126,-1.5979,-1.5784,-1.5784,-1.5784,-1.5784,-1.5784,-1.5784,-1.5784,-1.5784,-1.5784,-1.5784,-1.5784,-1.5784,0.0,0.0,0.0,0.0,0.0,0.0,0.0,0.0,-0.8023,-0.9349,-0.9584,-0.9968,-1.1231,-1.2914,-1.4123,-1.4025,-1.558,-1.6874,-1.7166,-1.7501,-1.7582,-1.7407,-1.7809,-1.8102,-1.8155,-1.8437,-1.8691,-1.8985,-1.9011,-1.9118,-1.9417,-1.943,-1.9399,-1.9511,-1.9511,-1.9586,-1.988,-1.988,-2.0,-2.0167,-2.0167,-2.0167,-2.0167,-2.0167,-2.0167,-2.0167,-2.0167,-2.0094,-1.9867,-1.9626,-1.9506,-1.9511,-1.9511,-1.947,-1.943,-1.943,-1.9212,-1.9011,-1.9011,-1.8851,-1.8664,-1.8664,-1.8664,-1.8664,-1.8664,-1.8624,-1.8571,-1.8571,-1.8531,-1.849,-1.849,-1.849,-1.849,-1.849,-1.849,-1.8424,-1.8183,-1.8075,-1.8009,-1.7809,-1.7716,-1.7675,-1.7675,-1.7622,-1.7582,-1.7582,-1.7582,-1.7582,-1.7582,-1.7582,-1.7582,-1.7582,-1.742,-1.7259,-1.7206,-1.6927,-1.6673,-1.6429,-1.6353,-1.6246,-1.6005,-1.5957,-1.5965,-1.5912,-1.5912,-1.5885,-1.5784,-1.5885,-1.5912,-1.5912,-1.5965,-1.5891,-0.6681,-0.6892,-0.7078,-0.7112,-0.736,-0.759,0.0,0.0,-0.8208,-0.9657,-0.9934,-1.0378,-1.1826,-1.3281,-1.4295,-1.4418,-1.5948,-1.7166,-1.7192,-1.7635,-1.7929,-1.7902,-1.8237,-1.8544,-1.8798,-1.8851,-1.8998,-1.9292,-1.9319,-1.9332,-1.943,-1.943,-1.9492,-1.9746,-1.976,-1.9893,-2.0127,-2.0187,-2.0201,-2.0167,-2.0167,-2.0167,-2.0167,-2.0167,-2.0167,-2.0167,-2.0167,-2.0153,-2.0127,-2.0147,-1.9987,-1.976,-1.976,-1.9599,-1.943,-1.943,-1.9403,-1.9319,-1.9319,-1.9292,-1.9323,-1.9323,-1.9323,-1.9323,-1.9323,-1.9078,-1.8878,-1.8878,-1.8691,-1.849,-1.849,-1.849,-1.849,-1.849,-1.849,-1.8477,-1.845,-1.8437,-1.8437,-1.8397,-1.817,-1.7942,-1.7942,-1.7769,-1.7582,-1.7582,-1.7582,-1.7582,-1.7582,-1.7582,-1.7582,-1.7582,-1.7555,-1.7487,-1.7219,-1.7166,-1.7018,-1.6673,-1.666,-1.6647,-1.6607,-1.6607,-1.6486,-1.6233,-1.6219,-1.6086,-1.5784,-1.6099,-1.6219,-1.6233,-1.6486,-1.6326,-0.7156,-0.7251,-0.7339,0.0,-0.7692,-0.776,-0.7909,-0.7894,-0.8301,-0.969,-1.0002,-1.0201,-1.0934,-1.2264,-1.3086,0.0,-1.4507,-1.6228,-1.6443,-1.6696,-1.7282,-1.8364,-1.7994,-1.7976,-1.8818,-1.9078,-1.9239,-1.9417,-1.943,-1.9497,-1.9613,-1.9626,-1.976,-2.004,-2.0054,-2.0187,-2.0494,-2.0494,-2.0575,-2.0748,-2.0748,-2.0748,-2.0748,-2.0748,-2.0748,-2.0735,-2.0561,-2.0494,-2.0481,-2.0307,-2.016,-2.0054,-2.0054,-1.988,-1.9599,-1.9484,-1.943,-1.943,-1.943,-1.943,-1.943,-1.943,-1.943,-1.943,-1.943,-1.9279,-1.9185,-1.9185,-1.9092,-1.8998,-1.8998,-1.8998,-1.8998,-1.8998,-1.8998,-1.8958,-1.8784,-1.8744,-1.8691,-1.8517,-1.8397,-1.8303,-1.8303,-1.805,-1.7849,-1.7849,-1.7702,-1.7582,-1.7582,-1.7582,-1.7582,-1.7582,-1.7582,-1.7528,-1.746,-1.7447,-1.7326,-1.7032,-1.7018,-1.6887,-1.6714,-1.67,-1.6647,-1.6526,-1.6526,-1.646,-1.6339,-1.646,-1.6526,-1.6526,-1.6647,-1.658,-0.7434,-0.7489,0.0,-0.7889,-0.7874,-0.7902,-0.7968,-0.7988,-0.8287,-0.9262,-0.95,-0.9588,-0.9705,-1.105,-1.1874,-1.1087,-1.3474,-1.5344,-1.5272,-1.5756,-1.6461,-1.7489,-1.7228,-1.737,-1.8295,-1.8995,-1.9243,-1.8765,-1.9127,-1.9317,-1.9166,-1.9549,-1.9973,-2.0347,-2.0361,-2.0494,-2.0788,-2.0802,-2.0895,-2.1109,-2.1109,-2.1109,-2.1109,-2.1109,-2.1109,-2.1096,-2.0882,-2.0802,-2.0775,-2.0561,-2.0428,-2.0361,-2.0361,-2.0174,-1.9893,-1.9679,-1.9506,-1.943,-1.943,-1.943,-1.943,-1.943,-1.943,-1.943,-1.943,-1.943,-1.943,-1.943,-1.943,-1.943,-1.943,-1.943,-1.943,-1.943,-1.943,-1.9305,-1.9092,-1.9052,-1.8985,-1.8771,-1.8664,-1.8611,-1.8611,-1.837,-1.8115,-1.8115,-1.7903,-1.7675,-1.7595,-1.7582,-1.7582,-1.7582,-1.7582,-1.7582,-1.7582,-1.7582,-1.7541,-1.734,-1.7326,-1.7219,-1.6954,-1.6941,-1.6914,-1.6834,-1.6834,-1.678,-1.67,-1.678,-1.6834,-1.6834,-1.6914,-1.6941,-0.7333,0.0,-0.7631,-0.778,-0.7923,-0.7982,-0.7988,-0.7988,-0.7988,-0.8038,-0.8211,-0.8412,-0.8556,-0.9852,-1.098,-1.1067,-1.3524,-1.4968,-1.3733,-1.5032,-1.566,-1.4388,-1.5865,-1.702,0.0,-1.846,-1.8765,-1.7208,-1.8519,-1.8823,-1.7517,-1.8941,-2.0067,-2.0641,-2.0655,-2.0802,-2.1096,-2.1096,-2.1096,-2.1109,-2.1109,-2.1109,-2.1109,-2.1109,-2.1109,-2.1109,-2.1096,-2.1096,-2.1096,-2.1082,-2.0922,-2.0655,-2.0655,-2.0481,-2.0214,-2.0153,-1.9853,-1.943,-1.943,-1.943,-1.943,-1.943,-1.943,-1.943,-1.943,-1.943,-1.943,-1.943,-1.943,-1.943,-1.943,-1.943,-1.943,-1.943,-1.943,-1.9417,-1.9417,-1.9359,-1.9359,-1.9345,-1.9105,-1.8905,-1.8905,-1.8664,-1.8477,-1.8477,-1.8223,-1.7876,-1.7622,-1.7582,-1.7582,-1.7582,-1.7582,-1.7582,-1.7582,-1.7582,-1.7582,-1.7569,-1.7569,-1.7569,-1.7555,-1.7555,-1.7474,-1.7192,-1.7192,-1.7045,-1.67,-1.7045,-1.7192,-1.7192,-1.7474,-1.7555,-0.7624,0.0,-0.7773,-0.7874,-0.7948,-0.7988,-0.7988,-0.7988,-0.8015,-0.8174,-0.8153,-0.8194,-0.8438,-0.8855,-0.922,-0.9492,-1.113,-1.2415,-1.2354,-1.2748,-1.3375,-1.432,-1.5022,0.0,0.0,0.0,0.0,-1.702,-1.6581,-1.6725,-1.7645,-1.8337,-1.9361,-2.0949,-2.0962,-2.1015,-2.1109,-2.1109,-2.1109,-2.1109,-2.1109,-2.1109,-2.1109,-2.1109,-2.1109,-2.1109,-2.1109,-2.1109,-2.1109,-2.1109,-2.1056,-2.0962,-2.0962,-2.0788,-2.0535,-2.0535,-2.0281,-1.992,-1.972,-1.9533,-1.943,-1.943,-1.943,-1.943,-1.943,-1.943,-1.943,-1.943,-1.943,-1.943,-1.943,-1.943,-1.943,-1.943,-1.943,-1.943,-1.943,-1.943,-1.943,-1.943,-1.9292,-1.9225,-1.9225,-1.8971,-1.8718,-1.8517,-1.8182,-1.7876,-1.7622,-1.7582,-1.7582,-1.7582,-1.7582,-1.7582,-1.7582,-1.7582,-1.7582,-1.7582,-1.7582,-1.7582,-1.7582,-1.7582,-1.7542,-1.7487,-1.7487,-1.7382,-1.7288,-1.7382,-1.7487,-1.7487,-1.7542,-1.7582,-0.776,-0.7814,-0.7848,-0.7948,-0.7988,-0.7988,-0.7988,-0.7988,-0.8015,-0.8167,-0.8153,-0.818,-0.837,-0.837,-0.8425,-0.8669,-0.9923,-1.0916,-1.0963,-1.1257,-1.1852,-1.2764,-1.3407,0.0,0.0,0.0,0.0,-1.53,-1.4972,-1.5197,-1.6051,-1.736,-1.8758,-2.0119,-2.0779,-2.1109,-2.1109,-2.1109,-2.1109,-2.1109,-2.1109,-2.1109,-2.1109,-2.1109,-2.1109,-2.1109,-2.1109,-2.1109,-2.1109,-2.1109,-2.1109,-2.1109,-2.1109,-2.0989,-2.0828,-2.0828,-2.0641,-2.0347,-2.0054,-1.9826,-1.9653,-1.9559,-1.9519,-1.9506,-1.9457,-1.943,-1.943,-1.943,-1.943,-1.943,-1.943,-1.943,-1.943,-1.943,-1.943,-1.943,-1.943,-1.943,-1.943,-1.943,-1.943,-1.943,-1.943,-1.9212,-1.8985,-1.8691,-1.8477,-1.8155,-1.7796,-1.7742,-1.7702,-1.7595,-1.7582,-1.7582,-1.7582,-1.7582,-1.7582,-1.7582,-1.7582,-1.7582,-1.7582,-1.7582,-1.7582,-1.7582,-1.7582,-1.7582,-1.7582,-1.7582,-1.7582,-1.7582,-1.7582,-1.7582,-0.7746,-0.7821,-0.7862,-0.7955,-0.7988,-0.7988,-0.7988,-0.7982,-0.7982,-0.8002,-0.8153,-0.8299,0.0,0.0,-0.852,-0.8676,-0.9869,-1.0482,-0.9537,-1.0567,-1.098,0.0,0.0,0.0,0.0,0.0,0.0,-1.2105,0.0,-1.4052,-1.2955,-1.6045,-1.8001,-1.8372,-2.0005,-2.0856,-2.0982,-2.1046,-2.1046,-2.0982,-2.0982,-2.0919,-2.0843,-2.0919,-2.0982,-2.0982,-2.1046,-2.1109,-2.1109,-2.1109,-2.1109,-2.1109,-2.1109,-2.1109,-2.1109,-2.1109,-2.0935,-2.0655,-2.0374,-2.0254,-2.0187,-1.9907,-1.9826,-1.9773,-1.9479,-1.9444,-1.9444,-1.943,-1.943,-1.943,-1.943,-1.943,-1.943,-1.943,-1.943,-1.943,-1.943,-1.943,-1.943,-1.943,-1.943,-1.943,-1.943,-1.943,-1.9265,-1.8985,-1.8945,-1.8731,-1.8089,-1.8009,-1.7902,-1.7635,-1.7609,-1.7595,-1.7582,-1.7582,-1.7582,-1.7582,-1.7582,-1.7582,-1.7582,-1.7582,-1.7582,-1.7582,-1.7582,-1.7582,-1.7582,-1.7582,-1.7582,-1.7582,-1.7582,-1.7582,-0.788,-0.7934,-0.7941,-0.7982,-0.7988,-0.7988,-0.7988,-0.7901,-0.7936,-0.8167,-0.8058,-0.7997,0.0,0.0,0.0,-0.852,-0.8948,0.0,-0.9277,-0.9652,0.0,-0.9698,0.0,-1.1736,-1.0543,-1.1495,0.0,0.0,-1.1121,-1.1854,-1.2838,-1.3906,-1.5151,-1.6496,-1.7012,-1.7859,-1.9152,-2.0449,-2.0462,-1.9152,-1.9152,-1.85,-1.728,-1.8576,-1.9152,-1.9228,-2.0526,-2.1109,-2.1109,-2.1109,-2.1109,-2.1109,-2.1109,-2.1109,-2.1109,-2.1109,-2.1069,-2.0989,-2.0909,-2.0601,-2.0167,-2.0147,-2.012,-2.0067,-1.9773,-1.9693,-1.9639,-1.9484,-1.943,-1.943,-1.943,-1.943,-1.943,-1.943,-1.943,-1.943,-1.943,-1.943,-1.943,-1.943,-1.943,-1.943,-1.943,-1.943,-1.9345,-1.9265,-1.9252,-1.9038,-1.845,-1.837,-1.825,-1.7943,-1.7916,-1.7836,-1.7609,-1.7582,-1.7582,-1.7582,-1.7582,-1.7582,-1.7582,-1.7582,-1.7582,-1.7582,-1.7582,-1.7582,-1.7582,-1.7582,-1.7582,-1.7582,-1.7582,-1.7582,-0.7948,-0.7988,-0.7988,-0.7988,-0.7988,-0.7975,-0.7907,-0.7875,-0.7841,-0.795,-0.7834,0.0,-0.8113,0.0,0.0,0.0,0.0,0.0,-0.9166,-0.9344,-0.9435,0.0,-1.0508,0.0,-0.9883,-1.0604,-1.0852,0.0,-1.0195,-1.0749,-1.182,-1.2783,-1.3774,-1.4754,-1.5524,-1.6754,-1.85,-1.9483,-1.9483,-1.8512,-1.7731,-1.6818,-1.5913,-1.6883,-1.7345,-1.7474,0.0,-1.9941,-2.0005,-2.0779,-2.0652,-2.0005,-2.0779,-2.0652,-2.0068,-2.0843,-2.1109,-2.1109,-2.1109,-2.0895,-2.0601,-2.0468,-2.0428,-2.0374,-2.008,-1.9987,-1.996,-1.9786,-1.9653,-1.9559,-1.9559,-1.9466,-1.943,-1.943,-1.943,-1.943,-1.943,-1.943,-1.943,-1.943,-1.943,-1.943,-1.943,-1.943,-1.943,-1.943,-1.943,-1.931,-1.8918,-1.8758,-1.8557,-1.825,-1.8237,-1.8116,-1.7809,-1.7782,-1.7729,-1.7595,-1.7582,-1.7582,-1.7582,-1.7582,-1.7582,-1.7582,-1.7582,-1.7582,-1.7582,-1.7582,-1.7582,-1.7582,-1.7582,-1.7582,-0.7955,-0.7988,-0.7988,-0.7988,-0.7988,-0.7948,-0.7848,-0.7794,-0.7746,-0.7624,0.0,-0.7658,-0.7907,-0.7961,-0.8103,-0.8608,0.0,-0.8784,-0.9139,-0.9273,-0.9429,-0.9564,-0.972,-0.9822,-0.9822,-0.9822,-0.989,-1.0004,-1.0202,-1.0344,-1.0487,-1.2057,-1.2931,-1.2931,-1.4623,-1.6302,-1.7795,-1.8052,-1.8052,-1.7795,-1.6302,-1.5394,-1.52,-1.5459,-1.5524,-1.5654,0.0,0.0,-1.8244,-1.9801,-1.9546,-1.832,-2.0068,-1.9801,-1.8704,-2.0462,-2.1109,-2.1109,-2.1109,-2.1109,-2.1069,-2.0815,-2.0735,-2.0681,-2.0374,-2.0294,-2.0281,-2.018,-2.0054,-1.9853,-1.9853,-1.9639,-1.9426,-1.9426,-1.9457,-1.943,-1.943,-1.943,-1.943,-1.943,-1.943,-1.943,-1.943,-1.943,-1.943,-1.943,-1.943,-1.943,-1.943,-1.9145,-1.8865,-1.8584,-1.8544,-1.8424,-1.8075,-1.8049,-1.7996,-1.7716,-1.7662,-1.7649,-1.7649,-1.7609,-1.7582,-1.7582,-1.7582,-1.7582,-1.7582,-1.7582,-1.7582,-1.7582,-1.7622,-1.7649,-0.7982,-0.7988,-0.7988,-0.7988,-0.7988,-0.7948,-0.7848,-0.7719,0.0,0.0,-0.7502,-0.7502,-0.7794,-0.7848,-0.7997,-0.8445,0.0,0.0,0.0,0.0,-0.9395,0.0,0.0,0.0,0.0,0.0,0.0,0.0,0.0,0.0,-1.0487,-1.0892,-1.1174,-1.1174,-1.2865,-1.3905,-1.4232,-1.5654,-1.5654,-1.4232,-1.3905,-1.2997,-1.163,-1.3062,-1.3774,-1.384,0.0,0.0,-1.6366,-1.6689,-1.6625,-1.6496,-1.8244,-1.8768,-1.8704,-2.0462,-2.1109,-2.1109,-2.1109,-2.1109,-2.1096,-2.1056,-2.1029,-2.0975,-2.0695,-2.0601,-2.0548,-2.0307,-2.0201,-2.016,-2.016,-1.9947,-1.972,-1.972,-1.9546,-1.943,-1.943,-1.943,-1.943,-1.943,-1.943,-1.943,-1.943,-1.943,-1.943,-1.943,-1.943,-1.943,-1.943,-1.9319,-1.9172,-1.8878,-1.8851,-1.8731,-1.8437,-1.841,-1.8397,-1.8343,-1.8103,-1.7916,-1.7916,-1.7716,-1.7582,-1.7582,-1.7582,-1.7582,-1.7582,-1.7582,-1.7582,-1.7595,-1.7849,-1.7916,-0.7894,-0.7928,-0.7988,-0.7988,-0.7988,-0.7928,-0.7753,0.0,0.0,0.0,-0.7299,-0.7346,-0.7645,0.0,0.0,0.0,0.0,0.0,0.0,0.0,0.0,0.0,0.0,0.0,0.0,0.0,0.0,0.0,0.0,0.0,-1.0602,-1.0677,-1.0717,-1.0717,-1.2413,-1.3325,-1.3325,-1.4101,-1.4101,-1.3325,-1.2347,-1.1505,-1.0717,-1.1571,-1.196,-1.2025,-1.3774,0.0,-1.4623,-1.5524,-1.5394,-1.4754,-1.6496,-1.656,-1.6108,-1.8768,-1.9737,-1.9877,-2.0779,-2.1109,-2.1109,-2.1109,-2.1109,-2.1082,-2.0949,-2.0895,-2.0869,-2.0735,-2.0575,-2.0468,-2.0468,-2.0241,-1.9987,-1.984,-1.9586,-1.943,-1.943,-1.943,-1.943,-1.943,-1.943,-1.943,-1.943,-1.943,-1.943,-1.943,-1.943,-1.943,-1.943,-1.943,-1.9319,-1.9172,-1.9158,-1.9038,-1.8744,-1.8718,-1.8651,-1.8504,-1.8357,-1.8277,-1.8277,-1.813,-1.805,-1.805,-1.805,-1.805,-1.805,-1.805,-1.805,-1.8063,-1.821,-1.8277,-0.7882,-0.7901,-0.7988,-0.7988,-0.7988,-0.7914,-0.7665,-0.7597,0.0,0.0,-0.7098,-0.7179,-0.7502,0.0,-0.7651,0.0,0.0,0.0,0.0,0.0,0.0,0.0,0.0,0.0,0.0,0.0,0.0,0.0,0.0,0.0,-1.0711,-1.0717,-1.0717,-1.0717,-1.2025,-1.2742,-1.2742,-1.2742,-1.2742,-1.2734,-1.1372,-1.0717,-1.0717,-1.0717,-1.0717,-1.0784,-1.215,0.0,0.0,-1.4232,-1.397,-1.2931,-1.4679,-1.4493,-1.3709,-1.6818,-1.7923,-1.818,-1.9941,-2.0526,-2.0589,-2.0982,-2.1109,-2.1109,-2.1109,-2.1109,-2.1109,-2.1109,-2.0949,-2.0775,-2.0775,-2.0548,-2.0254,-1.996,-1.9666,-1.9466,-1.9466,-1.947,-1.943,-1.943,-1.943,-1.943,-1.943,-1.943,-1.943,-1.943,-1.943,-1.943,-1.943,-1.943,-1.943,-1.943,-1.943,-1.9265,-1.9038,-1.9025,-1.8918,-1.8691,-1.8624,-1.8584,-1.8584,-1.8517,-1.849,-1.849,-1.849,-1.849,-1.849,-1.849,-1.849,-1.849,-1.8557,-1.8584,-0.7934,-0.7982,-0.7988,-0.7988,-0.7988,-0.7914,-0.7665,0.0,0.0,-0.7159,-0.7098,-0.7146,-0.736,-0.7278,-0.728,-0.778,0.0,-0.8018,0.0,0.0,0.0,0.0,0.0,0.0,0.0,0.0,0.0,0.0,0.0,0.0,0.0,-1.0717,-1.0717,-1.0717,-1.085,-1.0916,-1.0916,-1.0916,-1.0916,-1.0916,-1.0784,-1.0717,-1.0717,-1.0717,-1.0717,-1.0717,0.0,0.0,0.0,-1.1108,-1.1115,-1.1108,-1.2865,-1.3456,-1.3521,-1.5459,-1.6108,-1.6366,-1.8116,-1.8768,-1.9024,-2.0589,-2.1109,-2.1109,-2.1109,-2.1109,-2.1109,-2.1109,-2.1096,-2.1069,-2.1069,-2.0855,-2.0561,-2.0267,-1.9973,-1.976,-1.976,-1.9559,-1.943,-1.943,-1.943,-1.943,-1.943,-1.943,-1.943,-1.943,-1.943,-1.943,-1.943,-1.943,-1.943,-1.943,-1.943,-1.9417,-1.939,-1.9332,-1.9319,-1.935,-1.9038,-1.8878,-1.8878,-1.8637,-1.849,-1.849,-1.849,-1.849,-1.849,-1.849,-1.849,-1.8504,-1.8758,-1.8878,-0.778,-0.7853,-0.7988,-0.7988,-0.7988,-0.7914,-0.7665,0.0,-0.7516,-0.7159,-0.7098,-0.7112,-0.7217,-0.7139,-0.7186,-0.7502,-0.7692,0.0,0.0,0.0,0.0,0.0,0.0,0.0,0.0,0.0,0.0,0.0,0.0,0.0,0.0,-1.0717,-1.0717,-1.0717,-1.0717,-1.0717,-1.0717,-1.0717,-1.0717,-1.0717,-1.0717,-1.0717,-1.0717,-1.0717,-1.0717,-1.0717,0.0,0.0,0.0,-1.0717,-1.0717,-1.0784,-1.1439,-1.1762,-1.196,-1.3709,-1.4362,-1.4744,-1.7538,-1.8512,-1.8768,-2.0526,-2.1109,-2.1109,-2.1109,-2.1109,-2.1109,-2.1109,-2.1109,-2.1109,-2.1109,-2.0895,-2.0641,-2.0535,-2.0281,-2.0013,-1.984,-1.9706,-1.9573,-1.9457,-1.943,-1.943,-1.943,-1.943,-1.943,-1.943,-1.943,-1.943,-1.943,-1.943,-1.943,-1.943,-1.943,-1.943,-1.943,-1.943,-1.943,-1.943,-1.9252,-1.9185,-1.9185,-1.9078,-1.9011,-1.9011,-1.9011,-1.9011,-1.9011,-1.9011,-1.9011,-1.9025,-1.9132,-1.9185,-0.7665,-0.7814,-0.7934,-0.7982,-0.7955,-0.7853,0.0,0.0,-0.7455,-0.7152,-0.7098,-0.7098,-0.7098,-0.7098,-0.7132,-0.7285,0.0,-0.7841,-0.8099,0.0,0.0,0.0,0.0,0.0,0.0,0.0,0.0,0.0,0.0,0.0,0.0,-1.0717,-1.0717,-1.0717,-1.0717,-1.0717,-1.0717,-1.0717,-1.0717,-1.0717,-1.0717,-1.0717,-1.0717,-1.0717,-1.0717,-1.0717,0.0,0.0,0.0,-1.0717,-1.0717,-1.0717,-1.0717,-1.0717,-1.085,-1.2091,-1.2865,-1.3709,-1.6689,-1.8052,-1.8768,-2.0526,-2.1109,-2.1109,-2.1109,-2.1109,-2.1109,-2.1109,-2.1109,-2.1109,-2.1109,-2.0962,-2.0802,-2.0802,-2.0575,-2.0307,-2.0107,-1.992,-1.9733,-1.9533,-1.9426,-1.943,-1.943,-1.943,-1.943,-1.943,-1.943,-1.943,-1.943,-1.943,-1.943,-1.943,-1.943,-1.943,-1.943,-1.943,-1.943,-1.943,-1.943,-1.943,-1.943,-1.943,-1.943,-1.943,-1.943,-1.943,-1.943,-1.943,-1.943,-1.943,-1.943,-1.943,-0.7733,-0.7814,-0.7848,-0.7948,-0.7874,-0.7773,0.0,-0.7482,-0.7326,-0.7125,-0.7098,-0.7098,-0.7098,-0.7098,-0.7098,-0.7098,-0.74,0.0,0.0,0.0,0.0,0.0,0.0,0.0,0.0,0.0,0.0,0.0,0.0,0.0,0.0,-1.0717,-1.0717,-1.0717,-1.0717,-1.0717,-1.0717,-1.0717,-1.0717,-1.0717,-1.0717,-1.0717,-1.0717,-1.0717,-1.0717,0.0,0.0,0.0,0.0,-1.0717,-1.0717,-1.0717,-1.0717,-1.0717,-1.0717,-1.0717,-1.1828,-1.3578,-1.5329,-1.7076,-1.8768,-2.0526,-2.1109,-2.1109,-2.1109,-2.1109,-2.1109,-2.1109,-2.1109,-2.1109,-2.1109,-2.1109,-2.1109,-2.1109,-2.0882,-2.0668,-2.0668,-2.0214,-1.98,-1.98,-1.9559,-1.943,-1.943,-1.943,-1.943,-1.943,-1.943,-1.943,-1.943,-1.943,-1.943,-1.943,-1.943,-1.943,-1.943,-1.943,-1.943,-1.943,-1.943,-1.943,-1.943,-1.943,-1.943,-1.943,-1.943,-1.943,-1.943,-1.943,-1.943,-1.943,-1.943,-1.943,-0.7489,-0.759,-0.7678,-0.7726,-0.7699,-0.7631,-0.7482,-0.7453,-0.7326,-0.7125,-0.7098,-0.7098,-0.7098,-0.7098,-0.7098,-0.7098,-0.74,0.0,0.0,0.0,0.0,0.0,0.0,0.0,0.0,0.0,0.0,0.0,0.0,0.0,0.0,-1.0717,-1.0717,-1.0717,-1.0717,-1.0717,-1.0717,-1.0717,-1.0717,-1.0717,-1.0717,-1.0717,-1.0717,-1.0717,0.0,0.0,0.0,0.0,0.0,-1.0717,-1.0717,-1.0717,-1.0717,-1.0717,-1.0717,-1.0717,-1.1049,-1.196,-1.4874,-1.6237,-1.7216,-2.0132,-2.1109,-2.1109,-2.1109,-2.1109,-2.1109,-2.1109,-2.1109,-2.1109,-2.1109,-2.1109,-2.1109,-2.1109,-2.1042,-2.0922,-2.0722,-2.0535,-2.0281,-1.988,-1.972,-1.9599,-1.9457,-1.943,-1.943,-1.943,-1.943,-1.943,-1.943,-1.943,-1.943,-1.943,-1.943,-1.943,-1.943,-1.943,-1.943,-1.943,-1.943,-1.943,-1.943,-1.943,-1.943,-1.943,-1.943,-1.943,-1.943,-1.943,-1.943,-1.943,-1.943,-1.943,-0.7398,-0.7441,-0.7529,-0.7584,-0.7556,-0.7489,-0.7439,-0.7326,-0.7258,-0.7119,-0.7098,-0.7098,-0.7098,-0.7098,-0.7098,-0.7098,-0.74,0.0,0.0,0.0,0.0,0.0,0.0,0.0,0.0,0.0,0.0,0.0,0.0,0.0,0.0,0.0,-1.0717,-1.0717,-1.0717,-1.0717,-1.0717,-1.0717,-1.0717,-1.0717,-1.0717,-1.0717,-1.0717,-1.0717,0.0,0.0,0.0,0.0,0.0,-1.0717,-1.0717,-1.0717,-1.0717,-1.0717,-1.0717,-1.0717,-1.1505,-1.2997,-1.5135,-1.6754,-1.8244,-2.0386,-2.1109,-2.1109,-2.1109,-2.1109,-2.1109,-2.1109,-2.1109,-2.1109,-2.1109,-2.1109,-2.1109,-2.1109,-2.1109,-2.1056,-2.0882,-2.0748,-2.0561,-2.0201,-1.996,-1.9746,-1.9559,-1.9497,-1.943,-1.943,-1.943,-1.943,-1.943,-1.943,-1.943,-1.943,-1.943,-1.943,-1.943,-1.943,-1.943,-1.943,-1.943,-1.943,-1.943,-1.943,-1.943,-1.943,-1.943,-1.943,-1.943,-1.943,-1.943,-1.943,-1.943,-1.943,0.0,-0.7398,-0.7387,-0.7529,-0.7461,-0.7398,-0.7398,-0.7244,0.0,-0.7098,-0.7098,-0.7098,-0.7098,-0.7098,-0.7098,-0.7098,-0.74,0.0,0.0,0.0,0.0,0.0,0.0,0.0,0.0,0.0,0.0,0.0,0.0,0.0,0.0,0.0,-1.0717,-1.0717,-1.0717,-1.0717,-1.0717,-1.0717,-1.0717,-1.0717,-1.0717,-1.0717,-1.0717,-1.0717,0.0,0.0,0.0,0.0,0.0,-1.0717,-1.0717,-1.0717,-1.0717,-1.0717,-1.0717,-1.0717,-1.28,-1.5719,-1.5848,-1.8116,-2.0919,-2.1046,-2.1109,-2.1109,-2.1109,-2.1109,-2.1109,-2.1109,-2.1109,-2.1109,-2.1109,-2.1109,-2.1109,-2.1109,-2.1109,-2.1109,-2.1109,-2.0895,-2.0695,-2.0681,-2.0241,-1.9853,-1.9813,-1.9573,-1.9399,-1.943,-1.943,-1.943,-1.943,-1.943,-1.943,-1.943,-1.943,-1.943,-1.943,-1.943,-1.943,-1.943,-1.943,-1.943,-1.943,-1.943,-1.943,-1.943,-1.943,-1.943,-1.943,-1.943,-1.943,-1.943,-1.943,-1.943,-0.7139,0.0,-0.7159,-0.7193,-0.7179,-0.7152,0.0,-0.7125,-0.7098,-0.7098,-0.7098,-0.7098,-0.7098,-0.7098,-0.7098,-0.7098,0.0,0.0,0.0,0.0,0.0,0.0,0.0,0.0,0.0,0.0,0.0,0.0,0.0,0.0,0.0,0.0,-1.0717,-1.0717,-1.0717,-1.0717,-1.0717,-1.0717,-1.0717,-1.0717,-1.0717,-1.0717,-1.0717,-1.0717,0.0,0.0,0.0,0.0,-1.0717,-1.0717,-1.0717,-1.0717,-1.0717,-1.0717,-1.0717,-1.0717,-1.2091,-1.4101,-1.5459,-1.7345,-1.9355,-2.0652,-2.1109,-2.1109,-2.1109,-2.1109,-2.1109,-2.1109,-2.1109,-2.1109,-2.1109,-2.1109,-2.1109,-2.1109,-2.1109,-2.1109,-2.1109,-2.1056,-2.0949,-2.0722,-2.0561,-2.0334,-1.988,-1.9746,-1.9626,-1.9457,-1.943,-1.943,-1.943,-1.943,-1.943,-1.943,-1.943,-1.943,-1.943,-1.943,-1.943,-1.943,-1.943,-1.943,-1.943,-1.943,-1.943,-1.943,-1.943,-1.943,-1.943,-1.943,-1.943,-1.943,-1.943,-1.943,-0.7098,-0.7098,-0.7098,-0.7098,-0.7098,-0.7098,-0.7098,-0.7098,-0.7098,-0.7098,-0.7098,-0.7098,-0.7098,0.0,0.0,0.0,0.0,0.0,0.0,0.0,0.0,0.0,0.0,0.0,0.0,0.0,0.0,0.0,0.0,0.0,0.0,0.0,-1.0717,-1.0717,-1.0717,-1.0717,-1.0717,-1.0717,-1.0717,-1.0717,-1.0717,-1.0717,-1.0717,-1.0717,0.0,0.0,0.0,0.0,-1.0717,-1.0717,-1.0717,-1.0717,-1.0717,-1.0717,-1.0717,-1.0717,-1.1828,-1.3578,-1.5329,-1.7538,-1.9877,-2.0779,-2.1109,-2.1109,-2.1109,-2.1109,-2.1109,-2.1109,-2.1109,-2.1109,-2.1109,-2.1109,-2.1109,-2.1109,-2.1109,-2.1109,-2.1109,-2.1109,-2.1069,-2.0909,-2.0762,-2.0575,-2.0254,-1.9973,-1.9746,-1.9586,-1.9452,-1.943,-1.943,-1.943,-1.943,-1.943,-1.943,-1.943,-1.943,-1.943,-1.943,-1.943,-1.943,-1.943,-1.943,-1.943,-1.943,-1.943,-1.943,-1.943,-1.943,-1.943,-1.943,-1.943,-1.943,-1.943,-0.7098,-0.7098,-0.7098,-0.7098,-0.7098,-0.7098,-0.7098,-0.7098,0.0,0.0,0.0,0.0,0.0,-0.7132,0.0,0.0,0.0,0.0,0.0,0.0,0.0,0.0,0.0,0.0,0.0,0.0,0.0,0.0,0.0,0.0,0.0,0.0,0.0,-1.0717,-1.0717,-1.0717,-1.0717,-1.0717,-1.0717,-1.0717,-1.0717,-1.0717,-1.0717,-1.0717,-1.0717,0.0,0.0,0.0,-1.0717,-1.0717,-1.0717,-1.0717,-1.0717,-1.0717,-1.0717,-1.0717,-1.1828,-1.3578,-1.5329,-1.7859,-2.0322,-2.0589,-2.0716,-2.0779,-2.1046,-2.1109,-2.1109,-2.1109,-2.1109,-2.1109,-2.1109,-2.1109,-2.1109,-2.1109,-2.1109,-2.1109,-2.1109,-2.1109,-2.1109,-2.1109,-2.0909,-2.0722,-2.0681,-2.0267,-1.992,-1.9867,-1.9626,-1.9439,-1.9439,-1.9457,-1.943,-1.943,-1.943,-1.943,-1.943,-1.943,-1.943,-1.943,-1.943,-1.943,-1.943,-1.943,-1.943,-1.943,-1.943,-1.943,-1.943,-1.943,-1.943,-1.943,-1.943,-1.9399,-0.7098,-0.7098,-0.7098,-0.7098,-0.7098,-0.7098,-0.7098,-0.7098,-0.7098,0.0,0.0,0.0,0.0,-0.7333,0.0,0.0,0.0,0.0,0.0,0.0,0.0,0.0,0.0,0.0,0.0,0.0,0.0,0.0,0.0,0.0,0.0,0.0,0.0,-1.0717,-1.0717,-1.0717,-1.0717,-1.0717,-1.0717,-1.0717,-1.0717,-1.0717,-1.0717,-1.0717,-1.0717,0.0,0.0,-1.0717,-1.0717,-1.0717,-1.0717,-1.0717,-1.0717,-1.0717,-1.0717,-1.0717,-1.1828,-1.3578,-1.5329,-1.6237,-1.6947,-1.8436,-1.8896,-1.9152,-2.0652,-2.1109,-2.1109,-2.1109,-2.1109,-2.1109,-2.1109,-2.1109,-2.1109,-2.1109,-2.1109,-2.1109,-2.1109,-2.1109,-2.1109,-2.1109,-2.1069,-2.0962,-2.0722,-2.0601,-2.0454,-2.0201,-1.992,-1.9733,-1.9733,-1.9519,-1.943,-1.943,-1.943,-1.943,-1.943,-1.943,-1.943,-1.943,-1.943,-1.943,-1.943,-1.943,-1.943,-1.943,-1.943,-1.943,-1.943,-1.943,-1.943,-1.943,-1.943,-1.9492,-0.7098,-0.7098,-0.7119,-0.7244,-0.7204,-0.7098,-0.7098,-0.7098,-0.7098,0.0,0.0,0.0,0.0,0.0,0.0,0.0,0.0,0.0,0.0,0.0,0.0,0.0,0.0,0.0,0.0,0.0,0.0,0.0,0.0,0.0,0.0,0.0,0.0,0.0,-1.0717,-1.0717,-1.0717,-1.0717,-1.0717,-1.0717,-1.0717,-1.0717,-1.0717,-1.0717,-1.0717,-1.0717,0.0,-1.0717,-1.0717,-1.0717,-1.0717,-1.0717,-1.0717,-1.0717,-1.0717,-1.0717,-1.1828,-1.339,-1.4232,-1.5135,-1.6043,-1.6818,-1.7087,-1.7216,-1.8052,-1.896,-1.9674,-1.9674,-2.0399,-2.1109,-2.1109,-2.1109,-2.1109,-2.1109,-2.1109,-2.1109,-2.1109,-2.1109,-2.1109,-2.1109,-2.1109,-2.1069,-2.0935,-2.0775,-2.0628,-2.0494,-2.0227,-2.004,-2.004,-1.9786,-1.9599,-1.9599,-1.9466,-1.9068,-1.8169,-1.8881,-1.943,-1.943,-1.943,-1.943,-1.943,-1.943,-1.943,-1.943,-1.943,-1.943,-1.943,-1.9533,-1.9599,-1.9599,-1.976,-1.9907,-0.7098,-0.7098,-0.7125,-0.7285,-0.7258,-0.7159,-0.7193,-0.7206,-0.7206,0.0,0.0,0.0,0.0,0.0,0.0,0.0,0.0,0.0,0.0,0.0,0.0,0.0,0.0,0.0,0.0,0.0,0.0,0.0,0.0,0.0,0.0,0.0,0.0,0.0,-1.0717,-1.0717,-1.0717,-1.0717,-1.0717,-1.0717,-1.0717,-1.0717,-1.0717,-1.0717,-1.0717,-1.0717,-1.0717,-1.0717,-1.0717,-1.0717,-1.0717,-1.0717,-1.0717,-1.0717,-1.0717,-1.0717,-1.1563,-1.2668,-1.2668,-1.3587,-1.4754,-1.5135,-1.5265,-1.5394,-1.5784,-1.6818,-1.7859,-1.7859,-1.8832,-2.0068,-2.0919,-2.0779,-2.0589,-2.0982,-2.1109,-2.0982,-2.0589,-2.0779,-2.0982,-2.0589,-2.0843,-2.1109,-2.1109,-2.0922,-2.0775,-2.0775,-2.0521,-2.0334,-2.0334,-2.008,-1.9907,-1.9907,-1.9338,-1.8298,-1.6663,-1.8062,-1.8972,-1.8972,-1.9264,-1.943,-1.943,-1.943,-1.943,-1.943,-1.9439,-1.9466,-1.9466,-1.976,-1.9907,-1.9907,-2.0134,-2.0267,-0.7098,-0.7098,-0.7098,-0.7112,-0.7258,-0.7394,-0.7536,-0.7563,-0.7563,-0.7563,0.0,0.0,0.0,0.0,0.0,0.0,0.0,0.0,0.0,0.0,0.0,0.0,0.0,0.0,0.0,0.0,0.0,0.0,0.0,0.0,0.0,0.0,0.0,0.0,0.0,-1.0717,-1.0717,-1.0717,-1.0717,-1.0717,-1.0717,-1.0717,-1.0717,-1.0717,-1.0717,-1.0717,-1.0717,-1.0717,-1.0717,-1.0717,-1.0717,-1.0717,-1.0717,-1.0717,-1.0717,-1.0717,-1.0784,-1.0916,-1.0916,-1.0982,-1.1372,-1.2931,-1.3521,-1.3774,-1.5394,-1.5978,-1.6108,-1.6108,-1.6172,-1.7012,-2.0259,-1.9877,-1.9088,-2.0716,-2.1109,-2.0652,-1.9024,-1.9941,-2.0589,-1.9024,-2.0005,-2.1109,-2.1109,-2.1096,-2.1082,-2.1082,-2.0828,-2.0641,-2.0641,-2.0388,-2.0201,-2.0201,-1.8691,-1.7004,-1.5267,-1.6758,-1.7751,-1.7751,-1.8754,-1.943,-1.943,-1.943,-1.943,-1.943,-1.9626,-1.9773,-1.9773,-2.0054,-2.0201,-2.014,-2.0167,-2.0374,-0.7098,-0.721,-0.7305,-0.74,-0.7468,-0.7502,-0.7468,-0.7529,-0.7597,-0.7597,-0.7672,0.0,0.0,0.0,0.0,0.0,0.0,0.0,0.0,0.0,0.0,0.0,0.0,0.0,0.0,0.0,0.0,0.0,0.0,0.0,0.0,0.0,0.0,0.0,0.0,-1.0717,-1.0717,-1.0717,-1.0717,-1.0717,-1.0717,-1.0717,-1.0717,-1.0717,-1.0717,-1.0717,-1.0717,-1.0717,-1.0717,-1.0717,-1.0717,-1.0717,-1.0717,-1.0717,-1.0717,-1.0717,-1.0717,-1.0717,-1.0717,-1.0717,-1.0784,-1.1505,-1.1696,-1.1828,-1.2479,-1.339,-1.4297,-1.4297,-1.4297,-1.507,-1.8576,-1.896,-1.864,-1.9355,-1.9483,-1.9024,-1.7269,-1.7409,-1.7988,-1.8436,-1.9024,-1.9801,-2.0919,-2.1109,-2.1109,-2.1109,-2.1015,-2.0949,-2.0949,-2.0695,-2.0125,-1.8989,-1.6271,-1.4696,-1.4945,-1.4759,-1.4945,-1.5938,-1.8422,-1.9907,-1.9907,-1.9907,-1.9907,-1.9907,-2.0013,-2.0067,-2.0067,-2.0361,-2.0508,-2.0508,-2.0695,-2.0842,-0.7098,-0.7251,-0.7439,-0.7502,-0.7597,-0.7638,-0.7536,-0.7556,-0.7611,-0.7658,-0.7855,-0.8119,0.0,0.0,0.0,0.0,0.0,0.0,0.0,0.0,0.0,0.0,0.0,0.0,0.0,0.0,0.0,0.0,0.0,0.0,0.0,0.0,0.0,0.0,0.0,-1.0717,-1.0717,-1.0717,-1.0717,-1.0717,-1.0717,-1.0717,-1.0717,-1.0717,-1.0717,-1.0717,-1.0717,-1.0717,-1.0717,-1.0717,-1.0717,-1.0717,-1.0717,-1.0717,-1.0717,-1.0717,-1.0717,-1.0717,-1.0717,-1.0717,-1.0717,-1.0717,-1.0717,-1.0717,-1.0717,-1.1505,-1.2479,-1.2479,-1.2479,-1.3128,-1.6108,-1.6883,-1.7012,-1.7538,-1.7667,-1.7216,-1.5459,-1.5524,-1.6108,-1.6754,-1.7731,-1.8896,-2.0068,-2.0716,-2.0919,-2.0386,-2.0259,-2.0068,-1.9546,-1.9322,-1.8506,-1.6774,-1.4353,-1.3071,-1.3571,-1.3199,-1.3317,-1.4395,-1.7224,-1.8791,-1.8557,-1.8545,-1.8802,-1.9363,-1.9514,-1.9811,-2.0374,-2.0668,-2.0815,-2.0815,-2.1015,-2.1109,-0.7098,-0.7258,-0.7419,-0.7419,0.0,0.0,-0.7814,-0.7699,-0.7645,-0.7787,-0.8174,-0.8486,-0.8486,0.0,0.0,0.0,0.0,0.0,0.0,0.0,0.0,0.0,0.0,0.0,0.0,0.0,0.0,0.0,0.0,0.0,0.0,0.0,0.0,0.0,0.0,0.0,-1.0717,-1.0717,-1.0717,-1.0717,-1.0717,-1.0717,-1.0717,-1.0717,-1.0717,-1.0717,-1.0717,-1.0717,-1.0717,-1.0717,-1.0717,-1.0717,-1.0717,-1.0717,-1.0717,-1.0717,-1.0717,-1.0717,-1.0717,-1.0717,-1.0717,-1.0717,-1.0717,-1.0717,-1.0717,-1.0717,-1.0717,-1.0717,-1.0717,-1.1108,-1.28,-1.3259,-1.3709,-1.5459,-1.5848,-1.5394,-1.3643,-1.4623,-1.5329,-1.3643,-1.6108,-1.8448,-1.8448,-1.9941,-2.0462,-1.8704,-1.8512,-1.7859,-1.6108,-1.5913,-1.52,-1.3456,-1.3325,-1.261,-1.085,-1.2281,-1.3259,-1.3259,-1.4874,-1.5593,-1.5027,-1.5008,-1.5814,-1.7564,-1.7933,-1.8962,-2.0681,-2.0962,-2.1109,-2.1109,-2.1109,-2.1109,-0.7299,-0.7489,0.0,-0.7678,0.0,0.0,0.0,-0.778,0.0,0.0,-0.833,-0.8642,0.0,0.0,0.0,0.0,0.0,0.0,0.0,0.0,0.0,0.0,0.0,0.0,0.0,0.0,0.0,0.0,0.0,0.0,0.0,0.0,0.0,0.0,0.0,0.0,-1.0717,-1.0717,-1.0717,-1.0717,-1.0717,-1.0717,-1.0717,-1.0717,-1.0717,-1.0717,-1.0717,-1.0717,-1.0717,-1.0717,-1.0717,-1.0717,-1.0717,-1.0717,-1.0717,-1.0717,-1.0717,-1.0717,-1.0717,-1.0717,-1.0717,-1.0717,-1.0717,-1.0717,-1.0717,-1.0717,-1.0717,-1.0717,-1.0717,-1.085,-1.1372,-1.1505,-1.1894,-1.3643,-1.4101,-1.3578,-1.1828,-1.1894,-1.2479,-1.3128,-1.4101,-1.52,-1.6431,-1.7087,-1.728,-1.6754,-1.6689,-1.6496,-1.5978,-1.4819,-1.384,-1.339,-1.2215,-1.124,-1.0717,-1.1174,-1.1505,-1.1505,-1.196,-1.3274,-1.5529,-1.5657,-1.5913,-1.6424,-1.7712,-1.8649,-1.9169,-2.0474,-2.1109,-2.1109,-2.1109,-2.1109,-0.7419,-0.7584,0.0,-0.7814,-0.7855,-0.7902,-0.7902,0.0,0.0,0.0,0.0,0.0,0.0,0.0,0.0,0.0,0.0,0.0,0.0,0.0,0.0,0.0,0.0,0.0,0.0,0.0,0.0,0.0,0.0,0.0,0.0,0.0,0.0,0.0,0.0,0.0,-1.0629,-1.0629,-1.0663,-1.0717,-1.0717,-1.0717,-1.0717,-1.0717,-1.0717,-1.0717,-1.0717,-1.0717,-1.0717,-1.0717,-1.0717,-1.0717,-1.0717,-1.0717,-1.0717,-1.0717,-1.0717,-1.0717,-1.0717,-1.0717,-1.0717,-1.0717,-1.0717,-1.0717,-1.0717,-1.0717,-1.0717,-1.0717,-1.0717,-1.0717,-1.0717,-1.0717,-1.0982,-1.2025,-1.2281,-1.196,-1.0916,-1.0717,-1.0982,-1.2091,-1.28,-1.3643,-1.4688,-1.5459,-1.5654,-1.4939,-1.4297,-1.384,-1.384,-1.2931,-1.2281,-1.2281,-1.1306,-1.0717,-1.0717,-1.0717,-1.0717,-1.0717,-1.0717,-1.163,-1.3774,-1.384,-1.4166,-1.4874,-1.5913,-1.6754,-1.7474,-1.85,-1.9024,-1.9024,-1.9024,-1.9024,-0.7433,-0.7597,0.0,-0.7828,-0.7887,0.0,-0.8008,-0.8022,0.0,0.0,0.0,0.0,0.0,0.0,0.0,0.0,0.0,0.0,0.0,0.0,0.0,0.0,0.0,0.0,0.0,0.0,0.0,0.0,0.0,0.0,0.0,0.0,0.0,0.0,0.0,0.0,-1.0473,-1.0473,-1.0548,0.0,-1.0697,-1.0704,-1.0717,-1.0717,-1.0717,-1.0717,-1.0717,-1.0717,-1.0717,-1.0717,-1.0717,-1.0717,-1.0717,-1.0717,-1.0717,-1.0717,-1.0717,-1.0717,-1.0717,-1.0717,-1.0717,-1.0717,-1.0717,-1.0717,-1.0717,-1.0717,-1.0717,-1.0717,-1.0717,-1.0717,-1.0717,-1.0717,-1.0717,-1.0717,-1.0717,-1.0717,-1.0717,-1.0717,-1.0717,-1.0717,-1.196,-1.3062,-1.3062,-1.4362,-1.4874,-1.3325,-1.1696,-1.0717,-1.0717,-1.0717,-1.0717,-1.0717,-1.0717,-1.0717,-1.0717,-1.0717,-1.0717,-1.0717,-1.0717,-1.0717,-1.0717,-1.0717,-1.1439,-1.3062,-1.3193,-1.4101,-1.5654,-1.5848,-1.5913,-1.5913,-1.5913,-1.5913,-0.7516,-0.7678,0.0,0.0,-0.7968,-0.8022,-0.8194,-0.8309,0.0,0.0,0.0,0.0,0.0,0.0,0.0,0.0,0.0,0.0,0.0,0.0,0.0,0.0,0.0,0.0,0.0,0.0,0.0,0.0,0.0,0.0,0.0,0.0,0.0,0.0,0.0,-1.0175,-1.0324,-1.0324,-1.0399,0.0,-1.0541,-1.0602,-1.0717,-1.0717,-1.0717,-1.0717,-1.0717,-1.0717,-1.0717,-1.0717,-1.0717,-1.0717,-1.0717,-1.0717,-1.0717,-1.0717,-1.0717,-1.0717,-1.0717,-1.0717,-1.0717,-1.0717,-1.0717,-1.0717,-1.0717,-1.0717,-1.0717,-1.0717,-1.0717,-1.0717,-1.0717,-1.0717,-1.0717,-1.0717,-1.0717,-1.0717,-1.0717,-1.0717,-1.0717,-1.0717,-1.0982,-1.124,-1.124,-1.1571,-1.1696,-1.1306,-1.0916,-1.0717,-1.0717,-1.0717,-1.0717,-1.0717,-1.0717,-1.0717,-1.0717,-1.0717,-1.0717,-1.0717,-1.0717,-1.0717,-1.0717,-1.0717,-1.085,-1.124,-1.261,-1.3456,-1.384,-1.52,-1.5913,-1.5913,-1.5913,-1.5913,-0.7556,0.0,0.0,-0.7948,0.0,-0.8049,-0.8323,0.0,0.0,0.0,0.0,0.0,0.0,0.0,0.0,0.0,0.0,0.0,0.0,0.0,0.0,0.0,0.0,0.0,0.0,0.0,0.0,0.0,0.0,0.0,0.0,0.0,0.0,0.0,-0.9876,-1.0012,-1.0168,-1.0168,-1.0243,-1.0392,-1.0392,-1.0466,-1.0616,-1.0683,-1.0717,-1.0717,-1.0717,-1.0717,-1.0717,-1.0717,-1.0717,-1.0717,-1.0717,-1.0717,-1.0717,-1.0717,-1.0717,-1.0717,-1.0717,-1.0717,-1.0717,-1.0717,-1.0717,-1.0717,-1.0717,-1.0717,-1.0717,-1.0717,-1.0717,-1.0717,-1.0717,-1.0717,-1.0717,-1.0717,-1.0717,-1.0717,-1.0717,-1.0717,-1.0717,-1.0717,-1.0717,-1.0717,-1.0717,-1.0717,-1.0717,-1.0717,-1.0717,-1.0717,-1.0717,-1.0717,-1.0717,-1.0717,-1.0717,-1.0717,-1.0717,-1.0717,-1.0717,-1.0717,-1.0717,-1.0717,-1.0717,-1.0717,-1.0717,-1.0717,-1.1563,-1.2091,-1.2091,-1.2997,-1.339,-1.339,-1.339,-1.339,-0.7516,0.0,-0.7848,-0.7948,-0.7988,0.0,-0.8418,0.0,0.0,0.0,0.0,0.0,0.0,0.0,0.0,0.0,0.0,0.0,0.0,0.0,0.0,0.0,0.0,0.0,0.0,0.0,0.0,0.0,0.0,0.0,0.0,0.0,-0.9822,-0.9822,-0.9822,-0.9883,-0.995,-0.995,-1.0086,-1.0243,-1.027,-1.0344,-1.046,-1.0588,-1.067,-1.0717,-1.0717,-1.0717,-1.0717,-1.0717,-1.0717,-1.0717,-1.0717,-1.0717,-1.0717,-1.0717,-1.0717,-1.0717,-1.0717,-1.0717,-1.0717,-1.0717,-1.0717,-1.0717,-1.0717,-1.0717,-1.0717,-1.0717,-1.0717,-1.0717,-1.0717,-1.0717,-1.0717,-1.0717,-1.0717,-1.0717,-1.0717,-1.0717,-1.0717,-1.0717,-1.0717,-1.0717,-1.0717,-1.0717,-1.0717,-1.0717,-1.0717,-1.0717,-1.0717,-1.0717,-1.0717,-1.0717,-1.0717,-1.0717,-1.0717,-1.0717,-1.0717,-1.0717,-1.0717,-1.0717,-1.0717,-1.0717,-1.0717,-1.0717,-1.0717,-1.0717,-1.0717,-1.0717,-1.0717,-1.0717,-1.0717,-1.0717,0.0,0.0,-0.7848,0.0,-0.7988,-0.8069,0.0,0.0,0.0,0.0,0.0,0.0,0.0,0.0,0.0,0.0,0.0,0.0,0.0,0.0,0.0,0.0,0.0,0.0,0.0,0.0,0.0,0.0,0.0,0.0,0.0,-0.9822,-0.9822,-0.9822,-0.9822,-0.9829,-0.9849,-0.9849,-0.993,-1.0017,-1.0215,-1.029,-1.031,-1.0331,-1.048,-1.0717,-1.0717,-1.0717,-1.0717,-1.0717,-1.0717,-1.0717,-1.0717,-1.0717,-1.0717,-1.0717,-1.0717,-1.0717,-1.0717,-1.0717,-1.0717,-1.0717,-1.0717,-1.0717,-1.0717,-1.0717,-1.0717,-1.0717,-1.0717,-1.0717,-1.0717,-1.0717,-1.0717,-1.0717,-1.0717,-1.0717,-1.0717,-1.0717,-1.0717,-1.0717,-1.0717,-1.0717,-1.0717,-1.0717,-1.0717,-1.0717,-1.0717,-1.0717,-1.0717,-1.0717,-1.0717,-1.0717,-1.0717,-1.0717,-1.0717,-1.0717,-1.0717,-1.0717,-1.0717,-1.0717,-1.0717,-1.0717,-1.0717,-1.0717,-1.0717,-1.0717,-1.0717,-1.0717,-1.0717,-1.0717,-1.0717,-1.0717,-0.7326,-0.7584,-0.7828,0.0,-0.7928,-0.8069,0.0,0.0,0.0,0.0,0.0,0.0,0.0,0.0,0.0,0.0,0.0,0.0,0.0,0.0,0.0,0.0,0.0,0.0,0.0,0.0,0.0,0.0,0.0,0.0,-0.9822,-0.9822,-0.9822,-0.9822,-0.9822,-0.9822,-0.9822,-0.9822,-0.9856,-0.9862,-0.9992,-1.0066,-1.0148,-1.0148,-1.027,-1.048,-1.0561,-1.0595,-1.0602,-1.0683,-1.0717,-1.0717,-1.0717,-1.0717,-1.0717,-1.0717,-1.0717,-1.0717,-1.0717,-1.0717,-1.0717,-1.0717,-1.0717,-1.0717,-1.0717,-1.0717,-1.0717,-1.0717,-1.0717,-1.0717,-1.0717,-1.0717,-1.0717,-1.0717,-1.0717,-1.0717,-1.0717,-1.0717,-1.0717,-1.0717,-1.0717,-1.0717,-1.0717,-1.0717,-1.0717,-1.0717,-1.0717,-1.0717,-1.0717,-1.0717,-1.0717,-1.0717,-1.0717,-1.0717,-1.0717,-1.0717,-1.0717,-1.0717,-1.0717,-1.0717,-1.0717,-1.0717,-1.0717,-1.0717,-1.0717,-1.0717,-1.0717,-1.0717,-1.0717,-1.0717,-1.0717,-1.0717,0.0,0.0,-0.7719,-0.7794,-0.7896,-0.8072,0.0,0.0,0.0,0.0,0.0,0.0,0.0,0.0,0.0,0.0,0.0,0.0,0.0,0.0,0.0,0.0,0.0,0.0,0.0,0.0,0.0,0.0,0.0,0.0,-0.9822,-0.9822,-0.9822,-0.9822,-0.9822,-0.9822,-0.9822,-0.9822,-0.9822,-0.9822,-0.9822,-0.9883,-0.993,-0.993,-1.0053,-1.0175,-1.0358,-1.0439,-1.0446,-1.0561,-1.0629,-1.0663,-1.0663,-1.0683,-1.0717,-1.0717,-1.0717,-1.0717,-1.0717,-1.0717,-1.0717,-1.0717,-1.0717,-1.0717,-1.0717,-1.0717,-1.0717,-1.0717,-1.0717,-1.0717,-1.0717,-1.0717,-1.0717,-1.0717,-1.0717,-1.0717,-1.0717,-1.0717,-1.0717,-1.0717,-1.0717,-1.0717,-1.0717,-1.0717,-1.0717,-1.0717,-1.0717,-1.0717,-1.0717,-1.0717,-1.0717,-1.0717,-1.0717,-1.0717,-1.0717,-1.0717,-1.0717,-1.0717,-1.0717,-1.0717,-1.0717,-1.0717,-1.0717,-1.0717,-1.0717,-1.0717,-1.0717,-1.0717,-1.0717,-1.0717,-1.0717,-1.0717,0.0,-0.7426,0.0,-0.774,0.0,0.0,0.0,0.0,0.0,0.0,0.0,0.0,0.0,0.0,0.0,0.0,0.0,0.0,0.0,0.0,0.0,0.0,0.0,0.0,0.0,0.0,0.0,0.0,0.0,0.0,-0.9822,-0.9822,-0.9822,-0.9822,-0.9822,-0.9822,-0.9822,-0.9822,-0.9822,-0.9822,-0.9822,-0.9822,-0.9836,-0.9836,-0.9836,-0.9863,-1.0161,-1.029,-1.029,-1.0297,-1.0385,-1.0507,-1.0507,-1.0595,-1.0717,-1.0717,-1.0717,-1.0717,-1.0717,-1.0717,-1.0717,-1.0717,-1.0717,-1.0717,-1.0717,-1.0717,-1.0717,-1.0717,-1.0717,-1.0717,-1.0717,-1.0717,-1.0717,-1.0717,-1.0717,-1.0717,-1.0717,-1.0717,-1.0717,-1.0717,-1.0717,-1.0717,-1.0717,-1.0717,-1.0717,-1.0717,-1.0717,-1.0717,-1.0717,-1.0717,-1.0717,-1.0717,-1.0717,-1.0717,-1.0717,-1.0717,-1.0717,-1.0717,-1.0717,-1.0717,-1.0717,-1.0717,-1.0717,-1.0717,-1.0717,-1.0717,-1.0717,-1.0717,-1.0717,-1.0717,-1.0717,-1.0717,0.0,0.0,0.0,-0.7502,-0.7604,0.0,0.0,0.0,0.0,0.0,0.0,0.0,0.0,0.0,0.0,0.0,0.0,0.0,0.0,0.0,0.0,0.0,0.0,0.0,0.0,0.0,0.0,0.0,0.0,0.0,-0.9822,-0.9822,-0.9822,-0.9822,-0.9822,-0.9822,-0.9822,-0.9822,-0.9822,-0.9822,-0.9822,-0.9822,-0.9822,-0.9822,-0.9822,-0.9829,-0.9937,-1.0039,-1.0141,-1.0243,-1.031,-1.0358,-1.0358,-1.0446,-1.0575,-1.0575,-1.0636,-1.0717,-1.0717,-1.0717,-1.0717,-1.0717,-1.0717,-1.0717,-1.0717,-1.0717,-1.0717,-1.0717,-1.0717,-1.0717,-1.0717,-1.0717,-1.0717,-1.0717,-1.0717,-1.0717,-1.0717,-1.0717,-1.0717,-1.0717,-1.0717,-1.0717,-1.0717,-1.0717,-1.0717,-1.0717,-1.0717,-1.0717,-1.0717,-1.0717,-1.0717,-1.0717,-1.0717,-1.0717,-1.0717,-1.0717,-1.0717,-1.0717,-1.0717,-1.0717,-1.0717,-1.0717,-1.0717,-1.0717,-1.0717,-1.0717,-1.0717,-1.0717,-1.0717,-1.0717,-1.0717,-1.0772,-0.7098,0.0,0.0,0.0,0.0,0.0,0.0,0.0,0.0,0.0,0.0,0.0,0.0,0.0,0.0,0.0,0.0,0.0,0.0,0.0,0.0,0.0,0.0,0.0,0.0,0.0,0.0,0.0,0.0,0.0,-0.9822,-0.9822,-0.9822,-0.9822,-0.9822,-0.9822,-0.9822,-0.9822,-0.9822,-0.9822,-0.9822,-0.9822,-0.9822,-0.9822,-0.9822,-0.9822,-0.9822,-0.9876,-0.9916,-1.0086,-1.0154,-1.0202,-1.0202,-1.029,-1.0419,-1.0419,-1.0514,-1.0643,-1.0643,-1.0677,-1.0717,-1.0717,-1.0717,-1.0717,-1.0717,-1.0717,-1.0717,-1.0717,-1.0717,-1.0717,-1.0717,-1.0717,-1.0717,-1.0717,-1.0717,-1.0717,-1.0717,-1.0717,-1.0717,-1.0717,-1.0717,-1.0717,-1.0717,-1.0717,-1.0717,-1.0717,-1.0717,-1.0717,-1.0717,-1.0717,-1.0717,-1.0717,-1.0717,-1.0717,-1.0717,-1.0717,-1.0717,-1.0717,-1.0717,-1.0717,-1.0717,-1.0717,-1.0717,-1.0717,-1.0717,-1.0717,-1.0717,-1.0717,-1.0717,-1.0724,-1.0772,-1.0907,0.0,0.0,0.0,0.0,0.0,0.0,0.0,0.0,0.0,0.0,0.0,0.0,0.0,0.0,0.0,0.0,0.0,0.0,0.0,0.0,0.0,0.0,0.0,0.0,0.0,0.0,0.0,0.0,0.0,-0.9815,-0.9822,-0.9822,-0.9822,-0.9822,-0.9822,-0.9822,-0.9822,-0.9822,-0.9822,-0.9822,-0.9822,-0.9822,-0.9822,-0.9822,-0.9822,-0.9822,-0.9822,-0.9822,-0.9822,-0.9822,-0.9849,-0.9977,-0.9977,-1.0134,-1.0276,-1.0276,-1.0365,-1.0487,-1.0487,-1.0582,-1.0711,-1.0711,-1.0717,-1.0717,-1.0717,-1.0717,-1.0717,-1.0717,-1.0717,-1.0717,-1.0717,-1.0717,-1.0717,-1.0717,-1.0717,-1.0717,-1.0717,-1.0717,-1.0717,-1.0717,-1.0717,-1.0717,-1.0717,-1.0717,-1.0717,-1.0717,-1.0717,-1.0717,-1.0717,-1.0717,-1.0717,-1.0717,-1.0717,-1.0717,-1.0717,-1.0717,-1.0717,-1.0717,-1.0717,-1.0717,-1.0717,-1.0717,-1.0717,-1.0717,-1.0717,-1.0724,-1.0724,-1.0724,-1.0724,-1.0731,-1.082,-1.1118,-0.7098,0.0,0.0,0.0,0.0,0.0,0.0,0.0,0.0,0.0,0.0,0.0,0.0,0.0,0.0,0.0,0.0,0.0,0.0,0.0,0.0,0.0,0.0,0.0,0.0,0.0,0.0,0.0,-0.9666,-0.9713,-0.9815,-0.9822,-0.9822,-0.9822,-0.9822,-0.9822,-0.9822,-0.9822,-0.9822,-0.9822,-0.9822,-0.9822,-0.9822,-0.9822,-0.9822,-0.9822,-0.9822,-0.9822,-0.9822,-0.9822,-0.9842,-0.9883,-0.9883,-0.9978,-1.0051,-1.0051,-1.0209,-1.0337,-1.0337,-1.0432,-1.0555,-1.0555,-1.0629,-1.0717,-1.0717,-1.0717,-1.0717,-1.0717,-1.0717,-1.0717,-1.0717,-1.0717,-1.0717,-1.0717,-1.0717,-1.0717,-1.0717,-1.0717,-1.0717,-1.0717,-1.0717,-1.0717,-1.0717,-1.0717,-1.0717,-1.0717,-1.0717,-1.0717,-1.0717,-1.0717,-1.0717,-1.0717,-1.0717,-1.0717,-1.0717,-1.0717,-1.0717,-1.0717,-1.0717,-1.0717,-1.0717,-1.0717,-1.0717,-1.0717,-1.0717,-1.0772,-1.082,-1.082,-1.082,-1.0826,-1.1151,-1.1314,0.0,0.0,0.0,0.0,0.0,0.0,-0.7529,-0.7706,0.0,0.0,0.0,0.0,0.0,0.0,0.0,0.0,0.0,0.0,0.0,0.0,0.0,0.0,0.0,0.0,0.0,0.0,0.0,0.0,-0.9517,-0.9578,-0.9727,-0.9788,-0.9822,-0.9822,-0.9822,-0.9822,-0.9822,-0.9822,-0.9822,-0.9822,-0.9822,-0.9822,-0.9822,-0.9822,-0.9822,-0.9822,-0.9822,-0.9822,-0.9822,-0.9822,-0.9822,-0.9822,-0.9822,-0.9876,-0.9896,-0.9896,-1.0053,-1.0181,-1.0181,-1.0283,-1.0412,-1.0473,-1.0555,-1.0636,-1.0704,-1.0717,-1.0717,-1.0717,-1.0717,-1.0717,-1.0717,-1.0717,-1.0717,-1.0717,-1.0717,-1.0717,-1.0717,-1.0717,-1.0717,-1.0717,-1.0717,-1.0717,-1.0717,-1.0717,-1.0717,-1.0717,-1.0717,-1.0717,-1.0717,-1.0717,-1.0717,-1.0717,-1.0717,-1.0717,-1.0717,-1.0717,-1.0717,-1.0717,-1.0717,-1.0717,-1.0717,-1.0717,-1.0717,-1.0717,-1.0785,-1.0921,-1.1131,-1.0941,-1.0941,-1.1138,-1.1307,-1.1423,0.0,0.0,0.0,0.0,0.0,0.0,-0.7509,-0.7672,-0.7889,0.0,0.0,0.0,0.0,0.0,0.0,0.0,0.0,0.0,0.0,0.0,0.0,0.0,0.0,0.0,0.0,0.0,-0.9248,-0.9347,-0.9374,-0.9442,-0.9578,-0.972,-0.9795,-0.9795,-0.9815,-0.9822,-0.9822,-0.9822,-0.9822,-0.9822,-0.9822,-0.9822,-0.9822,-0.9822,-0.9822,-0.9822,-0.9822,-0.9822,-0.9822,-0.9822,-0.9822,-0.9822,-0.9822,-0.9822,-0.9822,-0.9822,-0.9849,-0.9963,-0.9963,-1.0127,-1.0276,-1.0399,-1.0466,-1.0514,-1.0656,-1.0704,-1.0717,-1.0717,-1.0717,-1.0717,-1.0717,-1.0717,-1.0717,-1.0717,-1.0717,-1.0717,-1.0717,-1.0717,-1.0717,-1.0717,-1.0717,-1.0717,-1.0717,-1.0717,-1.0717,-1.0717,-1.0717,-1.0717,-1.0717,-1.0717,-1.0717,-1.0717,-1.0717,-1.0717,-1.0717,-1.0717,-1.0717,-1.0717,-1.0717,-1.0717,-1.0717,-1.0717,-1.0731,-1.0744,-1.0914,-1.1124,-1.1389,-1.1124,-1.1145,-1.1416,-1.1416,-1.1491,0.0,0.0,0.0,0.0,0.0,0.0,-0.7373,-0.7441,-0.7584,0.0,0.0,0.0,0.0,0.0,0.0,0.0,0.0,0.0,0.0,0.0,0.0,0.0,0.0,0.0,0.0,0.0,-0.9042,-0.9241,-0.9313,-0.9395,-0.9422,-0.9571,-0.9652,-0.9652,-0.9761,-0.9822,-0.9822,-0.9822,-0.9822,-0.9822,-0.9822,-0.9822,-0.9822,-0.9822,-0.9822,-0.9822,-0.9822,-0.9822,-0.9822,-0.9822,-0.9822,-0.9822,-0.9822,-0.9822,-0.9822,-0.9822,-0.9842,-0.9863,-0.9863,-0.9964,-1.0038,-1.0065,-1.0297,-1.0493,-1.0527,-1.0622,-1.0717,-1.0717,-1.0717,-1.0717,-1.0717,-1.0717,-1.0717,-1.0717,-1.0717,-1.0717,-1.0717,-1.0717,-1.0717,-1.0717,-1.0717,-1.0717,-1.0717,-1.0717,-1.0717,-1.0717,-1.0717,-1.0717,-1.0717,-1.0717,-1.0717,-1.0717,-1.0717,-1.0717,-1.0717,-1.0717,-1.0717,-1.0717,-1.0717,-1.0717,-1.0717,-1.0717,-1.0778,-1.0833,-1.1165,-1.1335,-1.1389,-1.1335,-1.1396,-1.1572,-1.1572,-1.1592,0.0,0.0,0.0,-0.7366,0.0,0.0,0.0,-0.759,-0.7699,0.0,0.0,0.0,0.0,0.0,0.0,0.0,0.0,0.0,0.0,0.0,0.0,0.0,0.0,0.0,0.0,0.0,-0.8967,-0.9042,-0.9184,-0.9323,-0.9323,-0.9415,-0.953,-0.9605,-0.968,-0.9747,-0.9822,-0.9822,-0.9822,-0.9822,-0.9822,-0.9822,-0.9822,-0.9822,-0.9822,-0.9822,-0.9822,-0.9822,-0.9822,-0.9822,-0.9822,-0.9822,-0.9822,-0.9822,-0.9822,-0.9822,-0.9822,-0.9822,-0.9822,-0.9869,-0.9883,-0.9963,-1.0085,-1.0297,-1.0446,-1.0602,-1.0717,-1.0717,-1.0717,-1.0717,-1.0717,-1.0717,-1.0717,-1.0717,-1.0717,-1.0717,-1.0717,-1.0717,-1.0717,-1.0717,-1.0717,-1.0717,-1.0717,-1.0717,-1.0717,-1.0717,-1.0717,-1.0717,-1.0717,-1.0717,-1.0717,-1.0717,-1.0717,-1.0717,-1.0717,-1.0717,-1.0717,-1.0717,-1.0717,-1.0717,-1.0717,-1.0725,-1.0941,-1.1165,-1.1314,-1.143,-1.1504,-1.1504,-1.1545,-1.1619,-1.1619,-1.1619,0.0,0.0,0.0,0.0,0.0,-0.7631,0.0,0.0,0.0,0.0,0.0,0.0,0.0,0.0,0.0,0.0,0.0,0.0,0.0,0.0,0.0,0.0,0.0,0.0,0.0,0.0,-0.8885,-0.8885,-0.9049,-0.9166,-0.9166,-0.9252,-0.9408,-0.9557,-0.9591,-0.968,-0.9822,-0.9822,-0.9822,-0.9822,-0.9822,-0.9822,-0.9822,-0.9822,-0.9822,-0.9822,-0.9822,-0.9822,-0.9822,-0.9822,-0.9822,-0.9822,-0.9822,-0.9822,-0.9822,-0.9822,-0.9822,-0.9822,-0.9822,-0.9822,-0.9842,-0.9903,-0.9963,-1.0044,-1.0399,-1.0575,-1.0683,-1.0711,-1.0717,-1.0717,-1.0717,-1.0717,-1.0717,-1.0717,-1.0717,-1.0717,-1.0717,-1.0717,-1.0717,-1.0717,-1.0717,-1.0717,-1.0717,-1.0717,-1.0717,-1.0717,-1.0717,-1.0717,-1.0717,-1.0717,-1.0717,-1.0717,-1.0717,-1.0717,-1.0717,-1.0717,-1.0717,-1.0717,-1.0717,-1.0731,-1.0765,-1.0873,-1.1145,-1.1389,-1.1416,-1.1497,-1.1619,-1.1619,-1.1619,-1.1619,-1.1619,-1.1619,0.0,0.0,0.0,0.0,-0.7597,0.0,0.0,0.0,0.0,0.0,0.0,0.0,0.0,0.0,0.0,0.0,0.0,0.0,0.0,0.0,0.0,0.0,0.0,0.0,0.0,0.0,0.0,-0.8885,-0.8898,-0.8905,-0.8905,-0.9103,-0.9309,-0.9401,-0.9537,-0.968,-0.9822,-0.9822,-0.9822,-0.9822,-0.9822,-0.9822,-0.9822,-0.9822,-0.9822,-0.9822,-0.9822,-0.9822,-0.9822,-0.9822,-0.9822,-0.9822,-0.9822,-0.9822,-0.9822,-0.9822,-0.9822,-0.9822,-0.9822,-0.9822,-0.9822,-0.9842,-0.9876,-1.0044,-1.0399,-1.0507,-1.0548,-1.0683,-1.0717,-1.0717,-1.0717,-1.0717,-1.0717,-1.0717,-1.0717,-1.0717,-1.0717,-1.0717,-1.0717,-1.0717,-1.0717,-1.0717,-1.0717,-1.0717,-1.0717,-1.0717,-1.0717,-1.0717,-1.0717,-1.0717,-1.0717,-1.0717,-1.0717,-1.0717,-1.0717,-1.0717,-1.0717,-1.0717,-1.0717,-1.0778,-1.0847,-1.1192,-1.1355,-1.1389,-1.1525,-1.1599,-1.1619,-1.1619,-1.1619,-1.1619,-1.1619,-1.1619,0.0,0.0,0.0,0.0,0.0,0.0,0.0,0.0,-0.7875,0.0,0.0,0.0,0.0,0.0,0.0,0.0,0.0,0.0,0.0,0.0,0.0,0.0,0.0,0.0,0.0,0.0,0.0,0.0,0.0,-0.8804,-0.8804,-0.8947,-0.9096,-0.9303,-0.9395,-0.9551,-0.97,-0.9781,-0.9822,-0.9822,-0.9822,-0.9822,-0.9822,-0.9822,-0.9822,-0.9822,-0.9822,-0.9822,-0.9822,-0.9822,-0.9822,-0.9822,-0.9822,-0.9822,-0.9822,-0.9822,-0.9822,-0.9822,-0.9822,-0.9822,-0.9822,-0.9822,-0.9862,-1.0011,-1.0195,-1.0358,-1.0507,-1.0568,-1.0649,-1.0717,-1.0717,-1.0717,-1.0717,-1.0717,-1.0717,-1.0717,-1.0717,-1.0717,-1.0717,-1.0717,-1.0717,-1.0717,-1.0717,-1.0717,-1.0717,-1.0717,-1.0717,-1.0717,-1.0717,-1.0717,-1.0717,-1.0717,-1.0717,-1.0717,-1.0717,-1.0717,-1.0717,-1.0717,-1.0806,-1.0921,-1.1063,-1.128,-1.1436,-1.1518,-1.1586,-1.1619,-1.1619,-1.1619,-1.1619,-1.1619,-1.1619,-1.1619,-0.8296,0.0,0.0,0.0,0.0,0.0,0.0,0.0,0.0,0.0,0.0,0.0,0.0,0.0,0.0,0.0,0.0,0.0,0.0,0.0,0.0,0.0,0.0,0.0,0.0,0.0,0.0,0.0,0.0,0.0,-0.871,-0.8818,-0.896,-0.9207,-0.93,-0.9456,-0.9605,-0.9747,-0.9822,-0.9822,-0.9822,-0.9822,-0.9822,-0.9822,-0.9822,-0.9822,-0.9822,-0.9822,-0.9822,-0.9822,-0.9822,-0.9822,-0.9822,-0.9822,-0.9822,-0.9822,-0.9822,-0.9822,-0.9822,-0.9822,-0.9822,-0.9822,-0.9897,-0.993,-0.9977,-1.0202,-1.0385,-1.0466,-1.0575,-1.067,-1.0711,-1.0717,-1.0717,-1.0717,-1.0717,-1.0717,-1.0717,-1.0717,-1.0717,-1.0717,-1.0717,-1.0717,-1.0717,-1.0717,-1.0717,-1.0717,-1.0717,-1.0717,-1.0717,-1.0717,-1.0717,-1.0717,-1.0717,-1.0717,-1.0717,-1.0717,-1.0738,-1.0778,-1.0928,-1.107,-1.1219,-1.1369,-1.1504,-1.1619,-1.1619,-1.1619,-1.1619,-1.1619,-1.1619,-1.1619,-1.1619,-1.1619,0.0,0.0,0.0,-0.8438,0.0,0.0,0.0,0.0,-0.6077,0.0,0.0,0.0,0.0,0.0,0.0,0.0,0.0,0.0,0.0,0.0,0.0,0.0,0.0,0.0,0.0,0.0,0.0,0.0,0.0,0.0,-0.8703,-0.8716,-0.8852,-0.92,-0.93,-0.9456,-0.9605,-0.9747,-0.9822,-0.9822,-0.9822,-0.9822,-0.9822,-0.9822,-0.9822,-0.9822,-0.9822,-0.9822,-0.9822,-0.9822,-0.9822,-0.9822,-0.9822,-0.9822,-0.9822,-0.9822,-0.9822,-0.9822,-0.9822,-0.9822,-0.9822,-0.9822,-0.9822,-0.9856,-0.9943,-0.9997,-1.0058,-1.0412,-1.0493,-1.0534,-1.0683,-1.0717,-1.0717,-1.0717,-1.0717,-1.0717,-1.0717,-1.0717,-1.0717,-1.0717,-1.0717,-1.0717,-1.0717,-1.0717,-1.0717,-1.0717,-1.0717,-1.0717,-1.0717,-1.0717,-1.0717,-1.0717,-1.0717,-1.0717,-1.0717,-1.0717,-1.0785,-1.0867,-1.1077,-1.1226,-1.1375,-1.1531,-1.1613,-1.1619,-1.1619,-1.1619,-1.1619,-1.1619,-1.1619,-1.1619,-1.1619,-1.1619,0.0,0.0,-0.8574,-0.8621,0.0,0.0,0.0,0.0,0.0,0.0,0.0,0.0,0.0,0.0,0.0,0.0,0.0,0.0,0.0,0.0,0.0,0.0,0.0,0.0,0.0,0.0,0.0,0.0,0.0,0.0,0.0,-0.8655,-0.8804,-0.9008,-0.915,-0.9306,-0.9456,-0.9605,-0.9727,-0.9822,-0.9822,-0.9822,-0.9822,-0.9822,-0.9822,-0.9822,-0.9822,-0.9822,-0.9822,-0.9822,-0.9822,-0.9822,-0.9822,-0.9822,-0.9822,-0.9822,-0.9822,-0.9822,-0.9822,-0.9822,-0.9822,-0.9822,-0.9822,-0.9829,-0.9883,-0.9909,-1.0031,-1.0297,-1.0419,-1.0527,-1.0677,-1.0717,-1.0717,-1.0717,-1.0717,-1.0717,-1.0717,-1.0717,-1.0717,-1.0717,-1.0717,-1.0717,-1.0717,-1.0717,-1.0717,-1.0717,-1.0717,-1.0717,-1.0717,-1.0717,-1.0717,-1.0717,-1.0717,-1.0717,-1.0717,-1.0717,-1.0785,-1.0873,-1.1084,-1.1233,-1.1382,-1.1538,-1.1619,-1.1619,-1.1619,-1.1619,-1.1619,-1.1619,-1.1619,-1.1619,-1.1619,-1.1619,-0.8764,-0.875,0.0,-0.8777,-0.7606,0.0,-0.5793,0.0,0.0,0.0,0.0,0.0,0.0,0.0,0.0,0.0,0.0,0.0,0.0,-0.2414,0.0,0.0,0.0,0.0,0.0,0.0,0.0,0.0,0.0,0.0,0.0,0.0,-0.8723,-0.8878,-0.9076,-0.9282,-0.9381,-0.953,-0.968,-0.9822,-0.9822,-0.9822,-0.9822,-0.9822,-0.9822,-0.9822,-0.9822,-0.9822,-0.9822,-0.9822,-0.9822,-0.9822,-0.9822,-0.9822,-0.9822,-0.9822,-0.9822,-0.9822,-0.9822,-0.9822,-0.9822,-0.9822,-0.9822,-0.9822,-0.9822,-0.989,-0.9923,-1.0086,-1.0263,-1.0439,-1.0541,-1.0643,-1.0717,-1.0717,-1.0717,-1.0717,-1.0717,-1.0717,-1.0717,-1.0717,-1.0717,-1.0717,-1.0717,-1.0717,-1.0717,-1.0717,-1.0717,-1.0717,-1.0717,-1.0717,-1.0717,-1.0717,-1.0717,-1.0717,-1.0717,-1.0772,-1.0867,-1.1016,-1.1165,-1.1314,-1.1463,-1.1565,-1.1619,-1.1619,-1.1619,-1.1619,-1.1619,-1.1619,-1.1619,-1.1619,-1.1619,-1.1619]}]]